<?xml version="1.0" encoding="UTF-8" standalone="no" ?>
<gpx xmlns="http://www.topografix.com/GPX/1/1" xmlns:xsi="http://www.w3.org/2001/XMLSchema-instance" xsi:schemaLocation="http://www.topografix.com/GPX/1/1 http://www.topografix.com/GPX/1/1/gpx.xsd" version="1.1" creator="VisuGPX - https://www.visugpx.com">
  <metadata>
    <name>Maroilles Val Joly 2014</name>
    <desc><![CDATA[57.9 km avec des passages bien gras.
belle gamelle au debut du parcours]]></desc>
  </metadata>
  <trk>
    <name><![CDATA[MVJ 2014]]></name>
    <trkseg>
      <trkpt lat="50.1345" lon="3.75848">
        <ele>149.62</ele>
        <time>2014-10-19T06:10:37Z</time>
      </trkpt>
      <trkpt lat="50.1345" lon="3.75848">
        <ele>149.62</ele>
        <time>2014-10-19T06:10:38Z</time>
      </trkpt>
      <trkpt lat="50.13454" lon="3.75848">
        <ele>149.62</ele>
        <time>2014-10-19T06:10:53Z</time>
      </trkpt>
      <trkpt lat="50.13455" lon="3.75847">
        <ele>149.62</ele>
        <time>2014-10-19T06:11:03Z</time>
      </trkpt>
      <trkpt lat="50.13456" lon="3.75846">
        <ele>149.62</ele>
        <time>2014-10-19T06:11:04Z</time>
      </trkpt>
      <trkpt lat="50.13456" lon="3.75844">
        <ele>149.62</ele>
        <time>2014-10-19T06:11:05Z</time>
      </trkpt>
      <trkpt lat="50.13457" lon="3.75843">
        <ele>149.62</ele>
        <time>2014-10-19T06:11:06Z</time>
      </trkpt>
      <trkpt lat="50.13457" lon="3.7584">
        <ele>149.62</ele>
        <time>2014-10-19T06:11:07Z</time>
      </trkpt>
      <trkpt lat="50.1348" lon="3.7579">
        <ele>148.66</ele>
        <time>2014-10-19T06:11:20Z</time>
      </trkpt>
      <trkpt lat="50.13515" lon="3.75751">
        <ele>148.18</ele>
        <time>2014-10-19T06:11:33Z</time>
      </trkpt>
      <trkpt lat="50.13554" lon="3.75684">
        <ele>147.7</ele>
        <time>2014-10-19T06:11:49Z</time>
      </trkpt>
      <trkpt lat="50.136" lon="3.75633">
        <ele>149.14</ele>
        <time>2014-10-19T06:12:05Z</time>
      </trkpt>
      <trkpt lat="50.13639" lon="3.75564">
        <ele>148.18</ele>
        <time>2014-10-19T06:12:19Z</time>
      </trkpt>
      <trkpt lat="50.13697" lon="3.75481">
        <ele>147.22</ele>
        <time>2014-10-19T06:12:36Z</time>
      </trkpt>
      <trkpt lat="50.13718" lon="3.75444">
        <ele>146.74</ele>
        <time>2014-10-19T06:12:44Z</time>
      </trkpt>
      <trkpt lat="50.1372" lon="3.75439">
        <ele>146.74</ele>
        <time>2014-10-19T06:12:45Z</time>
      </trkpt>
      <trkpt lat="50.13746" lon="3.7534">
        <ele>143.85</ele>
        <time>2014-10-19T06:12:57Z</time>
      </trkpt>
      <trkpt lat="50.13759" lon="3.75216">
        <ele>142.89</ele>
        <time>2014-10-19T06:13:13Z</time>
      </trkpt>
      <trkpt lat="50.13761" lon="3.75203">
        <ele>142.89</ele>
        <time>2014-10-19T06:13:15Z</time>
      </trkpt>
      <trkpt lat="50.13769" lon="3.75156">
        <ele>142.89</ele>
        <time>2014-10-19T06:13:22Z</time>
      </trkpt>
      <trkpt lat="50.1378" lon="3.75116">
        <ele>142.89</ele>
        <time>2014-10-19T06:13:28Z</time>
      </trkpt>
      <trkpt lat="50.13788" lon="3.75099">
        <ele>142.41</ele>
        <time>2014-10-19T06:13:31Z</time>
      </trkpt>
      <trkpt lat="50.13847" lon="3.7504">
        <ele>141.93</ele>
        <time>2014-10-19T06:13:46Z</time>
      </trkpt>
      <trkpt lat="50.13851" lon="3.75035">
        <ele>141.45</ele>
        <time>2014-10-19T06:13:47Z</time>
      </trkpt>
      <trkpt lat="50.13878" lon="3.74985">
        <ele>141.45</ele>
        <time>2014-10-19T06:13:56Z</time>
      </trkpt>
      <trkpt lat="50.13906" lon="3.74892">
        <ele>140.49</ele>
        <time>2014-10-19T06:14:12Z</time>
      </trkpt>
      <trkpt lat="50.1395" lon="3.74814">
        <ele>140.49</ele>
        <time>2014-10-19T06:14:28Z</time>
      </trkpt>
      <trkpt lat="50.13988" lon="3.74709">
        <ele>139.53</ele>
        <time>2014-10-19T06:14:45Z</time>
      </trkpt>
      <trkpt lat="50.14013" lon="3.74612">
        <ele>139.53</ele>
        <time>2014-10-19T06:15:00Z</time>
      </trkpt>
      <trkpt lat="50.14056" lon="3.74511">
        <ele>139.05</ele>
        <time>2014-10-19T06:15:17Z</time>
      </trkpt>
      <trkpt lat="50.14073" lon="3.74474">
        <ele>139.05</ele>
        <time>2014-10-19T06:15:23Z</time>
      </trkpt>
      <trkpt lat="50.14123" lon="3.74354">
        <ele>138.57</ele>
        <time>2014-10-19T06:15:40Z</time>
      </trkpt>
      <trkpt lat="50.14164" lon="3.74253">
        <ele>138.57</ele>
        <time>2014-10-19T06:15:55Z</time>
      </trkpt>
      <trkpt lat="50.14206" lon="3.7415">
        <ele>137.61</ele>
        <time>2014-10-19T06:16:10Z</time>
      </trkpt>
      <trkpt lat="50.14214" lon="3.74132">
        <ele>137.13</ele>
        <time>2014-10-19T06:16:13Z</time>
      </trkpt>
      <trkpt lat="50.14217" lon="3.74128">
        <ele>137.13</ele>
        <time>2014-10-19T06:16:14Z</time>
      </trkpt>
      <trkpt lat="50.14221" lon="3.74125">
        <ele>137.13</ele>
        <time>2014-10-19T06:16:15Z</time>
      </trkpt>
      <trkpt lat="50.14225" lon="3.74125">
        <ele>137.13</ele>
        <time>2014-10-19T06:16:16Z</time>
      </trkpt>
      <trkpt lat="50.14229" lon="3.74127">
        <ele>137.13</ele>
        <time>2014-10-19T06:16:17Z</time>
      </trkpt>
      <trkpt lat="50.14233" lon="3.74128">
        <ele>137.13</ele>
        <time>2014-10-19T06:16:18Z</time>
      </trkpt>
      <trkpt lat="50.14295" lon="3.74149">
        <ele>137.13</ele>
        <time>2014-10-19T06:16:30Z</time>
      </trkpt>
      <trkpt lat="50.143" lon="3.74154">
        <ele>137.13</ele>
        <time>2014-10-19T06:16:31Z</time>
      </trkpt>
      <trkpt lat="50.14303" lon="3.74161">
        <ele>137.13</ele>
        <time>2014-10-19T06:16:32Z</time>
      </trkpt>
      <trkpt lat="50.14306" lon="3.74168">
        <ele>137.13</ele>
        <time>2014-10-19T06:16:33Z</time>
      </trkpt>
      <trkpt lat="50.14309" lon="3.74176">
        <ele>137.13</ele>
        <time>2014-10-19T06:16:34Z</time>
      </trkpt>
      <trkpt lat="50.14347" lon="3.74309">
        <ele>137.13</ele>
        <time>2014-10-19T06:16:51Z</time>
      </trkpt>
      <trkpt lat="50.14369" lon="3.74419">
        <ele>137.13</ele>
        <time>2014-10-19T06:17:05Z</time>
      </trkpt>
      <trkpt lat="50.14368" lon="3.74427">
        <ele>137.13</ele>
        <time>2014-10-19T06:17:06Z</time>
      </trkpt>
      <trkpt lat="50.14367" lon="3.74434">
        <ele>137.13</ele>
        <time>2014-10-19T06:17:07Z</time>
      </trkpt>
      <trkpt lat="50.14366" lon="3.74442">
        <ele>137.13</ele>
        <time>2014-10-19T06:17:08Z</time>
      </trkpt>
      <trkpt lat="50.14364" lon="3.74449">
        <ele>137.13</ele>
        <time>2014-10-19T06:17:09Z</time>
      </trkpt>
      <trkpt lat="50.14361" lon="3.74456">
        <ele>137.13</ele>
        <time>2014-10-19T06:17:10Z</time>
      </trkpt>
      <trkpt lat="50.14359" lon="3.74462">
        <ele>137.13</ele>
        <time>2014-10-19T06:17:11Z</time>
      </trkpt>
      <trkpt lat="50.14357" lon="3.7447">
        <ele>137.13</ele>
        <time>2014-10-19T06:17:12Z</time>
      </trkpt>
      <trkpt lat="50.14357" lon="3.74478">
        <ele>137.13</ele>
        <time>2014-10-19T06:17:13Z</time>
      </trkpt>
      <trkpt lat="50.14358" lon="3.74485">
        <ele>137.13</ele>
        <time>2014-10-19T06:17:14Z</time>
      </trkpt>
      <trkpt lat="50.1436" lon="3.74492">
        <ele>137.13</ele>
        <time>2014-10-19T06:17:15Z</time>
      </trkpt>
      <trkpt lat="50.14362" lon="3.74499">
        <ele>137.13</ele>
        <time>2014-10-19T06:17:16Z</time>
      </trkpt>
      <trkpt lat="50.14399" lon="3.7463">
        <ele>137.13</ele>
        <time>2014-10-19T06:17:34Z</time>
      </trkpt>
      <trkpt lat="50.144" lon="3.74645">
        <ele>138.57</ele>
        <time>2014-10-19T06:17:36Z</time>
      </trkpt>
      <trkpt lat="50.14401" lon="3.74763">
        <ele>138.09</ele>
        <time>2014-10-19T06:17:51Z</time>
      </trkpt>
      <trkpt lat="50.14416" lon="3.74891">
        <ele>139.53</ele>
        <time>2014-10-19T06:18:09Z</time>
      </trkpt>
      <trkpt lat="50.14443" lon="3.75025">
        <ele>140.49</ele>
        <time>2014-10-19T06:18:29Z</time>
      </trkpt>
      <trkpt lat="50.14456" lon="3.75097">
        <ele>141.45</ele>
        <time>2014-10-19T06:18:40Z</time>
      </trkpt>
      <trkpt lat="50.14483" lon="3.75233">
        <ele>143.37</ele>
        <time>2014-10-19T06:19:01Z</time>
      </trkpt>
      <trkpt lat="50.14495" lon="3.75296">
        <ele>143.85</ele>
        <time>2014-10-19T06:19:10Z</time>
      </trkpt>
      <trkpt lat="50.14497" lon="3.75302">
        <ele>143.85</ele>
        <time>2014-10-19T06:19:11Z</time>
      </trkpt>
      <trkpt lat="50.145" lon="3.75308">
        <ele>143.85</ele>
        <time>2014-10-19T06:19:12Z</time>
      </trkpt>
      <trkpt lat="50.14503" lon="3.75314">
        <ele>143.85</ele>
        <time>2014-10-19T06:19:13Z</time>
      </trkpt>
      <trkpt lat="50.14507" lon="3.75319">
        <ele>144.34</ele>
        <time>2014-10-19T06:19:14Z</time>
      </trkpt>
      <trkpt lat="50.14552" lon="3.75408">
        <ele>144.34</ele>
        <time>2014-10-19T06:19:29Z</time>
      </trkpt>
      <trkpt lat="50.14575" lon="3.75462">
        <ele>144.34</ele>
        <time>2014-10-19T06:19:37Z</time>
      </trkpt>
      <trkpt lat="50.14579" lon="3.75477">
        <ele>144.34</ele>
        <time>2014-10-19T06:19:39Z</time>
      </trkpt>
      <trkpt lat="50.14594" lon="3.756">
        <ele>144.34</ele>
        <time>2014-10-19T06:19:56Z</time>
      </trkpt>
      <trkpt lat="50.14592" lon="3.75605">
        <ele>144.34</ele>
        <time>2014-10-19T06:19:57Z</time>
      </trkpt>
      <trkpt lat="50.14589" lon="3.75609">
        <ele>144.34</ele>
        <time>2014-10-19T06:19:58Z</time>
      </trkpt>
      <trkpt lat="50.14585" lon="3.75611">
        <ele>144.34</ele>
        <time>2014-10-19T06:19:59Z</time>
      </trkpt>
      <trkpt lat="50.14581" lon="3.75614">
        <ele>144.34</ele>
        <time>2014-10-19T06:20:00Z</time>
      </trkpt>
      <trkpt lat="50.14577" lon="3.75616">
        <ele>144.34</ele>
        <time>2014-10-19T06:20:01Z</time>
      </trkpt>
      <trkpt lat="50.1456" lon="3.75629">
        <ele>144.82</ele>
        <time>2014-10-19T06:20:05Z</time>
      </trkpt>
      <trkpt lat="50.14556" lon="3.75632">
        <ele>145.3</ele>
        <time>2014-10-19T06:20:06Z</time>
      </trkpt>
      <trkpt lat="50.14553" lon="3.75637">
        <ele>145.3</ele>
        <time>2014-10-19T06:20:07Z</time>
      </trkpt>
      <trkpt lat="50.1455" lon="3.75642">
        <ele>145.3</ele>
        <time>2014-10-19T06:20:08Z</time>
      </trkpt>
      <trkpt lat="50.14548" lon="3.75649">
        <ele>145.3</ele>
        <time>2014-10-19T06:20:09Z</time>
      </trkpt>
      <trkpt lat="50.14547" lon="3.75657">
        <ele>145.3</ele>
        <time>2014-10-19T06:20:10Z</time>
      </trkpt>
      <trkpt lat="50.14547" lon="3.75664">
        <ele>145.3</ele>
        <time>2014-10-19T06:20:11Z</time>
      </trkpt>
      <trkpt lat="50.14548" lon="3.75671">
        <ele>145.3</ele>
        <time>2014-10-19T06:20:12Z</time>
      </trkpt>
      <trkpt lat="50.14548" lon="3.75679">
        <ele>145.3</ele>
        <time>2014-10-19T06:20:13Z</time>
      </trkpt>
      <trkpt lat="50.14557" lon="3.75806">
        <ele>145.3</ele>
        <time>2014-10-19T06:20:29Z</time>
      </trkpt>
      <trkpt lat="50.14571" lon="3.75922">
        <ele>145.3</ele>
        <time>2014-10-19T06:20:44Z</time>
      </trkpt>
      <trkpt lat="50.14575" lon="3.76001">
        <ele>145.3</ele>
        <time>2014-10-19T06:20:55Z</time>
      </trkpt>
      <trkpt lat="50.14576" lon="3.76007">
        <ele>145.3</ele>
        <time>2014-10-19T06:20:56Z</time>
      </trkpt>
      <trkpt lat="50.14578" lon="3.76014">
        <ele>145.3</ele>
        <time>2014-10-19T06:20:57Z</time>
      </trkpt>
      <trkpt lat="50.14585" lon="3.76032">
        <ele>145.3</ele>
        <time>2014-10-19T06:21:00Z</time>
      </trkpt>
      <trkpt lat="50.14594" lon="3.76058">
        <ele>145.3</ele>
        <time>2014-10-19T06:21:04Z</time>
      </trkpt>
      <trkpt lat="50.14597" lon="3.76071">
        <ele>145.3</ele>
        <time>2014-10-19T06:21:06Z</time>
      </trkpt>
      <trkpt lat="50.14603" lon="3.7609">
        <ele>143.85</ele>
        <time>2014-10-19T06:21:09Z</time>
      </trkpt>
      <trkpt lat="50.14612" lon="3.76116">
        <ele>143.37</ele>
        <time>2014-10-19T06:21:13Z</time>
      </trkpt>
      <trkpt lat="50.14616" lon="3.7613">
        <ele>143.37</ele>
        <time>2014-10-19T06:21:15Z</time>
      </trkpt>
      <trkpt lat="50.14618" lon="3.76135">
        <ele>142.89</ele>
        <time>2014-10-19T06:21:16Z</time>
      </trkpt>
      <trkpt lat="50.14627" lon="3.76153">
        <ele>142.89</ele>
        <time>2014-10-19T06:21:19Z</time>
      </trkpt>
      <trkpt lat="50.14651" lon="3.76187">
        <ele>141.93</ele>
        <time>2014-10-19T06:21:26Z</time>
      </trkpt>
      <trkpt lat="50.14654" lon="3.76192">
        <ele>141.45</ele>
        <time>2014-10-19T06:21:27Z</time>
      </trkpt>
      <trkpt lat="50.14658" lon="3.76196">
        <ele>141.45</ele>
        <time>2014-10-19T06:21:28Z</time>
      </trkpt>
      <trkpt lat="50.14662" lon="3.762">
        <ele>140.97</ele>
        <time>2014-10-19T06:21:29Z</time>
      </trkpt>
      <trkpt lat="50.14666" lon="3.76204">
        <ele>140.97</ele>
        <time>2014-10-19T06:21:30Z</time>
      </trkpt>
      <trkpt lat="50.14712" lon="3.76258">
        <ele>139.53</ele>
        <time>2014-10-19T06:21:42Z</time>
      </trkpt>
      <trkpt lat="50.14715" lon="3.76264">
        <ele>139.53</ele>
        <time>2014-10-19T06:21:43Z</time>
      </trkpt>
      <trkpt lat="50.14719" lon="3.7627">
        <ele>139.53</ele>
        <time>2014-10-19T06:21:44Z</time>
      </trkpt>
      <trkpt lat="50.14722" lon="3.76276">
        <ele>139.53</ele>
        <time>2014-10-19T06:21:45Z</time>
      </trkpt>
      <trkpt lat="50.14725" lon="3.76284">
        <ele>139.53</ele>
        <time>2014-10-19T06:21:46Z</time>
      </trkpt>
      <trkpt lat="50.14756" lon="3.76381">
        <ele>139.53</ele>
        <time>2014-10-19T06:22:00Z</time>
      </trkpt>
      <trkpt lat="50.14784" lon="3.76488">
        <ele>139.53</ele>
        <time>2014-10-19T06:22:14Z</time>
      </trkpt>
      <trkpt lat="50.14785" lon="3.76495">
        <ele>139.53</ele>
        <time>2014-10-19T06:22:15Z</time>
      </trkpt>
      <trkpt lat="50.1481" lon="3.76616">
        <ele>139.53</ele>
        <time>2014-10-19T06:22:33Z</time>
      </trkpt>
      <trkpt lat="50.14813" lon="3.76629">
        <ele>140.49</ele>
        <time>2014-10-19T06:22:35Z</time>
      </trkpt>
      <trkpt lat="50.14815" lon="3.76636">
        <ele>140.49</ele>
        <time>2014-10-19T06:22:36Z</time>
      </trkpt>
      <trkpt lat="50.14817" lon="3.76642">
        <ele>140.49</ele>
        <time>2014-10-19T06:22:37Z</time>
      </trkpt>
      <trkpt lat="50.14844" lon="3.76754">
        <ele>140.49</ele>
        <time>2014-10-19T06:22:53Z</time>
      </trkpt>
      <trkpt lat="50.1485" lon="3.76775">
        <ele>139.05</ele>
        <time>2014-10-19T06:22:56Z</time>
      </trkpt>
      <trkpt lat="50.14852" lon="3.7678">
        <ele>139.05</ele>
        <time>2014-10-19T06:22:57Z</time>
      </trkpt>
      <trkpt lat="50.1488" lon="3.76841">
        <ele>138.57</ele>
        <time>2014-10-19T06:23:10Z</time>
      </trkpt>
      <trkpt lat="50.14885" lon="3.76872">
        <ele>138.57</ele>
        <time>2014-10-19T06:23:15Z</time>
      </trkpt>
      <trkpt lat="50.14904" lon="3.76956">
        <ele>138.57</ele>
        <time>2014-10-19T06:23:27Z</time>
      </trkpt>
      <trkpt lat="50.14916" lon="3.77036">
        <ele>138.09</ele>
        <time>2014-10-19T06:23:38Z</time>
      </trkpt>
      <trkpt lat="50.14913" lon="3.77037">
        <ele>138.09</ele>
        <time>2014-10-19T06:23:39Z</time>
      </trkpt>
      <trkpt lat="50.14896" lon="3.77038">
        <ele>138.09</ele>
        <time>2014-10-19T06:23:43Z</time>
      </trkpt>
      <trkpt lat="50.1488" lon="3.77033">
        <ele>139.05</ele>
        <time>2014-10-19T06:23:47Z</time>
      </trkpt>
      <trkpt lat="50.14874" lon="3.77027">
        <ele>142.41</ele>
        <time>2014-10-19T06:23:49Z</time>
      </trkpt>
      <trkpt lat="50.14806" lon="3.76948">
        <ele>142.89</ele>
        <time>2014-10-19T06:24:08Z</time>
      </trkpt>
      <trkpt lat="50.14744" lon="3.76899">
        <ele>143.85</ele>
        <time>2014-10-19T06:24:23Z</time>
      </trkpt>
      <trkpt lat="50.1467" lon="3.76833">
        <ele>143.85</ele>
        <time>2014-10-19T06:24:40Z</time>
      </trkpt>
      <trkpt lat="50.14661" lon="3.76823">
        <ele>143.85</ele>
        <time>2014-10-19T06:24:42Z</time>
      </trkpt>
      <trkpt lat="50.14658" lon="3.76818">
        <ele>143.85</ele>
        <time>2014-10-19T06:24:43Z</time>
      </trkpt>
      <trkpt lat="50.14613" lon="3.76725">
        <ele>145.78</ele>
        <time>2014-10-19T06:24:58Z</time>
      </trkpt>
      <trkpt lat="50.146" lon="3.76699">
        <ele>145.78</ele>
        <time>2014-10-19T06:25:02Z</time>
      </trkpt>
      <trkpt lat="50.14596" lon="3.76696">
        <ele>146.26</ele>
        <time>2014-10-19T06:25:03Z</time>
      </trkpt>
      <trkpt lat="50.14592" lon="3.76697">
        <ele>146.26</ele>
        <time>2014-10-19T06:25:04Z</time>
      </trkpt>
      <trkpt lat="50.1459" lon="3.767">
        <ele>146.26</ele>
        <time>2014-10-19T06:25:05Z</time>
      </trkpt>
      <trkpt lat="50.14588" lon="3.76703">
        <ele>146.26</ele>
        <time>2014-10-19T06:25:06Z</time>
      </trkpt>
      <trkpt lat="50.14586" lon="3.76706">
        <ele>146.26</ele>
        <time>2014-10-19T06:25:07Z</time>
      </trkpt>
      <trkpt lat="50.14576" lon="3.76718">
        <ele>146.74</ele>
        <time>2014-10-19T06:25:12Z</time>
      </trkpt>
      <trkpt lat="50.14575" lon="3.7672">
        <ele>146.74</ele>
        <time>2014-10-19T06:25:13Z</time>
      </trkpt>
      <trkpt lat="50.14556" lon="3.76755">
        <ele>147.7</ele>
        <time>2014-10-19T06:25:25Z</time>
      </trkpt>
      <trkpt lat="50.1453" lon="3.76775">
        <ele>148.66</ele>
        <time>2014-10-19T06:25:37Z</time>
      </trkpt>
      <trkpt lat="50.14506" lon="3.76793">
        <ele>149.62</ele>
        <time>2014-10-19T06:25:48Z</time>
      </trkpt>
      <trkpt lat="50.14476" lon="3.7681">
        <ele>151.06</ele>
        <time>2014-10-19T06:26:02Z</time>
      </trkpt>
      <trkpt lat="50.14474" lon="3.76811">
        <ele>151.54</ele>
        <time>2014-10-19T06:26:03Z</time>
      </trkpt>
      <trkpt lat="50.14471" lon="3.76812">
        <ele>151.54</ele>
        <time>2014-10-19T06:26:04Z</time>
      </trkpt>
      <trkpt lat="50.14469" lon="3.76814">
        <ele>151.54</ele>
        <time>2014-10-19T06:26:05Z</time>
      </trkpt>
      <trkpt lat="50.14466" lon="3.76815">
        <ele>151.54</ele>
        <time>2014-10-19T06:26:06Z</time>
      </trkpt>
      <trkpt lat="50.14438" lon="3.76835">
        <ele>152.51</ele>
        <time>2014-10-19T06:26:19Z</time>
      </trkpt>
      <trkpt lat="50.14403" lon="3.76844">
        <ele>154.91</ele>
        <time>2014-10-19T06:26:32Z</time>
      </trkpt>
      <trkpt lat="50.1436" lon="3.76863">
        <ele>155.87</ele>
        <time>2014-10-19T06:26:48Z</time>
      </trkpt>
      <trkpt lat="50.14336" lon="3.76877">
        <ele>156.83</ele>
        <time>2014-10-19T06:26:59Z</time>
      </trkpt>
      <trkpt lat="50.14294" lon="3.76901">
        <ele>158.27</ele>
        <time>2014-10-19T06:27:16Z</time>
      </trkpt>
      <trkpt lat="50.14263" lon="3.7692">
        <ele>159.72</ele>
        <time>2014-10-19T06:27:29Z</time>
      </trkpt>
      <trkpt lat="50.14229" lon="3.76936">
        <ele>161.16</ele>
        <time>2014-10-19T06:27:44Z</time>
      </trkpt>
      <trkpt lat="50.14199" lon="3.76945">
        <ele>162.12</ele>
        <time>2014-10-19T06:27:57Z</time>
      </trkpt>
      <trkpt lat="50.14164" lon="3.7696">
        <ele>163.56</ele>
        <time>2014-10-19T06:28:11Z</time>
      </trkpt>
      <trkpt lat="50.14138" lon="3.76975">
        <ele>165</ele>
        <time>2014-10-19T06:28:25Z</time>
      </trkpt>
      <trkpt lat="50.14131" lon="3.76985">
        <ele>165.48</ele>
        <time>2014-10-19T06:28:30Z</time>
      </trkpt>
      <trkpt lat="50.1413" lon="3.76988">
        <ele>165.48</ele>
        <time>2014-10-19T06:28:31Z</time>
      </trkpt>
      <trkpt lat="50.14131" lon="3.7699">
        <ele>165.48</ele>
        <time>2014-10-19T06:28:32Z</time>
      </trkpt>
      <trkpt lat="50.14131" lon="3.76993">
        <ele>165.48</ele>
        <time>2014-10-19T06:28:33Z</time>
      </trkpt>
      <trkpt lat="50.14132" lon="3.76996">
        <ele>165.48</ele>
        <time>2014-10-19T06:28:34Z</time>
      </trkpt>
      <trkpt lat="50.14134" lon="3.76999">
        <ele>165.48</ele>
        <time>2014-10-19T06:28:35Z</time>
      </trkpt>
      <trkpt lat="50.14155" lon="3.77047">
        <ele>165.96</ele>
        <time>2014-10-19T06:28:49Z</time>
      </trkpt>
      <trkpt lat="50.14185" lon="3.77107">
        <ele>164.52</ele>
        <time>2014-10-19T06:29:02Z</time>
      </trkpt>
      <trkpt lat="50.14241" lon="3.77175">
        <ele>163.08</ele>
        <time>2014-10-19T06:29:14Z</time>
      </trkpt>
      <trkpt lat="50.1431" lon="3.77271">
        <ele>165.48</ele>
        <time>2014-10-19T06:29:33Z</time>
      </trkpt>
      <trkpt lat="50.14368" lon="3.77352">
        <ele>165.96</ele>
        <time>2014-10-19T06:29:49Z</time>
      </trkpt>
      <trkpt lat="50.14437" lon="3.77445">
        <ele>165.96</ele>
        <time>2014-10-19T06:30:07Z</time>
      </trkpt>
      <trkpt lat="50.14506" lon="3.77543">
        <ele>164.52</ele>
        <time>2014-10-19T06:30:25Z</time>
      </trkpt>
      <trkpt lat="50.1457" lon="3.77614">
        <ele>163.56</ele>
        <time>2014-10-19T06:30:39Z</time>
      </trkpt>
      <trkpt lat="50.14639" lon="3.77697">
        <ele>162.6</ele>
        <time>2014-10-19T06:30:55Z</time>
      </trkpt>
      <trkpt lat="50.14696" lon="3.7781">
        <ele>162.6</ele>
        <time>2014-10-19T06:31:11Z</time>
      </trkpt>
      <trkpt lat="50.14734" lon="3.77923">
        <ele>162.6</ele>
        <time>2014-10-19T06:31:26Z</time>
      </trkpt>
      <trkpt lat="50.14786" lon="3.78054">
        <ele>162.12</ele>
        <time>2014-10-19T06:31:44Z</time>
      </trkpt>
      <trkpt lat="50.14828" lon="3.78165">
        <ele>159.72</ele>
        <time>2014-10-19T06:31:58Z</time>
      </trkpt>
      <trkpt lat="50.14832" lon="3.78173">
        <ele>159.24</ele>
        <time>2014-10-19T06:31:59Z</time>
      </trkpt>
      <trkpt lat="50.14836" lon="3.78182">
        <ele>159.24</ele>
        <time>2014-10-19T06:32:00Z</time>
      </trkpt>
      <trkpt lat="50.14884" lon="3.78288">
        <ele>156.35</ele>
        <time>2014-10-19T06:32:12Z</time>
      </trkpt>
      <trkpt lat="50.14921" lon="3.78374">
        <ele>152.51</ele>
        <time>2014-10-19T06:32:20Z</time>
      </trkpt>
      <trkpt lat="50.14936" lon="3.78412">
        <ele>150.1</ele>
        <time>2014-10-19T06:32:23Z</time>
      </trkpt>
      <trkpt lat="50.14939" lon="3.78425">
        <ele>149.62</ele>
        <time>2014-10-19T06:32:24Z</time>
      </trkpt>
      <trkpt lat="50.14941" lon="3.78436">
        <ele>149.62</ele>
        <time>2014-10-19T06:32:25Z</time>
      </trkpt>
      <trkpt lat="50.14942" lon="3.7845">
        <ele>149.14</ele>
        <time>2014-10-19T06:32:26Z</time>
      </trkpt>
      <trkpt lat="50.14941" lon="3.78463">
        <ele>149.14</ele>
        <time>2014-10-19T06:32:27Z</time>
      </trkpt>
      <trkpt lat="50.1494" lon="3.78478">
        <ele>149.14</ele>
        <time>2014-10-19T06:32:28Z</time>
      </trkpt>
      <trkpt lat="50.14931" lon="3.7861">
        <ele>149.62</ele>
        <time>2014-10-19T06:32:39Z</time>
      </trkpt>
      <trkpt lat="50.14934" lon="3.7871">
        <ele>152.03</ele>
        <time>2014-10-19T06:32:52Z</time>
      </trkpt>
      <trkpt lat="50.14935" lon="3.78722">
        <ele>152.03</ele>
        <time>2014-10-19T06:32:54Z</time>
      </trkpt>
      <trkpt lat="50.14941" lon="3.78778">
        <ele>152.03</ele>
        <time>2014-10-19T06:33:03Z</time>
      </trkpt>
      <trkpt lat="50.14946" lon="3.78782">
        <ele>152.03</ele>
        <time>2014-10-19T06:33:04Z</time>
      </trkpt>
      <trkpt lat="50.14949" lon="3.78783">
        <ele>152.03</ele>
        <time>2014-10-19T06:33:05Z</time>
      </trkpt>
      <trkpt lat="50.14954" lon="3.78785">
        <ele>152.03</ele>
        <time>2014-10-19T06:33:06Z</time>
      </trkpt>
      <trkpt lat="50.14959" lon="3.78787">
        <ele>152.03</ele>
        <time>2014-10-19T06:33:07Z</time>
      </trkpt>
      <trkpt lat="50.15001" lon="3.7881">
        <ele>151.06</ele>
        <time>2014-10-19T06:33:16Z</time>
      </trkpt>
      <trkpt lat="50.15009" lon="3.78817">
        <ele>151.06</ele>
        <time>2014-10-19T06:33:18Z</time>
      </trkpt>
      <trkpt lat="50.15014" lon="3.78821">
        <ele>150.1</ele>
        <time>2014-10-19T06:33:19Z</time>
      </trkpt>
      <trkpt lat="50.15019" lon="3.78827">
        <ele>150.1</ele>
        <time>2014-10-19T06:33:20Z</time>
      </trkpt>
      <trkpt lat="50.15059" lon="3.78879">
        <ele>146.74</ele>
        <time>2014-10-19T06:33:28Z</time>
      </trkpt>
      <trkpt lat="50.15064" lon="3.78886">
        <ele>146.74</ele>
        <time>2014-10-19T06:33:29Z</time>
      </trkpt>
      <trkpt lat="50.15121" lon="3.78995">
        <ele>143.37</ele>
        <time>2014-10-19T06:33:41Z</time>
      </trkpt>
      <trkpt lat="50.15152" lon="3.79064">
        <ele>140.97</ele>
        <time>2014-10-19T06:33:49Z</time>
      </trkpt>
      <trkpt lat="50.15153" lon="3.79074">
        <ele>140.97</ele>
        <time>2014-10-19T06:33:50Z</time>
      </trkpt>
      <trkpt lat="50.15152" lon="3.79085">
        <ele>141.45</ele>
        <time>2014-10-19T06:33:51Z</time>
      </trkpt>
      <trkpt lat="50.15152" lon="3.79091">
        <ele>140.97</ele>
        <time>2014-10-19T06:33:52Z</time>
      </trkpt>
      <trkpt lat="50.1515" lon="3.791">
        <ele>140.97</ele>
        <time>2014-10-19T06:33:53Z</time>
      </trkpt>
      <trkpt lat="50.15147" lon="3.79109">
        <ele>140.97</ele>
        <time>2014-10-19T06:33:54Z</time>
      </trkpt>
      <trkpt lat="50.15133" lon="3.79158">
        <ele>142.41</ele>
        <time>2014-10-19T06:34:00Z</time>
      </trkpt>
      <trkpt lat="50.1513" lon="3.79164">
        <ele>142.41</ele>
        <time>2014-10-19T06:34:01Z</time>
      </trkpt>
      <trkpt lat="50.15127" lon="3.79169">
        <ele>142.89</ele>
        <time>2014-10-19T06:34:02Z</time>
      </trkpt>
      <trkpt lat="50.15122" lon="3.79173">
        <ele>142.89</ele>
        <time>2014-10-19T06:34:03Z</time>
      </trkpt>
      <trkpt lat="50.15118" lon="3.79178">
        <ele>142.89</ele>
        <time>2014-10-19T06:34:04Z</time>
      </trkpt>
      <trkpt lat="50.15114" lon="3.79182">
        <ele>142.89</ele>
        <time>2014-10-19T06:34:05Z</time>
      </trkpt>
      <trkpt lat="50.15104" lon="3.79192">
        <ele>142.89</ele>
        <time>2014-10-19T06:34:07Z</time>
      </trkpt>
      <trkpt lat="50.15096" lon="3.79205">
        <ele>142.89</ele>
        <time>2014-10-19T06:34:09Z</time>
      </trkpt>
      <trkpt lat="50.15092" lon="3.79213">
        <ele>141.93</ele>
        <time>2014-10-19T06:34:10Z</time>
      </trkpt>
      <trkpt lat="50.15064" lon="3.79277">
        <ele>140.97</ele>
        <time>2014-10-19T06:34:18Z</time>
      </trkpt>
      <trkpt lat="50.15041" lon="3.79326">
        <ele>140.97</ele>
        <time>2014-10-19T06:34:25Z</time>
      </trkpt>
      <trkpt lat="50.1502" lon="3.79356">
        <ele>140.97</ele>
        <time>2014-10-19T06:34:30Z</time>
      </trkpt>
      <trkpt lat="50.15008" lon="3.79371">
        <ele>140.97</ele>
        <time>2014-10-19T06:34:33Z</time>
      </trkpt>
      <trkpt lat="50.14945" lon="3.79453">
        <ele>142.89</ele>
        <time>2014-10-19T06:34:49Z</time>
      </trkpt>
      <trkpt lat="50.14937" lon="3.79463">
        <ele>142.89</ele>
        <time>2014-10-19T06:34:51Z</time>
      </trkpt>
      <trkpt lat="50.14933" lon="3.79467">
        <ele>142.89</ele>
        <time>2014-10-19T06:34:52Z</time>
      </trkpt>
      <trkpt lat="50.14928" lon="3.7947">
        <ele>142.89</ele>
        <time>2014-10-19T06:34:53Z</time>
      </trkpt>
      <trkpt lat="50.14894" lon="3.79486">
        <ele>144.34</ele>
        <time>2014-10-19T06:35:00Z</time>
      </trkpt>
      <trkpt lat="50.14889" lon="3.79489">
        <ele>144.34</ele>
        <time>2014-10-19T06:35:01Z</time>
      </trkpt>
      <trkpt lat="50.14885" lon="3.79493">
        <ele>144.34</ele>
        <time>2014-10-19T06:35:02Z</time>
      </trkpt>
      <trkpt lat="50.14881" lon="3.79497">
        <ele>144.34</ele>
        <time>2014-10-19T06:35:03Z</time>
      </trkpt>
      <trkpt lat="50.14877" lon="3.79502">
        <ele>144.34</ele>
        <time>2014-10-19T06:35:04Z</time>
      </trkpt>
      <trkpt lat="50.14834" lon="3.79571">
        <ele>146.74</ele>
        <time>2014-10-19T06:35:19Z</time>
      </trkpt>
      <trkpt lat="50.1479" lon="3.79612">
        <ele>149.14</ele>
        <time>2014-10-19T06:35:33Z</time>
      </trkpt>
      <trkpt lat="50.14727" lon="3.79586">
        <ele>151.06</ele>
        <time>2014-10-19T06:35:49Z</time>
      </trkpt>
      <trkpt lat="50.14688" lon="3.7955">
        <ele>151.06</ele>
        <time>2014-10-19T06:36:01Z</time>
      </trkpt>
      <trkpt lat="50.14627" lon="3.79503">
        <ele>152.03</ele>
        <time>2014-10-19T06:36:17Z</time>
      </trkpt>
      <trkpt lat="50.14611" lon="3.79494">
        <ele>152.03</ele>
        <time>2014-10-19T06:36:21Z</time>
      </trkpt>
      <trkpt lat="50.14607" lon="3.79495">
        <ele>152.03</ele>
        <time>2014-10-19T06:36:22Z</time>
      </trkpt>
      <trkpt lat="50.14602" lon="3.79496">
        <ele>152.03</ele>
        <time>2014-10-19T06:36:23Z</time>
      </trkpt>
      <trkpt lat="50.14591" lon="3.795">
        <ele>152.51</ele>
        <time>2014-10-19T06:36:26Z</time>
      </trkpt>
      <trkpt lat="50.14586" lon="3.79502">
        <ele>152.51</ele>
        <time>2014-10-19T06:36:27Z</time>
      </trkpt>
      <trkpt lat="50.14526" lon="3.7953">
        <ele>153.95</ele>
        <time>2014-10-19T06:36:42Z</time>
      </trkpt>
      <trkpt lat="50.14472" lon="3.79548">
        <ele>154.91</ele>
        <time>2014-10-19T06:36:56Z</time>
      </trkpt>
      <trkpt lat="50.14419" lon="3.79539">
        <ele>155.39</ele>
        <time>2014-10-19T06:37:10Z</time>
      </trkpt>
      <trkpt lat="50.1438" lon="3.79551">
        <ele>156.35</ele>
        <time>2014-10-19T06:37:20Z</time>
      </trkpt>
      <trkpt lat="50.14329" lon="3.7956">
        <ele>156.83</ele>
        <time>2014-10-19T06:37:33Z</time>
      </trkpt>
      <trkpt lat="50.14286" lon="3.79569">
        <ele>156.83</ele>
        <time>2014-10-19T06:37:44Z</time>
      </trkpt>
      <trkpt lat="50.14228" lon="3.79586">
        <ele>158.27</ele>
        <time>2014-10-19T06:37:59Z</time>
      </trkpt>
      <trkpt lat="50.14163" lon="3.79609">
        <ele>158.27</ele>
        <time>2014-10-19T06:38:16Z</time>
      </trkpt>
      <trkpt lat="50.14118" lon="3.79636">
        <ele>158.27</ele>
        <time>2014-10-19T06:38:32Z</time>
      </trkpt>
      <trkpt lat="50.14097" lon="3.79699">
        <ele>157.31</ele>
        <time>2014-10-19T06:38:46Z</time>
      </trkpt>
      <trkpt lat="50.14075" lon="3.79737">
        <ele>159.72</ele>
        <time>2014-10-19T06:38:57Z</time>
      </trkpt>
      <trkpt lat="50.14073" lon="3.79736">
        <ele>160.2</ele>
        <time>2014-10-19T06:38:58Z</time>
      </trkpt>
      <trkpt lat="50.1407" lon="3.79734">
        <ele>160.2</ele>
        <time>2014-10-19T06:38:59Z</time>
      </trkpt>
      <trkpt lat="50.14068" lon="3.79732">
        <ele>160.2</ele>
        <time>2014-10-19T06:39:00Z</time>
      </trkpt>
      <trkpt lat="50.14066" lon="3.7973">
        <ele>160.2</ele>
        <time>2014-10-19T06:39:01Z</time>
      </trkpt>
      <trkpt lat="50.14064" lon="3.79728">
        <ele>160.2</ele>
        <time>2014-10-19T06:39:02Z</time>
      </trkpt>
      <trkpt lat="50.14037" lon="3.79706">
        <ele>160.2</ele>
        <time>2014-10-19T06:39:14Z</time>
      </trkpt>
      <trkpt lat="50.14002" lon="3.79679">
        <ele>160.2</ele>
        <time>2014-10-19T06:39:29Z</time>
      </trkpt>
      <trkpt lat="50.13965" lon="3.79655">
        <ele>161.16</ele>
        <time>2014-10-19T06:39:41Z</time>
      </trkpt>
      <trkpt lat="50.13917" lon="3.79645">
        <ele>161.64</ele>
        <time>2014-10-19T06:39:52Z</time>
      </trkpt>
      <trkpt lat="50.13908" lon="3.79647">
        <ele>161.64</ele>
        <time>2014-10-19T06:39:54Z</time>
      </trkpt>
      <trkpt lat="50.13904" lon="3.79648">
        <ele>161.64</ele>
        <time>2014-10-19T06:39:55Z</time>
      </trkpt>
      <trkpt lat="50.1389" lon="3.79651">
        <ele>162.12</ele>
        <time>2014-10-19T06:39:58Z</time>
      </trkpt>
      <trkpt lat="50.13886" lon="3.79651">
        <ele>162.12</ele>
        <time>2014-10-19T06:39:59Z</time>
      </trkpt>
      <trkpt lat="50.13839" lon="3.7965">
        <ele>162.6</ele>
        <time>2014-10-19T06:40:12Z</time>
      </trkpt>
      <trkpt lat="50.13804" lon="3.79667">
        <ele>165</ele>
        <time>2014-10-19T06:40:26Z</time>
      </trkpt>
      <trkpt lat="50.13802" lon="3.79669">
        <ele>165</ele>
        <time>2014-10-19T06:40:27Z</time>
      </trkpt>
      <trkpt lat="50.13799" lon="3.7967">
        <ele>165</ele>
        <time>2014-10-19T06:40:28Z</time>
      </trkpt>
      <trkpt lat="50.13796" lon="3.79672">
        <ele>165.48</ele>
        <time>2014-10-19T06:40:29Z</time>
      </trkpt>
      <trkpt lat="50.13794" lon="3.79674">
        <ele>165.96</ele>
        <time>2014-10-19T06:40:30Z</time>
      </trkpt>
      <trkpt lat="50.13775" lon="3.79693">
        <ele>168.37</ele>
        <time>2014-10-19T06:40:38Z</time>
      </trkpt>
      <trkpt lat="50.13774" lon="3.79697">
        <ele>168.37</ele>
        <time>2014-10-19T06:40:39Z</time>
      </trkpt>
      <trkpt lat="50.13774" lon="3.797">
        <ele>168.37</ele>
        <time>2014-10-19T06:40:40Z</time>
      </trkpt>
      <trkpt lat="50.13775" lon="3.79704">
        <ele>168.37</ele>
        <time>2014-10-19T06:40:41Z</time>
      </trkpt>
      <trkpt lat="50.13775" lon="3.79707">
        <ele>168.37</ele>
        <time>2014-10-19T06:40:42Z</time>
      </trkpt>
      <trkpt lat="50.13776" lon="3.79711">
        <ele>168.37</ele>
        <time>2014-10-19T06:40:43Z</time>
      </trkpt>
      <trkpt lat="50.13776" lon="3.79713">
        <ele>168.37</ele>
        <time>2014-10-19T06:40:44Z</time>
      </trkpt>
      <trkpt lat="50.13777" lon="3.79718">
        <ele>168.85</ele>
        <time>2014-10-19T06:40:57Z</time>
      </trkpt>
      <trkpt lat="50.13775" lon="3.79717">
        <ele>168.85</ele>
        <time>2014-10-19T06:41:20Z</time>
      </trkpt>
      <trkpt lat="50.13776" lon="3.79717">
        <ele>168.85</ele>
        <time>2014-10-19T06:41:46Z</time>
      </trkpt>
      <trkpt lat="50.13776" lon="3.79719">
        <ele>168.85</ele>
        <time>2014-10-19T06:42:11Z</time>
      </trkpt>
      <trkpt lat="50.13777" lon="3.7972">
        <ele>168.85</ele>
        <time>2014-10-19T06:42:12Z</time>
      </trkpt>
      <trkpt lat="50.13778" lon="3.79721">
        <ele>168.85</ele>
        <time>2014-10-19T06:42:13Z</time>
      </trkpt>
      <trkpt lat="50.13779" lon="3.79724">
        <ele>168.85</ele>
        <time>2014-10-19T06:42:14Z</time>
      </trkpt>
      <trkpt lat="50.13779" lon="3.79728">
        <ele>168.85</ele>
        <time>2014-10-19T06:42:15Z</time>
      </trkpt>
      <trkpt lat="50.1378" lon="3.79732">
        <ele>168.85</ele>
        <time>2014-10-19T06:42:16Z</time>
      </trkpt>
      <trkpt lat="50.1378" lon="3.79736">
        <ele>168.85</ele>
        <time>2014-10-19T06:42:17Z</time>
      </trkpt>
      <trkpt lat="50.13781" lon="3.7974">
        <ele>168.85</ele>
        <time>2014-10-19T06:42:18Z</time>
      </trkpt>
      <trkpt lat="50.13794" lon="3.79823">
        <ele>167.89</ele>
        <time>2014-10-19T06:42:32Z</time>
      </trkpt>
      <trkpt lat="50.13802" lon="3.79899">
        <ele>167.41</ele>
        <time>2014-10-19T06:42:43Z</time>
      </trkpt>
      <trkpt lat="50.13834" lon="3.80002">
        <ele>166.93</ele>
        <time>2014-10-19T06:42:59Z</time>
      </trkpt>
      <trkpt lat="50.13877" lon="3.80106">
        <ele>165.48</ele>
        <time>2014-10-19T06:43:15Z</time>
      </trkpt>
      <trkpt lat="50.13894" lon="3.80146">
        <ele>165</ele>
        <time>2014-10-19T06:43:21Z</time>
      </trkpt>
      <trkpt lat="50.13897" lon="3.80153">
        <ele>164.52</ele>
        <time>2014-10-19T06:43:22Z</time>
      </trkpt>
      <trkpt lat="50.139" lon="3.8016">
        <ele>164.52</ele>
        <time>2014-10-19T06:43:23Z</time>
      </trkpt>
      <trkpt lat="50.13949" lon="3.80266">
        <ele>163.56</ele>
        <time>2014-10-19T06:43:39Z</time>
      </trkpt>
      <trkpt lat="50.13991" lon="3.80332">
        <ele>162.12</ele>
        <time>2014-10-19T06:43:49Z</time>
      </trkpt>
      <trkpt lat="50.14053" lon="3.80405">
        <ele>161.16</ele>
        <time>2014-10-19T06:44:03Z</time>
      </trkpt>
      <trkpt lat="50.14058" lon="3.8041">
        <ele>161.16</ele>
        <time>2014-10-19T06:44:04Z</time>
      </trkpt>
      <trkpt lat="50.14062" lon="3.80415">
        <ele>161.16</ele>
        <time>2014-10-19T06:44:05Z</time>
      </trkpt>
      <trkpt lat="50.14143" lon="3.80498">
        <ele>159.72</ele>
        <time>2014-10-19T06:44:22Z</time>
      </trkpt>
      <trkpt lat="50.1422" lon="3.80587">
        <ele>156.83</ele>
        <time>2014-10-19T06:44:38Z</time>
      </trkpt>
      <trkpt lat="50.14292" lon="3.80695">
        <ele>154.43</ele>
        <time>2014-10-19T06:44:53Z</time>
      </trkpt>
      <trkpt lat="50.14353" lon="3.80797">
        <ele>151.54</ele>
        <time>2014-10-19T06:45:06Z</time>
      </trkpt>
      <trkpt lat="50.14429" lon="3.80915">
        <ele>149.14</ele>
        <time>2014-10-19T06:45:21Z</time>
      </trkpt>
      <trkpt lat="50.1451" lon="3.81005">
        <ele>148.66</ele>
        <time>2014-10-19T06:45:38Z</time>
      </trkpt>
      <trkpt lat="50.14593" lon="3.81077">
        <ele>146.74</ele>
        <time>2014-10-19T06:45:55Z</time>
      </trkpt>
      <trkpt lat="50.14598" lon="3.81082">
        <ele>145.78</ele>
        <time>2014-10-19T06:45:56Z</time>
      </trkpt>
      <trkpt lat="50.14603" lon="3.81088">
        <ele>145.78</ele>
        <time>2014-10-19T06:45:57Z</time>
      </trkpt>
      <trkpt lat="50.14622" lon="3.81113">
        <ele>145.3</ele>
        <time>2014-10-19T06:46:01Z</time>
      </trkpt>
      <trkpt lat="50.14627" lon="3.8112">
        <ele>144.82</ele>
        <time>2014-10-19T06:46:02Z</time>
      </trkpt>
      <trkpt lat="50.14632" lon="3.81128">
        <ele>144.82</ele>
        <time>2014-10-19T06:46:03Z</time>
      </trkpt>
      <trkpt lat="50.14636" lon="3.81136">
        <ele>144.82</ele>
        <time>2014-10-19T06:46:04Z</time>
      </trkpt>
      <trkpt lat="50.1464" lon="3.81143">
        <ele>144.82</ele>
        <time>2014-10-19T06:46:05Z</time>
      </trkpt>
      <trkpt lat="50.14692" lon="3.81249">
        <ele>142.89</ele>
        <time>2014-10-19T06:46:19Z</time>
      </trkpt>
      <trkpt lat="50.14715" lon="3.81352">
        <ele>141.45</ele>
        <time>2014-10-19T06:46:32Z</time>
      </trkpt>
      <trkpt lat="50.14718" lon="3.81359">
        <ele>141.45</ele>
        <time>2014-10-19T06:46:33Z</time>
      </trkpt>
      <trkpt lat="50.1472" lon="3.81366">
        <ele>141.45</ele>
        <time>2014-10-19T06:46:34Z</time>
      </trkpt>
      <trkpt lat="50.14746" lon="3.8146">
        <ele>140.97</ele>
        <time>2014-10-19T06:46:47Z</time>
      </trkpt>
      <trkpt lat="50.14748" lon="3.81467">
        <ele>140.97</ele>
        <time>2014-10-19T06:46:48Z</time>
      </trkpt>
      <trkpt lat="50.14749" lon="3.81473">
        <ele>140.97</ele>
        <time>2014-10-19T06:46:49Z</time>
      </trkpt>
      <trkpt lat="50.14751" lon="3.81479">
        <ele>140.97</ele>
        <time>2014-10-19T06:46:50Z</time>
      </trkpt>
      <trkpt lat="50.14753" lon="3.81484">
        <ele>140.97</ele>
        <time>2014-10-19T06:46:51Z</time>
      </trkpt>
      <trkpt lat="50.14756" lon="3.81489">
        <ele>140.97</ele>
        <time>2014-10-19T06:46:52Z</time>
      </trkpt>
      <trkpt lat="50.14762" lon="3.81498">
        <ele>140.97</ele>
        <time>2014-10-19T06:46:54Z</time>
      </trkpt>
      <trkpt lat="50.14765" lon="3.81501">
        <ele>140.97</ele>
        <time>2014-10-19T06:46:55Z</time>
      </trkpt>
      <trkpt lat="50.14769" lon="3.81504">
        <ele>140.97</ele>
        <time>2014-10-19T06:46:56Z</time>
      </trkpt>
      <trkpt lat="50.14785" lon="3.81517">
        <ele>140.97</ele>
        <time>2014-10-19T06:47:00Z</time>
      </trkpt>
      <trkpt lat="50.14838" lon="3.81589">
        <ele>138.09</ele>
        <time>2014-10-19T06:47:12Z</time>
      </trkpt>
      <trkpt lat="50.14851" lon="3.81614">
        <ele>137.61</ele>
        <time>2014-10-19T06:47:15Z</time>
      </trkpt>
      <trkpt lat="50.14901" lon="3.8176">
        <ele>137.13</ele>
        <time>2014-10-19T06:47:32Z</time>
      </trkpt>
      <trkpt lat="50.14934" lon="3.81957">
        <ele>137.13</ele>
        <time>2014-10-19T06:47:53Z</time>
      </trkpt>
      <trkpt lat="50.14938" lon="3.81994">
        <ele>137.13</ele>
        <time>2014-10-19T06:47:57Z</time>
      </trkpt>
      <trkpt lat="50.14959" lon="3.82105">
        <ele>139.05</ele>
        <time>2014-10-19T06:48:10Z</time>
      </trkpt>
      <trkpt lat="50.14959" lon="3.82112">
        <ele>139.05</ele>
        <time>2014-10-19T06:48:11Z</time>
      </trkpt>
      <trkpt lat="50.14959" lon="3.8212">
        <ele>139.05</ele>
        <time>2014-10-19T06:48:12Z</time>
      </trkpt>
      <trkpt lat="50.14957" lon="3.82127">
        <ele>139.05</ele>
        <time>2014-10-19T06:48:13Z</time>
      </trkpt>
      <trkpt lat="50.14954" lon="3.82132">
        <ele>139.05</ele>
        <time>2014-10-19T06:48:14Z</time>
      </trkpt>
      <trkpt lat="50.14951" lon="3.82136">
        <ele>139.05</ele>
        <time>2014-10-19T06:48:15Z</time>
      </trkpt>
      <trkpt lat="50.14949" lon="3.82139">
        <ele>139.05</ele>
        <time>2014-10-19T06:48:16Z</time>
      </trkpt>
      <trkpt lat="50.14942" lon="3.82143">
        <ele>139.05</ele>
        <time>2014-10-19T06:48:17Z</time>
      </trkpt>
      <trkpt lat="50.14904" lon="3.82191">
        <ele>139.05</ele>
        <time>2014-10-19T06:48:26Z</time>
      </trkpt>
      <trkpt lat="50.14893" lon="3.8222">
        <ele>139.05</ele>
        <time>2014-10-19T06:48:30Z</time>
      </trkpt>
      <trkpt lat="50.14869" lon="3.82346">
        <ele>140.49</ele>
        <time>2014-10-19T06:48:47Z</time>
      </trkpt>
      <trkpt lat="50.14849" lon="3.82444">
        <ele>143.85</ele>
        <time>2014-10-19T06:49:01Z</time>
      </trkpt>
      <trkpt lat="50.14828" lon="3.82554">
        <ele>145.78</ele>
        <time>2014-10-19T06:49:16Z</time>
      </trkpt>
      <trkpt lat="50.14815" lon="3.82608">
        <ele>146.74</ele>
        <time>2014-10-19T06:49:24Z</time>
      </trkpt>
      <trkpt lat="50.14814" lon="3.82615">
        <ele>147.22</ele>
        <time>2014-10-19T06:49:25Z</time>
      </trkpt>
      <trkpt lat="50.14804" lon="3.82726">
        <ele>148.66</ele>
        <time>2014-10-19T06:49:42Z</time>
      </trkpt>
      <trkpt lat="50.14806" lon="3.82851">
        <ele>148.66</ele>
        <time>2014-10-19T06:49:59Z</time>
      </trkpt>
      <trkpt lat="50.14816" lon="3.82975">
        <ele>149.62</ele>
        <time>2014-10-19T06:50:16Z</time>
      </trkpt>
      <trkpt lat="50.1483" lon="3.83093">
        <ele>152.03</ele>
        <time>2014-10-19T06:50:33Z</time>
      </trkpt>
      <trkpt lat="50.14839" lon="3.83207">
        <ele>154.43</ele>
        <time>2014-10-19T06:50:51Z</time>
      </trkpt>
      <trkpt lat="50.14851" lon="3.83316">
        <ele>156.35</ele>
        <time>2014-10-19T06:51:09Z</time>
      </trkpt>
      <trkpt lat="50.14853" lon="3.83341">
        <ele>156.83</ele>
        <time>2014-10-19T06:51:13Z</time>
      </trkpt>
      <trkpt lat="50.14854" lon="3.83347">
        <ele>156.83</ele>
        <time>2014-10-19T06:51:14Z</time>
      </trkpt>
      <trkpt lat="50.14862" lon="3.83455">
        <ele>159.24</ele>
        <time>2014-10-19T06:51:30Z</time>
      </trkpt>
      <trkpt lat="50.14855" lon="3.8356">
        <ele>160.2</ele>
        <time>2014-10-19T06:51:45Z</time>
      </trkpt>
      <trkpt lat="50.1485" lon="3.83609">
        <ele>161.64</ele>
        <time>2014-10-19T06:51:52Z</time>
      </trkpt>
      <trkpt lat="50.14846" lon="3.83647">
        <ele>163.56</ele>
        <time>2014-10-19T06:51:57Z</time>
      </trkpt>
      <trkpt lat="50.14844" lon="3.83654">
        <ele>164.04</ele>
        <time>2014-10-19T06:51:58Z</time>
      </trkpt>
      <trkpt lat="50.1483" lon="3.83703">
        <ele>165.48</ele>
        <time>2014-10-19T06:52:06Z</time>
      </trkpt>
      <trkpt lat="50.14826" lon="3.83704">
        <ele>165.48</ele>
        <time>2014-10-19T06:52:07Z</time>
      </trkpt>
      <trkpt lat="50.14823" lon="3.83704">
        <ele>165.96</ele>
        <time>2014-10-19T06:52:08Z</time>
      </trkpt>
      <trkpt lat="50.14766" lon="3.83686">
        <ele>167.41</ele>
        <time>2014-10-19T06:52:22Z</time>
      </trkpt>
      <trkpt lat="50.14762" lon="3.83683">
        <ele>167.41</ele>
        <time>2014-10-19T06:52:23Z</time>
      </trkpt>
      <trkpt lat="50.1475" lon="3.83672">
        <ele>167.41</ele>
        <time>2014-10-19T06:52:26Z</time>
      </trkpt>
      <trkpt lat="50.14691" lon="3.83598">
        <ele>167.41</ele>
        <time>2014-10-19T06:52:42Z</time>
      </trkpt>
      <trkpt lat="50.14687" lon="3.83593">
        <ele>166.45</ele>
        <time>2014-10-19T06:52:43Z</time>
      </trkpt>
      <trkpt lat="50.14683" lon="3.83589">
        <ele>166.45</ele>
        <time>2014-10-19T06:52:44Z</time>
      </trkpt>
      <trkpt lat="50.14628" lon="3.83519">
        <ele>165.96</ele>
        <time>2014-10-19T06:52:59Z</time>
      </trkpt>
      <trkpt lat="50.14581" lon="3.83456">
        <ele>165.48</ele>
        <time>2014-10-19T06:53:13Z</time>
      </trkpt>
      <trkpt lat="50.14576" lon="3.83448">
        <ele>165.48</ele>
        <time>2014-10-19T06:53:14Z</time>
      </trkpt>
      <trkpt lat="50.14549" lon="3.8341">
        <ele>165.48</ele>
        <time>2014-10-19T06:53:22Z</time>
      </trkpt>
      <trkpt lat="50.14515" lon="3.8337">
        <ele>165</ele>
        <time>2014-10-19T06:53:30Z</time>
      </trkpt>
      <trkpt lat="50.14511" lon="3.83366">
        <ele>164.04</ele>
        <time>2014-10-19T06:53:31Z</time>
      </trkpt>
      <trkpt lat="50.14506" lon="3.83363">
        <ele>164.04</ele>
        <time>2014-10-19T06:53:32Z</time>
      </trkpt>
      <trkpt lat="50.14501" lon="3.8336">
        <ele>164.52</ele>
        <time>2014-10-19T06:53:33Z</time>
      </trkpt>
      <trkpt lat="50.14497" lon="3.83358">
        <ele>164.52</ele>
        <time>2014-10-19T06:53:34Z</time>
      </trkpt>
      <trkpt lat="50.14492" lon="3.83357">
        <ele>164.04</ele>
        <time>2014-10-19T06:53:35Z</time>
      </trkpt>
      <trkpt lat="50.14445" lon="3.83337">
        <ele>162.6</ele>
        <time>2014-10-19T06:53:44Z</time>
      </trkpt>
      <trkpt lat="50.14419" lon="3.83321">
        <ele>161.64</ele>
        <time>2014-10-19T06:53:49Z</time>
      </trkpt>
      <trkpt lat="50.14398" lon="3.83312">
        <ele>161.16</ele>
        <time>2014-10-19T06:53:53Z</time>
      </trkpt>
      <trkpt lat="50.14382" lon="3.83312">
        <ele>160.2</ele>
        <time>2014-10-19T06:53:56Z</time>
      </trkpt>
      <trkpt lat="50.14376" lon="3.83314">
        <ele>160.68</ele>
        <time>2014-10-19T06:53:57Z</time>
      </trkpt>
      <trkpt lat="50.1437" lon="3.83316">
        <ele>160.2</ele>
        <time>2014-10-19T06:53:58Z</time>
      </trkpt>
      <trkpt lat="50.14366" lon="3.83321">
        <ele>160.2</ele>
        <time>2014-10-19T06:53:59Z</time>
      </trkpt>
      <trkpt lat="50.14362" lon="3.83328">
        <ele>159.24</ele>
        <time>2014-10-19T06:54:00Z</time>
      </trkpt>
      <trkpt lat="50.14359" lon="3.83336">
        <ele>158.27</ele>
        <time>2014-10-19T06:54:01Z</time>
      </trkpt>
      <trkpt lat="50.14357" lon="3.83344">
        <ele>158.27</ele>
        <time>2014-10-19T06:54:02Z</time>
      </trkpt>
      <trkpt lat="50.14354" lon="3.83355">
        <ele>157.31</ele>
        <time>2014-10-19T06:54:03Z</time>
      </trkpt>
      <trkpt lat="50.1435" lon="3.83369">
        <ele>157.31</ele>
        <time>2014-10-19T06:54:05Z</time>
      </trkpt>
      <trkpt lat="50.14345" lon="3.83376">
        <ele>156.35</ele>
        <time>2014-10-19T06:54:06Z</time>
      </trkpt>
      <trkpt lat="50.14339" lon="3.83381">
        <ele>155.87</ele>
        <time>2014-10-19T06:54:07Z</time>
      </trkpt>
      <trkpt lat="50.14333" lon="3.83387">
        <ele>155.39</ele>
        <time>2014-10-19T06:54:08Z</time>
      </trkpt>
      <trkpt lat="50.14326" lon="3.83394">
        <ele>155.39</ele>
        <time>2014-10-19T06:54:09Z</time>
      </trkpt>
      <trkpt lat="50.1432" lon="3.83401">
        <ele>154.43</ele>
        <time>2014-10-19T06:54:10Z</time>
      </trkpt>
      <trkpt lat="50.14308" lon="3.83417">
        <ele>153.95</ele>
        <time>2014-10-19T06:54:12Z</time>
      </trkpt>
      <trkpt lat="50.14279" lon="3.83444">
        <ele>152.99</ele>
        <time>2014-10-19T06:54:16Z</time>
      </trkpt>
      <trkpt lat="50.14257" lon="3.83464">
        <ele>152.51</ele>
        <time>2014-10-19T06:54:19Z</time>
      </trkpt>
      <trkpt lat="50.14252" lon="3.83473">
        <ele>151.54</ele>
        <time>2014-10-19T06:54:20Z</time>
      </trkpt>
      <trkpt lat="50.14248" lon="3.83485">
        <ele>150.1</ele>
        <time>2014-10-19T06:54:21Z</time>
      </trkpt>
      <trkpt lat="50.14244" lon="3.83495">
        <ele>150.1</ele>
        <time>2014-10-19T06:54:22Z</time>
      </trkpt>
      <trkpt lat="50.14241" lon="3.83507">
        <ele>149.14</ele>
        <time>2014-10-19T06:54:23Z</time>
      </trkpt>
      <trkpt lat="50.1423" lon="3.83544">
        <ele>148.18</ele>
        <time>2014-10-19T06:54:26Z</time>
      </trkpt>
      <trkpt lat="50.14196" lon="3.83622">
        <ele>145.78</ele>
        <time>2014-10-19T06:54:33Z</time>
      </trkpt>
      <trkpt lat="50.1419" lon="3.83632">
        <ele>145.3</ele>
        <time>2014-10-19T06:54:34Z</time>
      </trkpt>
      <trkpt lat="50.14182" lon="3.8364">
        <ele>144.34</ele>
        <time>2014-10-19T06:54:35Z</time>
      </trkpt>
      <trkpt lat="50.14174" lon="3.83647">
        <ele>143.85</ele>
        <time>2014-10-19T06:54:36Z</time>
      </trkpt>
      <trkpt lat="50.14166" lon="3.83653">
        <ele>143.37</ele>
        <time>2014-10-19T06:54:37Z</time>
      </trkpt>
      <trkpt lat="50.14157" lon="3.83659">
        <ele>142.89</ele>
        <time>2014-10-19T06:54:38Z</time>
      </trkpt>
      <trkpt lat="50.14148" lon="3.83665">
        <ele>142.41</ele>
        <time>2014-10-19T06:54:39Z</time>
      </trkpt>
      <trkpt lat="50.1414" lon="3.83673">
        <ele>142.41</ele>
        <time>2014-10-19T06:54:40Z</time>
      </trkpt>
      <trkpt lat="50.14109" lon="3.83714">
        <ele>140.01</ele>
        <time>2014-10-19T06:54:44Z</time>
      </trkpt>
      <trkpt lat="50.14096" lon="3.83737">
        <ele>138.57</ele>
        <time>2014-10-19T06:54:46Z</time>
      </trkpt>
      <trkpt lat="50.14089" lon="3.83744">
        <ele>138.57</ele>
        <time>2014-10-19T06:54:47Z</time>
      </trkpt>
      <trkpt lat="50.14082" lon="3.83748">
        <ele>137.13</ele>
        <time>2014-10-19T06:54:49Z</time>
      </trkpt>
      <trkpt lat="50.14081" lon="3.83748">
        <ele>138.09</ele>
        <time>2014-10-19T06:55:07Z</time>
      </trkpt>
      <trkpt lat="50.1408" lon="3.83748">
        <ele>138.09</ele>
        <time>2014-10-19T06:55:25Z</time>
      </trkpt>
      <trkpt lat="50.14078" lon="3.83748">
        <ele>138.09</ele>
        <time>2014-10-19T06:55:34Z</time>
      </trkpt>
      <trkpt lat="50.14077" lon="3.83747">
        <ele>138.09</ele>
        <time>2014-10-19T06:55:35Z</time>
      </trkpt>
      <trkpt lat="50.14054" lon="3.83738">
        <ele>138.09</ele>
        <time>2014-10-19T06:55:47Z</time>
      </trkpt>
      <trkpt lat="50.14015" lon="3.83712">
        <ele>138.09</ele>
        <time>2014-10-19T06:55:59Z</time>
      </trkpt>
      <trkpt lat="50.14012" lon="3.83708">
        <ele>138.09</ele>
        <time>2014-10-19T06:56:00Z</time>
      </trkpt>
      <trkpt lat="50.14008" lon="3.83704">
        <ele>136.64</ele>
        <time>2014-10-19T06:56:01Z</time>
      </trkpt>
      <trkpt lat="50.14005" lon="3.837">
        <ele>136.64</ele>
        <time>2014-10-19T06:56:02Z</time>
      </trkpt>
      <trkpt lat="50.13972" lon="3.83663">
        <ele>136.64</ele>
        <time>2014-10-19T06:56:12Z</time>
      </trkpt>
      <trkpt lat="50.13968" lon="3.83659">
        <ele>136.64</ele>
        <time>2014-10-19T06:56:13Z</time>
      </trkpt>
      <trkpt lat="50.13928" lon="3.8362">
        <ele>136.64</ele>
        <time>2014-10-19T06:56:24Z</time>
      </trkpt>
      <trkpt lat="50.13921" lon="3.83611">
        <ele>136.64</ele>
        <time>2014-10-19T06:56:26Z</time>
      </trkpt>
      <trkpt lat="50.13918" lon="3.83606">
        <ele>136.64</ele>
        <time>2014-10-19T06:56:27Z</time>
      </trkpt>
      <trkpt lat="50.1389" lon="3.83557">
        <ele>136.64</ele>
        <time>2014-10-19T06:56:36Z</time>
      </trkpt>
      <trkpt lat="50.13886" lon="3.83552">
        <ele>136.64</ele>
        <time>2014-10-19T06:56:37Z</time>
      </trkpt>
      <trkpt lat="50.13882" lon="3.83548">
        <ele>136.64</ele>
        <time>2014-10-19T06:56:38Z</time>
      </trkpt>
      <trkpt lat="50.13874" lon="3.83541">
        <ele>136.64</ele>
        <time>2014-10-19T06:56:40Z</time>
      </trkpt>
      <trkpt lat="50.13855" lon="3.83518">
        <ele>136.64</ele>
        <time>2014-10-19T06:56:45Z</time>
      </trkpt>
      <trkpt lat="50.13852" lon="3.83512">
        <ele>136.64</ele>
        <time>2014-10-19T06:56:46Z</time>
      </trkpt>
      <trkpt lat="50.13849" lon="3.83506">
        <ele>136.64</ele>
        <time>2014-10-19T06:56:47Z</time>
      </trkpt>
      <trkpt lat="50.13832" lon="3.83443">
        <ele>136.16</ele>
        <time>2014-10-19T06:56:56Z</time>
      </trkpt>
      <trkpt lat="50.13803" lon="3.83347">
        <ele>136.16</ele>
        <time>2014-10-19T06:57:10Z</time>
      </trkpt>
      <trkpt lat="50.13791" lon="3.83325">
        <ele>136.16</ele>
        <time>2014-10-19T06:57:14Z</time>
      </trkpt>
      <trkpt lat="50.13784" lon="3.83317">
        <ele>136.16</ele>
        <time>2014-10-19T06:57:16Z</time>
      </trkpt>
      <trkpt lat="50.13767" lon="3.83306">
        <ele>136.16</ele>
        <time>2014-10-19T06:57:20Z</time>
      </trkpt>
      <trkpt lat="50.13745" lon="3.83297">
        <ele>136.16</ele>
        <time>2014-10-19T06:57:25Z</time>
      </trkpt>
      <trkpt lat="50.13741" lon="3.83294">
        <ele>136.16</ele>
        <time>2014-10-19T06:57:26Z</time>
      </trkpt>
      <trkpt lat="50.13739" lon="3.83289">
        <ele>136.16</ele>
        <time>2014-10-19T06:57:27Z</time>
      </trkpt>
      <trkpt lat="50.13736" lon="3.83284">
        <ele>136.16</ele>
        <time>2014-10-19T06:57:28Z</time>
      </trkpt>
      <trkpt lat="50.13734" lon="3.83278">
        <ele>137.61</ele>
        <time>2014-10-19T06:57:29Z</time>
      </trkpt>
      <trkpt lat="50.13732" lon="3.83273">
        <ele>137.61</ele>
        <time>2014-10-19T06:57:30Z</time>
      </trkpt>
      <trkpt lat="50.13705" lon="3.83263">
        <ele>138.09</ele>
        <time>2014-10-19T06:57:38Z</time>
      </trkpt>
      <trkpt lat="50.13646" lon="3.83288">
        <ele>140.97</ele>
        <time>2014-10-19T06:57:54Z</time>
      </trkpt>
      <trkpt lat="50.13628" lon="3.83321">
        <ele>143.85</ele>
        <time>2014-10-19T06:58:04Z</time>
      </trkpt>
      <trkpt lat="50.13609" lon="3.83374">
        <ele>146.26</ele>
        <time>2014-10-19T06:58:16Z</time>
      </trkpt>
      <trkpt lat="50.13578" lon="3.83445">
        <ele>147.7</ele>
        <time>2014-10-19T06:58:30Z</time>
      </trkpt>
      <trkpt lat="50.13524" lon="3.83521">
        <ele>147.22</ele>
        <time>2014-10-19T06:58:45Z</time>
      </trkpt>
      <trkpt lat="50.1352" lon="3.83526">
        <ele>147.22</ele>
        <time>2014-10-19T06:58:46Z</time>
      </trkpt>
      <trkpt lat="50.13501" lon="3.8355">
        <ele>147.22</ele>
        <time>2014-10-19T06:58:51Z</time>
      </trkpt>
      <trkpt lat="50.13498" lon="3.83557">
        <ele>147.22</ele>
        <time>2014-10-19T06:58:52Z</time>
      </trkpt>
      <trkpt lat="50.13491" lon="3.83572">
        <ele>145.78</ele>
        <time>2014-10-19T06:58:54Z</time>
      </trkpt>
      <trkpt lat="50.13483" lon="3.83587">
        <ele>144.82</ele>
        <time>2014-10-19T06:58:56Z</time>
      </trkpt>
      <trkpt lat="50.13478" lon="3.83595">
        <ele>144.82</ele>
        <time>2014-10-19T06:58:57Z</time>
      </trkpt>
      <trkpt lat="50.13461" lon="3.83619">
        <ele>142.89</ele>
        <time>2014-10-19T06:59:00Z</time>
      </trkpt>
      <trkpt lat="50.13407" lon="3.83667">
        <ele>145.78</ele>
        <time>2014-10-19T06:59:11Z</time>
      </trkpt>
      <trkpt lat="50.13398" lon="3.8367">
        <ele>146.74</ele>
        <time>2014-10-19T06:59:13Z</time>
      </trkpt>
      <trkpt lat="50.13394" lon="3.8367">
        <ele>146.74</ele>
        <time>2014-10-19T06:59:14Z</time>
      </trkpt>
      <trkpt lat="50.1339" lon="3.8367">
        <ele>147.22</ele>
        <time>2014-10-19T06:59:15Z</time>
      </trkpt>
      <trkpt lat="50.13382" lon="3.83668">
        <ele>147.7</ele>
        <time>2014-10-19T06:59:17Z</time>
      </trkpt>
      <trkpt lat="50.13378" lon="3.83666">
        <ele>148.66</ele>
        <time>2014-10-19T06:59:18Z</time>
      </trkpt>
      <trkpt lat="50.13374" lon="3.83663">
        <ele>148.66</ele>
        <time>2014-10-19T06:59:19Z</time>
      </trkpt>
      <trkpt lat="50.13336" lon="3.83629">
        <ele>149.14</ele>
        <time>2014-10-19T06:59:30Z</time>
      </trkpt>
      <trkpt lat="50.13331" lon="3.83629">
        <ele>148.18</ele>
        <time>2014-10-19T06:59:31Z</time>
      </trkpt>
      <trkpt lat="50.13326" lon="3.83631">
        <ele>147.7</ele>
        <time>2014-10-19T06:59:32Z</time>
      </trkpt>
      <trkpt lat="50.13322" lon="3.83635">
        <ele>147.7</ele>
        <time>2014-10-19T06:59:33Z</time>
      </trkpt>
      <trkpt lat="50.13318" lon="3.8364">
        <ele>147.22</ele>
        <time>2014-10-19T06:59:34Z</time>
      </trkpt>
      <trkpt lat="50.1327" lon="3.83687">
        <ele>143.85</ele>
        <time>2014-10-19T06:59:43Z</time>
      </trkpt>
      <trkpt lat="50.13202" lon="3.83756">
        <ele>140.97</ele>
        <time>2014-10-19T06:59:54Z</time>
      </trkpt>
      <trkpt lat="50.1316" lon="3.83801">
        <ele>139.05</ele>
        <time>2014-10-19T07:00:01Z</time>
      </trkpt>
      <trkpt lat="50.13154" lon="3.83805">
        <ele>139.05</ele>
        <time>2014-10-19T07:00:02Z</time>
      </trkpt>
      <trkpt lat="50.13081" lon="3.83849">
        <ele>138.57</ele>
        <time>2014-10-19T07:00:15Z</time>
      </trkpt>
      <trkpt lat="50.13067" lon="3.83856">
        <ele>138.57</ele>
        <time>2014-10-19T07:00:18Z</time>
      </trkpt>
      <trkpt lat="50.13062" lon="3.83856">
        <ele>138.57</ele>
        <time>2014-10-19T07:00:19Z</time>
      </trkpt>
      <trkpt lat="50.13058" lon="3.83856">
        <ele>138.57</ele>
        <time>2014-10-19T07:00:20Z</time>
      </trkpt>
      <trkpt lat="50.13054" lon="3.83856">
        <ele>138.57</ele>
        <time>2014-10-19T07:00:21Z</time>
      </trkpt>
      <trkpt lat="50.13051" lon="3.83858">
        <ele>138.09</ele>
        <time>2014-10-19T07:00:22Z</time>
      </trkpt>
      <trkpt lat="50.13047" lon="3.8386">
        <ele>138.09</ele>
        <time>2014-10-19T07:00:23Z</time>
      </trkpt>
      <trkpt lat="50.13016" lon="3.83881">
        <ele>138.09</ele>
        <time>2014-10-19T07:00:32Z</time>
      </trkpt>
      <trkpt lat="50.12976" lon="3.83923">
        <ele>138.09</ele>
        <time>2014-10-19T07:00:45Z</time>
      </trkpt>
      <trkpt lat="50.12972" lon="3.83926">
        <ele>138.09</ele>
        <time>2014-10-19T07:00:46Z</time>
      </trkpt>
      <trkpt lat="50.12969" lon="3.83929">
        <ele>138.09</ele>
        <time>2014-10-19T07:00:47Z</time>
      </trkpt>
      <trkpt lat="50.12966" lon="3.83933">
        <ele>138.09</ele>
        <time>2014-10-19T07:00:48Z</time>
      </trkpt>
      <trkpt lat="50.12926" lon="3.83985">
        <ele>138.09</ele>
        <time>2014-10-19T07:00:59Z</time>
      </trkpt>
      <trkpt lat="50.12925" lon="3.83991">
        <ele>138.09</ele>
        <time>2014-10-19T07:01:00Z</time>
      </trkpt>
      <trkpt lat="50.12925" lon="3.83998">
        <ele>138.09</ele>
        <time>2014-10-19T07:01:01Z</time>
      </trkpt>
      <trkpt lat="50.12926" lon="3.84005">
        <ele>138.09</ele>
        <time>2014-10-19T07:01:02Z</time>
      </trkpt>
      <trkpt lat="50.12927" lon="3.84011">
        <ele>138.09</ele>
        <time>2014-10-19T07:01:03Z</time>
      </trkpt>
      <trkpt lat="50.12928" lon="3.84017">
        <ele>138.09</ele>
        <time>2014-10-19T07:01:04Z</time>
      </trkpt>
      <trkpt lat="50.12923" lon="3.84086">
        <ele>138.09</ele>
        <time>2014-10-19T07:01:16Z</time>
      </trkpt>
      <trkpt lat="50.12924" lon="3.84097">
        <ele>138.09</ele>
        <time>2014-10-19T07:01:18Z</time>
      </trkpt>
      <trkpt lat="50.12932" lon="3.84133">
        <ele>139.53</ele>
        <time>2014-10-19T07:01:23Z</time>
      </trkpt>
      <trkpt lat="50.12947" lon="3.8418">
        <ele>140.01</ele>
        <time>2014-10-19T07:01:30Z</time>
      </trkpt>
      <trkpt lat="50.12967" lon="3.84279">
        <ele>143.37</ele>
        <time>2014-10-19T07:01:45Z</time>
      </trkpt>
      <trkpt lat="50.12976" lon="3.84355">
        <ele>146.26</ele>
        <time>2014-10-19T07:01:57Z</time>
      </trkpt>
      <trkpt lat="50.12983" lon="3.8443">
        <ele>146.74</ele>
        <time>2014-10-19T07:02:09Z</time>
      </trkpt>
      <trkpt lat="50.12984" lon="3.84444">
        <ele>147.22</ele>
        <time>2014-10-19T07:02:11Z</time>
      </trkpt>
      <trkpt lat="50.12984" lon="3.8445">
        <ele>147.22</ele>
        <time>2014-10-19T07:02:12Z</time>
      </trkpt>
      <trkpt lat="50.12986" lon="3.8447">
        <ele>147.22</ele>
        <time>2014-10-19T07:02:15Z</time>
      </trkpt>
      <trkpt lat="50.12988" lon="3.84516">
        <ele>147.22</ele>
        <time>2014-10-19T07:02:22Z</time>
      </trkpt>
      <trkpt lat="50.12988" lon="3.84522">
        <ele>147.22</ele>
        <time>2014-10-19T07:02:23Z</time>
      </trkpt>
      <trkpt lat="50.12995" lon="3.8461">
        <ele>148.18</ele>
        <time>2014-10-19T07:02:38Z</time>
      </trkpt>
      <trkpt lat="50.1299" lon="3.8469">
        <ele>150.1</ele>
        <time>2014-10-19T07:02:50Z</time>
      </trkpt>
      <trkpt lat="50.12976" lon="3.84759">
        <ele>151.54</ele>
        <time>2014-10-19T07:03:03Z</time>
      </trkpt>
      <trkpt lat="50.12971" lon="3.84772">
        <ele>153.47</ele>
        <time>2014-10-19T07:03:06Z</time>
      </trkpt>
      <trkpt lat="50.12951" lon="3.84826">
        <ele>155.87</ele>
        <time>2014-10-19T07:03:19Z</time>
      </trkpt>
      <trkpt lat="50.12937" lon="3.84899">
        <ele>158.27</ele>
        <time>2014-10-19T07:03:35Z</time>
      </trkpt>
      <trkpt lat="50.12924" lon="3.84923">
        <ele>159.72</ele>
        <time>2014-10-19T07:03:52Z</time>
      </trkpt>
      <trkpt lat="50.12921" lon="3.84929">
        <ele>159.72</ele>
        <time>2014-10-19T07:04:05Z</time>
      </trkpt>
      <trkpt lat="50.1292" lon="3.84929">
        <ele>159.72</ele>
        <time>2014-10-19T07:04:34Z</time>
      </trkpt>
      <trkpt lat="50.1292" lon="3.84929">
        <ele>159.72</ele>
        <time>2014-10-19T07:05:01Z</time>
      </trkpt>
      <trkpt lat="50.1292" lon="3.84932">
        <ele>159.72</ele>
        <time>2014-10-19T07:05:51Z</time>
      </trkpt>
      <trkpt lat="50.12921" lon="3.84928">
        <ele>159.72</ele>
        <time>2014-10-19T07:06:27Z</time>
      </trkpt>
      <trkpt lat="50.1292" lon="3.8493">
        <ele>160.2</ele>
        <time>2014-10-19T07:06:56Z</time>
      </trkpt>
      <trkpt lat="50.1292" lon="3.8493">
        <ele>160.2</ele>
        <time>2014-10-19T07:07:22Z</time>
      </trkpt>
      <trkpt lat="50.1292" lon="3.8493">
        <ele>153.95</ele>
        <time>2014-10-19T07:07:25Z</time>
      </trkpt>
      <trkpt lat="50.1292" lon="3.8493">
        <ele>157.79</ele>
        <time>2014-10-19T07:07:26Z</time>
      </trkpt>
      <trkpt lat="50.1292" lon="3.84932">
        <ele>158.75</ele>
        <time>2014-10-19T07:07:35Z</time>
      </trkpt>
      <trkpt lat="50.12921" lon="3.84931">
        <ele>157.31</ele>
        <time>2014-10-19T07:07:53Z</time>
      </trkpt>
      <trkpt lat="50.1292" lon="3.8493">
        <ele>158.27</ele>
        <time>2014-10-19T07:08:11Z</time>
      </trkpt>
      <trkpt lat="50.12921" lon="3.84928">
        <ele>158.75</ele>
        <time>2014-10-19T07:08:52Z</time>
      </trkpt>
      <trkpt lat="50.12921" lon="3.8493">
        <ele>158.75</ele>
        <time>2014-10-19T07:09:23Z</time>
      </trkpt>
      <trkpt lat="50.12921" lon="3.8493">
        <ele>157.79</ele>
        <time>2014-10-19T07:10:00Z</time>
      </trkpt>
      <trkpt lat="50.12921" lon="3.8493">
        <ele>157.79</ele>
        <time>2014-10-19T07:10:42Z</time>
      </trkpt>
      <trkpt lat="50.12922" lon="3.84928">
        <ele>157.79</ele>
        <time>2014-10-19T07:11:17Z</time>
      </trkpt>
      <trkpt lat="50.12923" lon="3.84931">
        <ele>159.24</ele>
        <time>2014-10-19T07:11:52Z</time>
      </trkpt>
      <trkpt lat="50.12923" lon="3.84932">
        <ele>159.24</ele>
        <time>2014-10-19T07:12:11Z</time>
      </trkpt>
      <trkpt lat="50.12923" lon="3.84932">
        <ele>157.79</ele>
        <time>2014-10-19T07:12:13Z</time>
      </trkpt>
      <trkpt lat="50.12924" lon="3.84931">
        <ele>158.27</ele>
        <time>2014-10-19T07:12:28Z</time>
      </trkpt>
      <trkpt lat="50.12923" lon="3.84932">
        <ele>158.27</ele>
        <time>2014-10-19T07:12:45Z</time>
      </trkpt>
      <trkpt lat="50.12921" lon="3.84931">
        <ele>157.79</ele>
        <time>2014-10-19T07:12:55Z</time>
      </trkpt>
      <trkpt lat="50.12922" lon="3.84933">
        <ele>159.72</ele>
        <time>2014-10-19T07:13:15Z</time>
      </trkpt>
      <trkpt lat="50.12924" lon="3.84933">
        <ele>157.79</ele>
        <time>2014-10-19T07:13:25Z</time>
      </trkpt>
      <trkpt lat="50.12925" lon="3.84935">
        <ele>160.2</ele>
        <time>2014-10-19T07:13:30Z</time>
      </trkpt>
      <trkpt lat="50.12925" lon="3.84935">
        <ele>157.79</ele>
        <time>2014-10-19T07:13:50Z</time>
      </trkpt>
      <trkpt lat="50.12925" lon="3.84933">
        <ele>159.72</ele>
        <time>2014-10-19T07:14:15Z</time>
      </trkpt>
      <trkpt lat="50.12921" lon="3.84932">
        <ele>160.68</ele>
        <time>2014-10-19T07:14:32Z</time>
      </trkpt>
      <trkpt lat="50.12921" lon="3.84933">
        <ele>160.68</ele>
        <time>2014-10-19T07:14:48Z</time>
      </trkpt>
      <trkpt lat="50.12922" lon="3.84935">
        <ele>160.68</ele>
        <time>2014-10-19T07:14:49Z</time>
      </trkpt>
      <trkpt lat="50.12923" lon="3.84936">
        <ele>160.68</ele>
        <time>2014-10-19T07:14:50Z</time>
      </trkpt>
      <trkpt lat="50.12924" lon="3.84938">
        <ele>160.68</ele>
        <time>2014-10-19T07:14:51Z</time>
      </trkpt>
      <trkpt lat="50.12926" lon="3.8494">
        <ele>160.68</ele>
        <time>2014-10-19T07:14:52Z</time>
      </trkpt>
      <trkpt lat="50.12933" lon="3.84977">
        <ele>161.64</ele>
        <time>2014-10-19T07:15:01Z</time>
      </trkpt>
      <trkpt lat="50.1293" lon="3.84979">
        <ele>161.64</ele>
        <time>2014-10-19T07:15:02Z</time>
      </trkpt>
      <trkpt lat="50.12928" lon="3.8498">
        <ele>161.64</ele>
        <time>2014-10-19T07:15:03Z</time>
      </trkpt>
      <trkpt lat="50.12925" lon="3.8498">
        <ele>161.64</ele>
        <time>2014-10-19T07:15:04Z</time>
      </trkpt>
      <trkpt lat="50.12922" lon="3.8498">
        <ele>161.64</ele>
        <time>2014-10-19T07:15:05Z</time>
      </trkpt>
      <trkpt lat="50.12859" lon="3.84977">
        <ele>161.64</ele>
        <time>2014-10-19T07:15:20Z</time>
      </trkpt>
      <trkpt lat="50.12849" lon="3.84979">
        <ele>161.64</ele>
        <time>2014-10-19T07:15:22Z</time>
      </trkpt>
      <trkpt lat="50.12845" lon="3.84981">
        <ele>161.64</ele>
        <time>2014-10-19T07:15:23Z</time>
      </trkpt>
      <trkpt lat="50.1284" lon="3.84985">
        <ele>161.64</ele>
        <time>2014-10-19T07:15:24Z</time>
      </trkpt>
      <trkpt lat="50.12814" lon="3.85011">
        <ele>161.64</ele>
        <time>2014-10-19T07:15:30Z</time>
      </trkpt>
      <trkpt lat="50.12743" lon="3.8504">
        <ele>160.2</ele>
        <time>2014-10-19T07:15:45Z</time>
      </trkpt>
      <trkpt lat="50.12703" lon="3.85053">
        <ele>160.2</ele>
        <time>2014-10-19T07:15:55Z</time>
      </trkpt>
      <trkpt lat="50.12693" lon="3.85056">
        <ele>159.72</ele>
        <time>2014-10-19T07:16:03Z</time>
      </trkpt>
      <trkpt lat="50.12692" lon="3.8506">
        <ele>159.72</ele>
        <time>2014-10-19T07:16:16Z</time>
      </trkpt>
      <trkpt lat="50.1269" lon="3.85061">
        <ele>159.72</ele>
        <time>2014-10-19T07:16:17Z</time>
      </trkpt>
      <trkpt lat="50.12656" lon="3.85077">
        <ele>159.72</ele>
        <time>2014-10-19T07:16:28Z</time>
      </trkpt>
      <trkpt lat="50.1257" lon="3.8511">
        <ele>159.72</ele>
        <time>2014-10-19T07:16:46Z</time>
      </trkpt>
      <trkpt lat="50.12539" lon="3.8512">
        <ele>156.83</ele>
        <time>2014-10-19T07:16:52Z</time>
      </trkpt>
      <trkpt lat="50.12534" lon="3.85121">
        <ele>157.79</ele>
        <time>2014-10-19T07:16:53Z</time>
      </trkpt>
      <trkpt lat="50.12524" lon="3.85124">
        <ele>160.2</ele>
        <time>2014-10-19T07:16:55Z</time>
      </trkpt>
      <trkpt lat="50.12441" lon="3.85176">
        <ele>160.2</ele>
        <time>2014-10-19T07:17:12Z</time>
      </trkpt>
      <trkpt lat="50.12353" lon="3.8527">
        <ele>160.2</ele>
        <time>2014-10-19T07:17:32Z</time>
      </trkpt>
      <trkpt lat="50.12315" lon="3.85316">
        <ele>159.24</ele>
        <time>2014-10-19T07:17:41Z</time>
      </trkpt>
      <trkpt lat="50.123" lon="3.85341">
        <ele>159.24</ele>
        <time>2014-10-19T07:17:45Z</time>
      </trkpt>
      <trkpt lat="50.12244" lon="3.85444">
        <ele>159.72</ele>
        <time>2014-10-19T07:18:02Z</time>
      </trkpt>
      <trkpt lat="50.12223" lon="3.85483">
        <ele>159.72</ele>
        <time>2014-10-19T07:18:09Z</time>
      </trkpt>
      <trkpt lat="50.12207" lon="3.85517">
        <ele>160.2</ele>
        <time>2014-10-19T07:18:15Z</time>
      </trkpt>
      <trkpt lat="50.12204" lon="3.85523">
        <ele>160.2</ele>
        <time>2014-10-19T07:18:16Z</time>
      </trkpt>
      <trkpt lat="50.12201" lon="3.85528">
        <ele>160.2</ele>
        <time>2014-10-19T07:18:17Z</time>
      </trkpt>
      <trkpt lat="50.1219" lon="3.85542">
        <ele>160.2</ele>
        <time>2014-10-19T07:18:20Z</time>
      </trkpt>
      <trkpt lat="50.12148" lon="3.8558">
        <ele>160.2</ele>
        <time>2014-10-19T07:18:31Z</time>
      </trkpt>
      <trkpt lat="50.12099" lon="3.85645">
        <ele>160.68</ele>
        <time>2014-10-19T07:18:45Z</time>
      </trkpt>
      <trkpt lat="50.12093" lon="3.85655">
        <ele>160.68</ele>
        <time>2014-10-19T07:18:47Z</time>
      </trkpt>
      <trkpt lat="50.1205" lon="3.85725">
        <ele>160.68</ele>
        <time>2014-10-19T07:19:03Z</time>
      </trkpt>
      <trkpt lat="50.1203" lon="3.85759">
        <ele>160.68</ele>
        <time>2014-10-19T07:19:10Z</time>
      </trkpt>
      <trkpt lat="50.12011" lon="3.85794">
        <ele>161.16</ele>
        <time>2014-10-19T07:19:17Z</time>
      </trkpt>
      <trkpt lat="50.12008" lon="3.85799">
        <ele>161.16</ele>
        <time>2014-10-19T07:19:18Z</time>
      </trkpt>
      <trkpt lat="50.12005" lon="3.85803">
        <ele>161.16</ele>
        <time>2014-10-19T07:19:19Z</time>
      </trkpt>
      <trkpt lat="50.11969" lon="3.85873">
        <ele>161.16</ele>
        <time>2014-10-19T07:19:32Z</time>
      </trkpt>
      <trkpt lat="50.11955" lon="3.859">
        <ele>161.64</ele>
        <time>2014-10-19T07:19:37Z</time>
      </trkpt>
      <trkpt lat="50.11903" lon="3.85985">
        <ele>162.6</ele>
        <time>2014-10-19T07:19:54Z</time>
      </trkpt>
      <trkpt lat="50.11879" lon="3.86026">
        <ele>164.04</ele>
        <time>2014-10-19T07:20:05Z</time>
      </trkpt>
      <trkpt lat="50.11853" lon="3.86095">
        <ele>164.04</ele>
        <time>2014-10-19T07:20:19Z</time>
      </trkpt>
      <trkpt lat="50.11831" lon="3.86142">
        <ele>164.04</ele>
        <time>2014-10-19T07:20:29Z</time>
      </trkpt>
      <trkpt lat="50.11804" lon="3.86217">
        <ele>165</ele>
        <time>2014-10-19T07:20:44Z</time>
      </trkpt>
      <trkpt lat="50.11782" lon="3.86284">
        <ele>166.45</ele>
        <time>2014-10-19T07:20:59Z</time>
      </trkpt>
      <trkpt lat="50.11765" lon="3.86339">
        <ele>166.45</ele>
        <time>2014-10-19T07:21:13Z</time>
      </trkpt>
      <trkpt lat="50.11736" lon="3.86419">
        <ele>166.93</ele>
        <time>2014-10-19T07:21:32Z</time>
      </trkpt>
      <trkpt lat="50.11721" lon="3.86463">
        <ele>166.93</ele>
        <time>2014-10-19T07:21:45Z</time>
      </trkpt>
      <trkpt lat="50.11714" lon="3.86481">
        <ele>167.41</ele>
        <time>2014-10-19T07:21:51Z</time>
      </trkpt>
      <trkpt lat="50.11713" lon="3.86484">
        <ele>167.41</ele>
        <time>2014-10-19T07:21:52Z</time>
      </trkpt>
      <trkpt lat="50.11712" lon="3.86487">
        <ele>167.41</ele>
        <time>2014-10-19T07:21:53Z</time>
      </trkpt>
      <trkpt lat="50.11696" lon="3.86534">
        <ele>167.89</ele>
        <time>2014-10-19T07:22:08Z</time>
      </trkpt>
      <trkpt lat="50.11674" lon="3.86602">
        <ele>167.89</ele>
        <time>2014-10-19T07:22:26Z</time>
      </trkpt>
      <trkpt lat="50.11658" lon="3.86666">
        <ele>166.45</ele>
        <time>2014-10-19T07:22:41Z</time>
      </trkpt>
      <trkpt lat="50.11624" lon="3.86701">
        <ele>166.45</ele>
        <time>2014-10-19T07:22:54Z</time>
      </trkpt>
      <trkpt lat="50.11584" lon="3.86706">
        <ele>166.45</ele>
        <time>2014-10-19T07:23:07Z</time>
      </trkpt>
      <trkpt lat="50.11564" lon="3.86724">
        <ele>166.45</ele>
        <time>2014-10-19T07:23:18Z</time>
      </trkpt>
      <trkpt lat="50.11563" lon="3.86725">
        <ele>166.45</ele>
        <time>2014-10-19T07:23:19Z</time>
      </trkpt>
      <trkpt lat="50.11561" lon="3.86726">
        <ele>166.45</ele>
        <time>2014-10-19T07:23:20Z</time>
      </trkpt>
      <trkpt lat="50.11559" lon="3.86727">
        <ele>166.45</ele>
        <time>2014-10-19T07:23:21Z</time>
      </trkpt>
      <trkpt lat="50.11558" lon="3.86729">
        <ele>166.45</ele>
        <time>2014-10-19T07:23:22Z</time>
      </trkpt>
      <trkpt lat="50.11557" lon="3.8673">
        <ele>166.45</ele>
        <time>2014-10-19T07:23:23Z</time>
      </trkpt>
      <trkpt lat="50.11556" lon="3.86731">
        <ele>166.45</ele>
        <time>2014-10-19T07:23:24Z</time>
      </trkpt>
      <trkpt lat="50.11555" lon="3.86731">
        <ele>166.45</ele>
        <time>2014-10-19T07:23:25Z</time>
      </trkpt>
      <trkpt lat="50.11553" lon="3.86731">
        <ele>167.89</ele>
        <time>2014-10-19T07:23:36Z</time>
      </trkpt>
      <trkpt lat="50.11554" lon="3.86733">
        <ele>166.45</ele>
        <time>2014-10-19T07:24:00Z</time>
      </trkpt>
      <trkpt lat="50.11556" lon="3.86731">
        <ele>166.45</ele>
        <time>2014-10-19T07:24:36Z</time>
      </trkpt>
      <trkpt lat="50.11553" lon="3.86735">
        <ele>166.45</ele>
        <time>2014-10-19T07:25:08Z</time>
      </trkpt>
      <trkpt lat="50.11553" lon="3.86733">
        <ele>166.45</ele>
        <time>2014-10-19T07:25:44Z</time>
      </trkpt>
      <trkpt lat="50.11553" lon="3.86735">
        <ele>166.45</ele>
        <time>2014-10-19T07:26:21Z</time>
      </trkpt>
      <trkpt lat="50.11553" lon="3.86733">
        <ele>166.45</ele>
        <time>2014-10-19T07:26:47Z</time>
      </trkpt>
      <trkpt lat="50.11555" lon="3.86733">
        <ele>167.89</ele>
        <time>2014-10-19T07:27:07Z</time>
      </trkpt>
      <trkpt lat="50.11555" lon="3.86731">
        <ele>167.89</ele>
        <time>2014-10-19T07:27:28Z</time>
      </trkpt>
      <trkpt lat="50.11554" lon="3.8673">
        <ele>167.89</ele>
        <time>2014-10-19T07:28:02Z</time>
      </trkpt>
      <trkpt lat="50.11553" lon="3.86733">
        <ele>167.89</ele>
        <time>2014-10-19T07:28:35Z</time>
      </trkpt>
      <trkpt lat="50.11553" lon="3.86733">
        <ele>167.89</ele>
        <time>2014-10-19T07:29:05Z</time>
      </trkpt>
      <trkpt lat="50.11556" lon="3.86731">
        <ele>167.89</ele>
        <time>2014-10-19T07:29:41Z</time>
      </trkpt>
      <trkpt lat="50.11556" lon="3.8673">
        <ele>167.89</ele>
        <time>2014-10-19T07:30:11Z</time>
      </trkpt>
      <trkpt lat="50.11557" lon="3.86731">
        <ele>166.93</ele>
        <time>2014-10-19T07:30:29Z</time>
      </trkpt>
      <trkpt lat="50.11557" lon="3.8673">
        <ele>166.93</ele>
        <time>2014-10-19T07:30:30Z</time>
      </trkpt>
      <trkpt lat="50.11568" lon="3.8672">
        <ele>166.93</ele>
        <time>2014-10-19T07:30:38Z</time>
      </trkpt>
      <trkpt lat="50.11568" lon="3.86708">
        <ele>166.45</ele>
        <time>2014-10-19T07:30:42Z</time>
      </trkpt>
      <trkpt lat="50.11565" lon="3.86708">
        <ele>166.45</ele>
        <time>2014-10-19T07:30:43Z</time>
      </trkpt>
      <trkpt lat="50.11562" lon="3.86709">
        <ele>166.45</ele>
        <time>2014-10-19T07:30:44Z</time>
      </trkpt>
      <trkpt lat="50.1156" lon="3.8671">
        <ele>166.45</ele>
        <time>2014-10-19T07:30:45Z</time>
      </trkpt>
      <trkpt lat="50.11534" lon="3.86729">
        <ele>165.96</ele>
        <time>2014-10-19T07:30:57Z</time>
      </trkpt>
      <trkpt lat="50.11494" lon="3.8677">
        <ele>167.41</ele>
        <time>2014-10-19T07:31:14Z</time>
      </trkpt>
      <trkpt lat="50.11486" lon="3.86815">
        <ele>168.85</ele>
        <time>2014-10-19T07:31:25Z</time>
      </trkpt>
      <trkpt lat="50.11493" lon="3.86908">
        <ele>170.29</ele>
        <time>2014-10-19T07:31:39Z</time>
      </trkpt>
      <trkpt lat="50.11505" lon="3.87037">
        <ele>168.85</ele>
        <time>2014-10-19T07:31:56Z</time>
      </trkpt>
      <trkpt lat="50.1152" lon="3.87181">
        <ele>167.89</ele>
        <time>2014-10-19T07:32:12Z</time>
      </trkpt>
      <trkpt lat="50.11532" lon="3.87342">
        <ele>167.41</ele>
        <time>2014-10-19T07:32:29Z</time>
      </trkpt>
      <trkpt lat="50.11564" lon="3.87476">
        <ele>167.41</ele>
        <time>2014-10-19T07:32:43Z</time>
      </trkpt>
      <trkpt lat="50.11583" lon="3.87563">
        <ele>168.37</ele>
        <time>2014-10-19T07:32:52Z</time>
      </trkpt>
      <trkpt lat="50.11597" lon="3.87696">
        <ele>170.77</ele>
        <time>2014-10-19T07:33:06Z</time>
      </trkpt>
      <trkpt lat="50.11603" lon="3.8783">
        <ele>173.66</ele>
        <time>2014-10-19T07:33:20Z</time>
      </trkpt>
      <trkpt lat="50.11598" lon="3.87936">
        <ele>174.62</ele>
        <time>2014-10-19T07:33:34Z</time>
      </trkpt>
      <trkpt lat="50.11598" lon="3.87945">
        <ele>173.66</ele>
        <time>2014-10-19T07:33:35Z</time>
      </trkpt>
      <trkpt lat="50.11598" lon="3.87954">
        <ele>173.66</ele>
        <time>2014-10-19T07:33:36Z</time>
      </trkpt>
      <trkpt lat="50.11612" lon="3.88079">
        <ele>170.77</ele>
        <time>2014-10-19T07:33:49Z</time>
      </trkpt>
      <trkpt lat="50.11634" lon="3.88211">
        <ele>169.33</ele>
        <time>2014-10-19T07:34:02Z</time>
      </trkpt>
      <trkpt lat="50.11661" lon="3.88354">
        <ele>167.89</ele>
        <time>2014-10-19T07:34:16Z</time>
      </trkpt>
      <trkpt lat="50.11667" lon="3.88379">
        <ele>167.89</ele>
        <time>2014-10-19T07:34:19Z</time>
      </trkpt>
      <trkpt lat="50.11668" lon="3.88388">
        <ele>167.89</ele>
        <time>2014-10-19T07:34:20Z</time>
      </trkpt>
      <trkpt lat="50.11667" lon="3.88396">
        <ele>167.89</ele>
        <time>2014-10-19T07:34:21Z</time>
      </trkpt>
      <trkpt lat="50.11664" lon="3.88403">
        <ele>167.89</ele>
        <time>2014-10-19T07:34:22Z</time>
      </trkpt>
      <trkpt lat="50.11661" lon="3.88408">
        <ele>167.89</ele>
        <time>2014-10-19T07:34:23Z</time>
      </trkpt>
      <trkpt lat="50.11657" lon="3.88414">
        <ele>167.89</ele>
        <time>2014-10-19T07:34:24Z</time>
      </trkpt>
      <trkpt lat="50.11631" lon="3.88458">
        <ele>167.89</ele>
        <time>2014-10-19T07:34:31Z</time>
      </trkpt>
      <trkpt lat="50.11628" lon="3.88464">
        <ele>167.89</ele>
        <time>2014-10-19T07:34:32Z</time>
      </trkpt>
      <trkpt lat="50.11582" lon="3.88556">
        <ele>168.37</ele>
        <time>2014-10-19T07:34:45Z</time>
      </trkpt>
      <trkpt lat="50.1157" lon="3.88583">
        <ele>169.81</ele>
        <time>2014-10-19T07:34:49Z</time>
      </trkpt>
      <trkpt lat="50.11567" lon="3.88589">
        <ele>169.81</ele>
        <time>2014-10-19T07:34:50Z</time>
      </trkpt>
      <trkpt lat="50.11533" lon="3.8867">
        <ele>171.25</ele>
        <time>2014-10-19T07:35:02Z</time>
      </trkpt>
      <trkpt lat="50.11529" lon="3.88683">
        <ele>171.25</ele>
        <time>2014-10-19T07:35:04Z</time>
      </trkpt>
      <trkpt lat="50.1152" lon="3.88735">
        <ele>172.69</ele>
        <time>2014-10-19T07:35:11Z</time>
      </trkpt>
      <trkpt lat="50.11516" lon="3.88837">
        <ele>176.06</ele>
        <time>2014-10-19T07:35:25Z</time>
      </trkpt>
      <trkpt lat="50.11504" lon="3.88934">
        <ele>176.06</ele>
        <time>2014-10-19T07:35:38Z</time>
      </trkpt>
      <trkpt lat="50.11496" lon="3.88978">
        <ele>176.06</ele>
        <time>2014-10-19T07:35:44Z</time>
      </trkpt>
      <trkpt lat="50.11485" lon="3.89026">
        <ele>176.06</ele>
        <time>2014-10-19T07:35:51Z</time>
      </trkpt>
      <trkpt lat="50.11465" lon="3.89086">
        <ele>172.69</ele>
        <time>2014-10-19T07:35:59Z</time>
      </trkpt>
      <trkpt lat="50.11449" lon="3.89152">
        <ele>168.85</ele>
        <time>2014-10-19T07:36:05Z</time>
      </trkpt>
      <trkpt lat="50.11438" lon="3.89212">
        <ele>167.89</ele>
        <time>2014-10-19T07:36:09Z</time>
      </trkpt>
      <trkpt lat="50.1143" lon="3.8932">
        <ele>164.52</ele>
        <time>2014-10-19T07:36:16Z</time>
      </trkpt>
      <trkpt lat="50.11413" lon="3.89489">
        <ele>161.64</ele>
        <time>2014-10-19T07:36:29Z</time>
      </trkpt>
      <trkpt lat="50.1141" lon="3.89531">
        <ele>163.08</ele>
        <time>2014-10-19T07:36:33Z</time>
      </trkpt>
      <trkpt lat="50.11406" lon="3.89605">
        <ele>165.96</ele>
        <time>2014-10-19T07:36:41Z</time>
      </trkpt>
      <trkpt lat="50.11406" lon="3.89614">
        <ele>165.96</ele>
        <time>2014-10-19T07:36:42Z</time>
      </trkpt>
      <trkpt lat="50.11404" lon="3.89674">
        <ele>168.37</ele>
        <time>2014-10-19T07:36:49Z</time>
      </trkpt>
      <trkpt lat="50.11403" lon="3.89682">
        <ele>168.37</ele>
        <time>2014-10-19T07:36:50Z</time>
      </trkpt>
      <trkpt lat="50.11403" lon="3.8969">
        <ele>168.37</ele>
        <time>2014-10-19T07:36:51Z</time>
      </trkpt>
      <trkpt lat="50.11403" lon="3.89697">
        <ele>168.85</ele>
        <time>2014-10-19T07:36:52Z</time>
      </trkpt>
      <trkpt lat="50.11402" lon="3.89704">
        <ele>168.85</ele>
        <time>2014-10-19T07:36:53Z</time>
      </trkpt>
      <trkpt lat="50.11398" lon="3.89774">
        <ele>169.33</ele>
        <time>2014-10-19T07:37:04Z</time>
      </trkpt>
      <trkpt lat="50.11398" lon="3.89781">
        <ele>169.33</ele>
        <time>2014-10-19T07:37:05Z</time>
      </trkpt>
      <trkpt lat="50.11377" lon="3.89822">
        <ele>170.77</ele>
        <time>2014-10-19T07:37:15Z</time>
      </trkpt>
      <trkpt lat="50.11333" lon="3.89841">
        <ele>170.77</ele>
        <time>2014-10-19T07:37:27Z</time>
      </trkpt>
      <trkpt lat="50.11251" lon="3.89882">
        <ele>170.29</ele>
        <time>2014-10-19T07:37:47Z</time>
      </trkpt>
      <trkpt lat="50.11226" lon="3.89894">
        <ele>171.73</ele>
        <time>2014-10-19T07:37:53Z</time>
      </trkpt>
      <trkpt lat="50.11152" lon="3.89936">
        <ele>172.69</ele>
        <time>2014-10-19T07:38:11Z</time>
      </trkpt>
      <trkpt lat="50.11083" lon="3.89975">
        <ele>174.62</ele>
        <time>2014-10-19T07:38:28Z</time>
      </trkpt>
      <trkpt lat="50.11035" lon="3.9">
        <ele>174.62</ele>
        <time>2014-10-19T07:38:39Z</time>
      </trkpt>
      <trkpt lat="50.10952" lon="3.90045">
        <ele>176.06</ele>
        <time>2014-10-19T07:38:59Z</time>
      </trkpt>
      <trkpt lat="50.10926" lon="3.90059">
        <ele>177.02</ele>
        <time>2014-10-19T07:39:06Z</time>
      </trkpt>
      <trkpt lat="50.10922" lon="3.90062">
        <ele>177.5</ele>
        <time>2014-10-19T07:39:07Z</time>
      </trkpt>
      <trkpt lat="50.10876" lon="3.90075">
        <ele>177.98</ele>
        <time>2014-10-19T07:39:21Z</time>
      </trkpt>
      <trkpt lat="50.10872" lon="3.90072">
        <ele>177.98</ele>
        <time>2014-10-19T07:39:22Z</time>
      </trkpt>
      <trkpt lat="50.10802" lon="3.90002">
        <ele>177.98</ele>
        <time>2014-10-19T07:39:40Z</time>
      </trkpt>
      <trkpt lat="50.10797" lon="3.89998">
        <ele>177.98</ele>
        <time>2014-10-19T07:39:41Z</time>
      </trkpt>
      <trkpt lat="50.10793" lon="3.89994">
        <ele>177.98</ele>
        <time>2014-10-19T07:39:42Z</time>
      </trkpt>
      <trkpt lat="50.10736" lon="3.89918">
        <ele>179.42</ele>
        <time>2014-10-19T07:39:59Z</time>
      </trkpt>
      <trkpt lat="50.10671" lon="3.89835">
        <ele>178.94</ele>
        <time>2014-10-19T07:40:15Z</time>
      </trkpt>
      <trkpt lat="50.10599" lon="3.89769">
        <ele>177.98</ele>
        <time>2014-10-19T07:40:32Z</time>
      </trkpt>
      <trkpt lat="50.10517" lon="3.89697">
        <ele>178.94</ele>
        <time>2014-10-19T07:40:52Z</time>
      </trkpt>
      <trkpt lat="50.10509" lon="3.89689">
        <ele>178.94</ele>
        <time>2014-10-19T07:40:54Z</time>
      </trkpt>
      <trkpt lat="50.10436" lon="3.89608">
        <ele>180.38</ele>
        <time>2014-10-19T07:41:12Z</time>
      </trkpt>
      <trkpt lat="50.10377" lon="3.89533">
        <ele>182.79</ele>
        <time>2014-10-19T07:41:28Z</time>
      </trkpt>
      <trkpt lat="50.10374" lon="3.89529">
        <ele>182.79</ele>
        <time>2014-10-19T07:41:29Z</time>
      </trkpt>
      <trkpt lat="50.10329" lon="3.89469">
        <ele>185.67</ele>
        <time>2014-10-19T07:41:42Z</time>
      </trkpt>
      <trkpt lat="50.10323" lon="3.8946">
        <ele>187.11</ele>
        <time>2014-10-19T07:41:44Z</time>
      </trkpt>
      <trkpt lat="50.10294" lon="3.89421">
        <ele>190.48</ele>
        <time>2014-10-19T07:41:55Z</time>
      </trkpt>
      <trkpt lat="50.10266" lon="3.89376">
        <ele>191.92</ele>
        <time>2014-10-19T07:42:08Z</time>
      </trkpt>
      <trkpt lat="50.10227" lon="3.89312">
        <ele>192.4</ele>
        <time>2014-10-19T07:42:24Z</time>
      </trkpt>
      <trkpt lat="50.10202" lon="3.89275">
        <ele>192.4</ele>
        <time>2014-10-19T07:42:33Z</time>
      </trkpt>
      <trkpt lat="50.10199" lon="3.89272">
        <ele>192.4</ele>
        <time>2014-10-19T07:42:34Z</time>
      </trkpt>
      <trkpt lat="50.10195" lon="3.8927">
        <ele>192.4</ele>
        <time>2014-10-19T07:42:35Z</time>
      </trkpt>
      <trkpt lat="50.10191" lon="3.8927">
        <ele>192.4</ele>
        <time>2014-10-19T07:42:36Z</time>
      </trkpt>
      <trkpt lat="50.10187" lon="3.89271">
        <ele>192.4</ele>
        <time>2014-10-19T07:42:37Z</time>
      </trkpt>
      <trkpt lat="50.10185" lon="3.89274">
        <ele>192.4</ele>
        <time>2014-10-19T07:42:38Z</time>
      </trkpt>
      <trkpt lat="50.10182" lon="3.89279">
        <ele>192.4</ele>
        <time>2014-10-19T07:42:39Z</time>
      </trkpt>
      <trkpt lat="50.1018" lon="3.89284">
        <ele>192.4</ele>
        <time>2014-10-19T07:42:40Z</time>
      </trkpt>
      <trkpt lat="50.10177" lon="3.89288">
        <ele>192.4</ele>
        <time>2014-10-19T07:42:41Z</time>
      </trkpt>
      <trkpt lat="50.10134" lon="3.89369">
        <ele>192.4</ele>
        <time>2014-10-19T07:42:56Z</time>
      </trkpt>
      <trkpt lat="50.10101" lon="3.8943">
        <ele>190.96</ele>
        <time>2014-10-19T07:43:06Z</time>
      </trkpt>
      <trkpt lat="50.10046" lon="3.89552">
        <ele>189.52</ele>
        <time>2014-10-19T07:43:23Z</time>
      </trkpt>
      <trkpt lat="50.09999" lon="3.8969">
        <ele>188.56</ele>
        <time>2014-10-19T07:43:41Z</time>
      </trkpt>
      <trkpt lat="50.09969" lon="3.89804">
        <ele>187.59</ele>
        <time>2014-10-19T07:43:55Z</time>
      </trkpt>
      <trkpt lat="50.09937" lon="3.89889">
        <ele>184.23</ele>
        <time>2014-10-19T07:44:04Z</time>
      </trkpt>
      <trkpt lat="50.09933" lon="3.89899">
        <ele>183.75</ele>
        <time>2014-10-19T07:44:05Z</time>
      </trkpt>
      <trkpt lat="50.09862" lon="3.90047">
        <ele>179.9</ele>
        <time>2014-10-19T07:44:21Z</time>
      </trkpt>
      <trkpt lat="50.09826" lon="3.90122">
        <ele>178.94</ele>
        <time>2014-10-19T07:44:30Z</time>
      </trkpt>
      <trkpt lat="50.09824" lon="3.90132">
        <ele>179.42</ele>
        <time>2014-10-19T07:44:31Z</time>
      </trkpt>
      <trkpt lat="50.09822" lon="3.90142">
        <ele>179.42</ele>
        <time>2014-10-19T07:44:32Z</time>
      </trkpt>
      <trkpt lat="50.09804" lon="3.90296">
        <ele>178.94</ele>
        <time>2014-10-19T07:44:48Z</time>
      </trkpt>
      <trkpt lat="50.09773" lon="3.9045">
        <ele>178.94</ele>
        <time>2014-10-19T07:45:06Z</time>
      </trkpt>
      <trkpt lat="50.09735" lon="3.90579">
        <ele>180.87</ele>
        <time>2014-10-19T07:45:23Z</time>
      </trkpt>
      <trkpt lat="50.09695" lon="3.90688">
        <ele>184.23</ele>
        <time>2014-10-19T07:45:40Z</time>
      </trkpt>
      <trkpt lat="50.09692" lon="3.90694">
        <ele>184.71</ele>
        <time>2014-10-19T07:45:41Z</time>
      </trkpt>
      <trkpt lat="50.09689" lon="3.90699">
        <ele>184.71</ele>
        <time>2014-10-19T07:45:42Z</time>
      </trkpt>
      <trkpt lat="50.09686" lon="3.90703">
        <ele>185.67</ele>
        <time>2014-10-19T07:45:43Z</time>
      </trkpt>
      <trkpt lat="50.09682" lon="3.90706">
        <ele>185.67</ele>
        <time>2014-10-19T07:45:44Z</time>
      </trkpt>
      <trkpt lat="50.09678" lon="3.90709">
        <ele>186.15</ele>
        <time>2014-10-19T07:45:45Z</time>
      </trkpt>
      <trkpt lat="50.09663" lon="3.9072">
        <ele>186.63</ele>
        <time>2014-10-19T07:45:49Z</time>
      </trkpt>
      <trkpt lat="50.09621" lon="3.90741">
        <ele>190</ele>
        <time>2014-10-19T07:46:01Z</time>
      </trkpt>
      <trkpt lat="50.09568" lon="3.90773">
        <ele>191.92</ele>
        <time>2014-10-19T07:46:17Z</time>
      </trkpt>
      <trkpt lat="50.09517" lon="3.90801">
        <ele>192.88</ele>
        <time>2014-10-19T07:46:31Z</time>
      </trkpt>
      <trkpt lat="50.09476" lon="3.90823">
        <ele>192.88</ele>
        <time>2014-10-19T07:46:42Z</time>
      </trkpt>
      <trkpt lat="50.09472" lon="3.90826">
        <ele>191.92</ele>
        <time>2014-10-19T07:46:43Z</time>
      </trkpt>
      <trkpt lat="50.09469" lon="3.9083">
        <ele>191.92</ele>
        <time>2014-10-19T07:46:44Z</time>
      </trkpt>
      <trkpt lat="50.09452" lon="3.9085">
        <ele>190.48</ele>
        <time>2014-10-19T07:46:48Z</time>
      </trkpt>
      <trkpt lat="50.0945" lon="3.90857">
        <ele>190.48</ele>
        <time>2014-10-19T07:46:49Z</time>
      </trkpt>
      <trkpt lat="50.09449" lon="3.90866">
        <ele>190</ele>
        <time>2014-10-19T07:46:50Z</time>
      </trkpt>
      <trkpt lat="50.0945" lon="3.90875">
        <ele>190</ele>
        <time>2014-10-19T07:46:51Z</time>
      </trkpt>
      <trkpt lat="50.09451" lon="3.90882">
        <ele>190</ele>
        <time>2014-10-19T07:46:52Z</time>
      </trkpt>
      <trkpt lat="50.09453" lon="3.9089">
        <ele>190</ele>
        <time>2014-10-19T07:46:53Z</time>
      </trkpt>
      <trkpt lat="50.09457" lon="3.90904">
        <ele>190</ele>
        <time>2014-10-19T07:46:55Z</time>
      </trkpt>
      <trkpt lat="50.09464" lon="3.90923">
        <ele>190</ele>
        <time>2014-10-19T07:46:58Z</time>
      </trkpt>
      <trkpt lat="50.09466" lon="3.90928">
        <ele>190</ele>
        <time>2014-10-19T07:46:59Z</time>
      </trkpt>
      <trkpt lat="50.09475" lon="3.90943">
        <ele>191.44</ele>
        <time>2014-10-19T07:47:02Z</time>
      </trkpt>
      <trkpt lat="50.09478" lon="3.90948">
        <ele>191.44</ele>
        <time>2014-10-19T07:47:03Z</time>
      </trkpt>
      <trkpt lat="50.09488" lon="3.9096">
        <ele>191.44</ele>
        <time>2014-10-19T07:47:06Z</time>
      </trkpt>
      <trkpt lat="50.09512" lon="3.90981">
        <ele>191.44</ele>
        <time>2014-10-19T07:47:12Z</time>
      </trkpt>
      <trkpt lat="50.09515" lon="3.90986">
        <ele>191.44</ele>
        <time>2014-10-19T07:47:13Z</time>
      </trkpt>
      <trkpt lat="50.09518" lon="3.90994">
        <ele>191.44</ele>
        <time>2014-10-19T07:47:14Z</time>
      </trkpt>
      <trkpt lat="50.09521" lon="3.91001">
        <ele>191.44</ele>
        <time>2014-10-19T07:47:15Z</time>
      </trkpt>
      <trkpt lat="50.09522" lon="3.91009">
        <ele>191.44</ele>
        <time>2014-10-19T07:47:16Z</time>
      </trkpt>
      <trkpt lat="50.09523" lon="3.91017">
        <ele>191.44</ele>
        <time>2014-10-19T07:47:17Z</time>
      </trkpt>
      <trkpt lat="50.09523" lon="3.91026">
        <ele>190</ele>
        <time>2014-10-19T07:47:18Z</time>
      </trkpt>
      <trkpt lat="50.09526" lon="3.9108">
        <ele>190</ele>
        <time>2014-10-19T07:47:24Z</time>
      </trkpt>
      <trkpt lat="50.09523" lon="3.91202">
        <ele>189.52</ele>
        <time>2014-10-19T07:47:39Z</time>
      </trkpt>
      <trkpt lat="50.09527" lon="3.9126">
        <ele>189.52</ele>
        <time>2014-10-19T07:47:46Z</time>
      </trkpt>
      <trkpt lat="50.09526" lon="3.91268">
        <ele>189.52</ele>
        <time>2014-10-19T07:47:47Z</time>
      </trkpt>
      <trkpt lat="50.09525" lon="3.91276">
        <ele>189.52</ele>
        <time>2014-10-19T07:47:48Z</time>
      </trkpt>
      <trkpt lat="50.09524" lon="3.91283">
        <ele>189.52</ele>
        <time>2014-10-19T07:47:49Z</time>
      </trkpt>
      <trkpt lat="50.09522" lon="3.91291">
        <ele>189.52</ele>
        <time>2014-10-19T07:47:50Z</time>
      </trkpt>
      <trkpt lat="50.0952" lon="3.913">
        <ele>189.52</ele>
        <time>2014-10-19T07:47:51Z</time>
      </trkpt>
      <trkpt lat="50.09518" lon="3.91308">
        <ele>189.52</ele>
        <time>2014-10-19T07:47:52Z</time>
      </trkpt>
      <trkpt lat="50.09472" lon="3.91438">
        <ele>189.04</ele>
        <time>2014-10-19T07:48:08Z</time>
      </trkpt>
      <trkpt lat="50.09442" lon="3.91527">
        <ele>190.48</ele>
        <time>2014-10-19T07:48:19Z</time>
      </trkpt>
      <trkpt lat="50.094" lon="3.91643">
        <ele>190.96</ele>
        <time>2014-10-19T07:48:35Z</time>
      </trkpt>
      <trkpt lat="50.09352" lon="3.9175">
        <ele>190.96</ele>
        <time>2014-10-19T07:48:49Z</time>
      </trkpt>
      <trkpt lat="50.09336" lon="3.9178">
        <ele>189.52</ele>
        <time>2014-10-19T07:48:53Z</time>
      </trkpt>
      <trkpt lat="50.09286" lon="3.91892">
        <ele>189.04</ele>
        <time>2014-10-19T07:49:07Z</time>
      </trkpt>
      <trkpt lat="50.09283" lon="3.91901">
        <ele>189.04</ele>
        <time>2014-10-19T07:49:08Z</time>
      </trkpt>
      <trkpt lat="50.09282" lon="3.9191">
        <ele>188.08</ele>
        <time>2014-10-19T07:49:09Z</time>
      </trkpt>
      <trkpt lat="50.09281" lon="3.91919">
        <ele>188.08</ele>
        <time>2014-10-19T07:49:10Z</time>
      </trkpt>
      <trkpt lat="50.0928" lon="3.91928">
        <ele>188.08</ele>
        <time>2014-10-19T07:49:11Z</time>
      </trkpt>
      <trkpt lat="50.0928" lon="3.91939">
        <ele>188.08</ele>
        <time>2014-10-19T07:49:12Z</time>
      </trkpt>
      <trkpt lat="50.09281" lon="3.91956">
        <ele>188.08</ele>
        <time>2014-10-19T07:49:14Z</time>
      </trkpt>
      <trkpt lat="50.09282" lon="3.91965">
        <ele>188.08</ele>
        <time>2014-10-19T07:49:15Z</time>
      </trkpt>
      <trkpt lat="50.09285" lon="3.91983">
        <ele>188.08</ele>
        <time>2014-10-19T07:49:17Z</time>
      </trkpt>
      <trkpt lat="50.09292" lon="3.92014">
        <ele>188.08</ele>
        <time>2014-10-19T07:49:21Z</time>
      </trkpt>
      <trkpt lat="50.09293" lon="3.92024">
        <ele>188.08</ele>
        <time>2014-10-19T07:49:22Z</time>
      </trkpt>
      <trkpt lat="50.09292" lon="3.92031">
        <ele>188.08</ele>
        <time>2014-10-19T07:49:23Z</time>
      </trkpt>
      <trkpt lat="50.09289" lon="3.92037">
        <ele>188.08</ele>
        <time>2014-10-19T07:49:24Z</time>
      </trkpt>
      <trkpt lat="50.09284" lon="3.92041">
        <ele>188.08</ele>
        <time>2014-10-19T07:49:25Z</time>
      </trkpt>
      <trkpt lat="50.0928" lon="3.92043">
        <ele>189.52</ele>
        <time>2014-10-19T07:49:26Z</time>
      </trkpt>
      <trkpt lat="50.09275" lon="3.92045">
        <ele>189.52</ele>
        <time>2014-10-19T07:49:27Z</time>
      </trkpt>
      <trkpt lat="50.09271" lon="3.92047">
        <ele>190</ele>
        <time>2014-10-19T07:49:28Z</time>
      </trkpt>
      <trkpt lat="50.09248" lon="3.92063">
        <ele>190</ele>
        <time>2014-10-19T07:49:33Z</time>
      </trkpt>
      <trkpt lat="50.09242" lon="3.92066">
        <ele>190.48</ele>
        <time>2014-10-19T07:49:34Z</time>
      </trkpt>
      <trkpt lat="50.09238" lon="3.92068">
        <ele>190.96</ele>
        <time>2014-10-19T07:49:35Z</time>
      </trkpt>
      <trkpt lat="50.09168" lon="3.92074">
        <ele>191.92</ele>
        <time>2014-10-19T07:49:48Z</time>
      </trkpt>
      <trkpt lat="50.09113" lon="3.92072">
        <ele>188.08</ele>
        <time>2014-10-19T07:49:57Z</time>
      </trkpt>
      <trkpt lat="50.09022" lon="3.92075">
        <ele>184.71</ele>
        <time>2014-10-19T07:50:09Z</time>
      </trkpt>
      <trkpt lat="50.09007" lon="3.92076">
        <ele>184.23</ele>
        <time>2014-10-19T07:50:11Z</time>
      </trkpt>
      <trkpt lat="50.08888" lon="3.92073">
        <ele>182.31</ele>
        <time>2014-10-19T07:50:27Z</time>
      </trkpt>
      <trkpt lat="50.08771" lon="3.92059">
        <ele>185.19</ele>
        <time>2014-10-19T07:50:44Z</time>
      </trkpt>
      <trkpt lat="50.08741" lon="3.92056">
        <ele>185.19</ele>
        <time>2014-10-19T07:50:49Z</time>
      </trkpt>
      <trkpt lat="50.08736" lon="3.9206">
        <ele>185.19</ele>
        <time>2014-10-19T07:50:50Z</time>
      </trkpt>
      <trkpt lat="50.0873" lon="3.92067">
        <ele>184.71</ele>
        <time>2014-10-19T07:50:51Z</time>
      </trkpt>
      <trkpt lat="50.08726" lon="3.92075">
        <ele>183.75</ele>
        <time>2014-10-19T07:50:52Z</time>
      </trkpt>
      <trkpt lat="50.08723" lon="3.9208">
        <ele>183.27</ele>
        <time>2014-10-19T07:50:53Z</time>
      </trkpt>
      <trkpt lat="50.08718" lon="3.92086">
        <ele>182.79</ele>
        <time>2014-10-19T07:50:54Z</time>
      </trkpt>
      <trkpt lat="50.08712" lon="3.9209">
        <ele>182.31</ele>
        <time>2014-10-19T07:50:55Z</time>
      </trkpt>
      <trkpt lat="50.08647" lon="3.9216">
        <ele>180.38</ele>
        <time>2014-10-19T07:51:08Z</time>
      </trkpt>
      <trkpt lat="50.08621" lon="3.92188">
        <ele>178.46</ele>
        <time>2014-10-19T07:51:13Z</time>
      </trkpt>
      <trkpt lat="50.0857" lon="3.92241">
        <ele>174.62</ele>
        <time>2014-10-19T07:51:22Z</time>
      </trkpt>
      <trkpt lat="50.08557" lon="3.92255">
        <ele>173.17</ele>
        <time>2014-10-19T07:51:29Z</time>
      </trkpt>
      <trkpt lat="50.08546" lon="3.92264">
        <ele>171.73</ele>
        <time>2014-10-19T07:51:40Z</time>
      </trkpt>
      <trkpt lat="50.08537" lon="3.92273">
        <ele>169.81</ele>
        <time>2014-10-19T07:51:51Z</time>
      </trkpt>
      <trkpt lat="50.08535" lon="3.92276">
        <ele>169.81</ele>
        <time>2014-10-19T07:51:54Z</time>
      </trkpt>
      <trkpt lat="50.08534" lon="3.92277">
        <ele>168.85</ele>
        <time>2014-10-19T07:51:55Z</time>
      </trkpt>
      <trkpt lat="50.08533" lon="3.92279">
        <ele>168.85</ele>
        <time>2014-10-19T07:51:56Z</time>
      </trkpt>
      <trkpt lat="50.08517" lon="3.92297">
        <ele>166.93</ele>
        <time>2014-10-19T07:52:08Z</time>
      </trkpt>
      <trkpt lat="50.08509" lon="3.92314">
        <ele>165.96</ele>
        <time>2014-10-19T07:52:21Z</time>
      </trkpt>
      <trkpt lat="50.08505" lon="3.92323">
        <ele>164.04</ele>
        <time>2014-10-19T07:52:34Z</time>
      </trkpt>
      <trkpt lat="50.08502" lon="3.92331">
        <ele>163.08</ele>
        <time>2014-10-19T07:52:47Z</time>
      </trkpt>
      <trkpt lat="50.08502" lon="3.92333">
        <ele>163.08</ele>
        <time>2014-10-19T07:52:48Z</time>
      </trkpt>
      <trkpt lat="50.08502" lon="3.92335">
        <ele>163.08</ele>
        <time>2014-10-19T07:52:49Z</time>
      </trkpt>
      <trkpt lat="50.08503" lon="3.92337">
        <ele>163.08</ele>
        <time>2014-10-19T07:52:50Z</time>
      </trkpt>
      <trkpt lat="50.08503" lon="3.9234">
        <ele>163.08</ele>
        <time>2014-10-19T07:52:51Z</time>
      </trkpt>
      <trkpt lat="50.08506" lon="3.92363">
        <ele>163.08</ele>
        <time>2014-10-19T07:53:01Z</time>
      </trkpt>
      <trkpt lat="50.08506" lon="3.92366">
        <ele>163.08</ele>
        <time>2014-10-19T07:53:02Z</time>
      </trkpt>
      <trkpt lat="50.08509" lon="3.92374">
        <ele>164.52</ele>
        <time>2014-10-19T07:53:09Z</time>
      </trkpt>
      <trkpt lat="50.08517" lon="3.92386">
        <ele>164.52</ele>
        <time>2014-10-19T07:53:20Z</time>
      </trkpt>
      <trkpt lat="50.08521" lon="3.92398">
        <ele>164.52</ele>
        <time>2014-10-19T07:53:36Z</time>
      </trkpt>
      <trkpt lat="50.08527" lon="3.92411">
        <ele>165</ele>
        <time>2014-10-19T07:53:49Z</time>
      </trkpt>
      <trkpt lat="50.08528" lon="3.92425">
        <ele>167.41</ele>
        <time>2014-10-19T07:54:04Z</time>
      </trkpt>
      <trkpt lat="50.08522" lon="3.92438">
        <ele>169.81</ele>
        <time>2014-10-19T07:54:18Z</time>
      </trkpt>
      <trkpt lat="50.08515" lon="3.92455">
        <ele>172.21</ele>
        <time>2014-10-19T07:54:33Z</time>
      </trkpt>
      <trkpt lat="50.08511" lon="3.92465">
        <ele>172.69</ele>
        <time>2014-10-19T07:54:41Z</time>
      </trkpt>
      <trkpt lat="50.08499" lon="3.92491">
        <ele>175.1</ele>
        <time>2014-10-19T07:55:00Z</time>
      </trkpt>
      <trkpt lat="50.08494" lon="3.92507">
        <ele>176.06</ele>
        <time>2014-10-19T07:55:12Z</time>
      </trkpt>
      <trkpt lat="50.08482" lon="3.92539">
        <ele>177.98</ele>
        <time>2014-10-19T07:55:28Z</time>
      </trkpt>
      <trkpt lat="50.08471" lon="3.92563">
        <ele>179.9</ele>
        <time>2014-10-19T07:55:43Z</time>
      </trkpt>
      <trkpt lat="50.08459" lon="3.92595">
        <ele>180.87</ele>
        <time>2014-10-19T07:55:59Z</time>
      </trkpt>
      <trkpt lat="50.08456" lon="3.926">
        <ele>180.87</ele>
        <time>2014-10-19T07:56:02Z</time>
      </trkpt>
      <trkpt lat="50.08455" lon="3.92602">
        <ele>180.87</ele>
        <time>2014-10-19T07:56:03Z</time>
      </trkpt>
      <trkpt lat="50.08454" lon="3.92603">
        <ele>180.87</ele>
        <time>2014-10-19T07:56:04Z</time>
      </trkpt>
      <trkpt lat="50.08453" lon="3.92604">
        <ele>180.87</ele>
        <time>2014-10-19T07:56:05Z</time>
      </trkpt>
      <trkpt lat="50.08452" lon="3.92605">
        <ele>180.87</ele>
        <time>2014-10-19T07:56:06Z</time>
      </trkpt>
      <trkpt lat="50.0845" lon="3.92605">
        <ele>181.35</ele>
        <time>2014-10-19T07:56:07Z</time>
      </trkpt>
      <trkpt lat="50.08449" lon="3.92604">
        <ele>181.35</ele>
        <time>2014-10-19T07:56:08Z</time>
      </trkpt>
      <trkpt lat="50.08448" lon="3.92604">
        <ele>181.35</ele>
        <time>2014-10-19T07:56:09Z</time>
      </trkpt>
      <trkpt lat="50.08447" lon="3.92603">
        <ele>181.35</ele>
        <time>2014-10-19T07:56:10Z</time>
      </trkpt>
      <trkpt lat="50.08445" lon="3.92602">
        <ele>181.35</ele>
        <time>2014-10-19T07:56:11Z</time>
      </trkpt>
      <trkpt lat="50.08444" lon="3.92602">
        <ele>181.35</ele>
        <time>2014-10-19T07:56:12Z</time>
      </trkpt>
      <trkpt lat="50.08427" lon="3.92591">
        <ele>181.35</ele>
        <time>2014-10-19T07:56:23Z</time>
      </trkpt>
      <trkpt lat="50.08401" lon="3.9258">
        <ele>180.38</ele>
        <time>2014-10-19T07:56:36Z</time>
      </trkpt>
      <trkpt lat="50.0836" lon="3.92563">
        <ele>179.42</ele>
        <time>2014-10-19T07:56:51Z</time>
      </trkpt>
      <trkpt lat="50.08322" lon="3.92541">
        <ele>179.42</ele>
        <time>2014-10-19T07:57:05Z</time>
      </trkpt>
      <trkpt lat="50.08282" lon="3.92512">
        <ele>179.42</ele>
        <time>2014-10-19T07:57:20Z</time>
      </trkpt>
      <trkpt lat="50.08245" lon="3.92498">
        <ele>179.42</ele>
        <time>2014-10-19T07:57:33Z</time>
      </trkpt>
      <trkpt lat="50.08208" lon="3.92489">
        <ele>180.87</ele>
        <time>2014-10-19T07:57:46Z</time>
      </trkpt>
      <trkpt lat="50.0818" lon="3.92477">
        <ele>181.83</ele>
        <time>2014-10-19T07:57:58Z</time>
      </trkpt>
      <trkpt lat="50.08178" lon="3.92477">
        <ele>181.83</ele>
        <time>2014-10-19T07:57:59Z</time>
      </trkpt>
      <trkpt lat="50.08176" lon="3.92474">
        <ele>181.83</ele>
        <time>2014-10-19T07:58:07Z</time>
      </trkpt>
      <trkpt lat="50.08174" lon="3.92472">
        <ele>181.83</ele>
        <time>2014-10-19T07:58:09Z</time>
      </trkpt>
      <trkpt lat="50.08172" lon="3.92471">
        <ele>181.83</ele>
        <time>2014-10-19T07:58:10Z</time>
      </trkpt>
      <trkpt lat="50.0817" lon="3.92469">
        <ele>181.83</ele>
        <time>2014-10-19T07:58:11Z</time>
      </trkpt>
      <trkpt lat="50.08168" lon="3.92468">
        <ele>181.83</ele>
        <time>2014-10-19T07:58:12Z</time>
      </trkpt>
      <trkpt lat="50.08166" lon="3.92467">
        <ele>181.83</ele>
        <time>2014-10-19T07:58:13Z</time>
      </trkpt>
      <trkpt lat="50.08164" lon="3.92465">
        <ele>181.83</ele>
        <time>2014-10-19T07:58:14Z</time>
      </trkpt>
      <trkpt lat="50.08115" lon="3.92424">
        <ele>181.83</ele>
        <time>2014-10-19T07:58:28Z</time>
      </trkpt>
      <trkpt lat="50.08052" lon="3.92378">
        <ele>181.83</ele>
        <time>2014-10-19T07:58:44Z</time>
      </trkpt>
      <trkpt lat="50.07976" lon="3.92354">
        <ele>180.38</ele>
        <time>2014-10-19T07:59:01Z</time>
      </trkpt>
      <trkpt lat="50.07908" lon="3.92342">
        <ele>177.02</ele>
        <time>2014-10-19T07:59:13Z</time>
      </trkpt>
      <trkpt lat="50.07844" lon="3.92346">
        <ele>173.66</ele>
        <time>2014-10-19T07:59:22Z</time>
      </trkpt>
      <trkpt lat="50.07805" lon="3.92349">
        <ele>170.29</ele>
        <time>2014-10-19T07:59:27Z</time>
      </trkpt>
      <trkpt lat="50.07772" lon="3.92355">
        <ele>166.45</ele>
        <time>2014-10-19T07:59:32Z</time>
      </trkpt>
      <trkpt lat="50.0775" lon="3.92358">
        <ele>164.04</ele>
        <time>2014-10-19T07:59:35Z</time>
      </trkpt>
      <trkpt lat="50.07741" lon="3.92358">
        <ele>163.08</ele>
        <time>2014-10-19T07:59:36Z</time>
      </trkpt>
      <trkpt lat="50.07732" lon="3.92357">
        <ele>162.6</ele>
        <time>2014-10-19T07:59:37Z</time>
      </trkpt>
      <trkpt lat="50.07723" lon="3.92358">
        <ele>161.64</ele>
        <time>2014-10-19T07:59:38Z</time>
      </trkpt>
      <trkpt lat="50.07714" lon="3.9236">
        <ele>161.16</ele>
        <time>2014-10-19T07:59:39Z</time>
      </trkpt>
      <trkpt lat="50.07705" lon="3.92363">
        <ele>159.72</ele>
        <time>2014-10-19T07:59:40Z</time>
      </trkpt>
      <trkpt lat="50.07696" lon="3.92368">
        <ele>159.24</ele>
        <time>2014-10-19T07:59:41Z</time>
      </trkpt>
      <trkpt lat="50.07688" lon="3.92373">
        <ele>158.75</ele>
        <time>2014-10-19T07:59:42Z</time>
      </trkpt>
      <trkpt lat="50.07681" lon="3.92379">
        <ele>158.75</ele>
        <time>2014-10-19T07:59:43Z</time>
      </trkpt>
      <trkpt lat="50.07673" lon="3.92386">
        <ele>157.79</ele>
        <time>2014-10-19T07:59:44Z</time>
      </trkpt>
      <trkpt lat="50.07666" lon="3.92391">
        <ele>157.31</ele>
        <time>2014-10-19T07:59:45Z</time>
      </trkpt>
      <trkpt lat="50.07658" lon="3.92396">
        <ele>156.83</ele>
        <time>2014-10-19T07:59:46Z</time>
      </trkpt>
      <trkpt lat="50.07649" lon="3.92399">
        <ele>156.35</ele>
        <time>2014-10-19T07:59:47Z</time>
      </trkpt>
      <trkpt lat="50.07641" lon="3.92399">
        <ele>156.35</ele>
        <time>2014-10-19T07:59:48Z</time>
      </trkpt>
      <trkpt lat="50.07634" lon="3.92399">
        <ele>156.35</ele>
        <time>2014-10-19T07:59:49Z</time>
      </trkpt>
      <trkpt lat="50.07626" lon="3.924">
        <ele>156.35</ele>
        <time>2014-10-19T07:59:50Z</time>
      </trkpt>
      <trkpt lat="50.0756" lon="3.92402">
        <ele>155.87</ele>
        <time>2014-10-19T08:00:00Z</time>
      </trkpt>
      <trkpt lat="50.07555" lon="3.92403">
        <ele>155.87</ele>
        <time>2014-10-19T08:00:01Z</time>
      </trkpt>
      <trkpt lat="50.07466" lon="3.92416">
        <ele>154.91</ele>
        <time>2014-10-19T08:00:17Z</time>
      </trkpt>
      <trkpt lat="50.07415" lon="3.92428">
        <ele>153.95</ele>
        <time>2014-10-19T08:00:26Z</time>
      </trkpt>
      <trkpt lat="50.07409" lon="3.92429">
        <ele>153.95</ele>
        <time>2014-10-19T08:00:27Z</time>
      </trkpt>
      <trkpt lat="50.07404" lon="3.92431">
        <ele>153.95</ele>
        <time>2014-10-19T08:00:28Z</time>
      </trkpt>
      <trkpt lat="50.07333" lon="3.92461">
        <ele>152.03</ele>
        <time>2014-10-19T08:00:41Z</time>
      </trkpt>
      <trkpt lat="50.07278" lon="3.92484">
        <ele>151.06</ele>
        <time>2014-10-19T08:00:51Z</time>
      </trkpt>
      <trkpt lat="50.07262" lon="3.92487">
        <ele>150.58</ele>
        <time>2014-10-19T08:00:54Z</time>
      </trkpt>
      <trkpt lat="50.07257" lon="3.92485">
        <ele>150.58</ele>
        <time>2014-10-19T08:00:55Z</time>
      </trkpt>
      <trkpt lat="50.07252" lon="3.92481">
        <ele>150.58</ele>
        <time>2014-10-19T08:00:56Z</time>
      </trkpt>
      <trkpt lat="50.07249" lon="3.92476">
        <ele>150.58</ele>
        <time>2014-10-19T08:00:57Z</time>
      </trkpt>
      <trkpt lat="50.07246" lon="3.9247">
        <ele>150.58</ele>
        <time>2014-10-19T08:00:58Z</time>
      </trkpt>
      <trkpt lat="50.07243" lon="3.92463">
        <ele>150.58</ele>
        <time>2014-10-19T08:00:59Z</time>
      </trkpt>
      <trkpt lat="50.0724" lon="3.92457">
        <ele>150.58</ele>
        <time>2014-10-19T08:01:00Z</time>
      </trkpt>
      <trkpt lat="50.07237" lon="3.9245">
        <ele>150.58</ele>
        <time>2014-10-19T08:01:01Z</time>
      </trkpt>
      <trkpt lat="50.07216" lon="3.92404">
        <ele>150.1</ele>
        <time>2014-10-19T08:01:08Z</time>
      </trkpt>
      <trkpt lat="50.07214" lon="3.92398">
        <ele>150.1</ele>
        <time>2014-10-19T08:01:09Z</time>
      </trkpt>
      <trkpt lat="50.0721" lon="3.92392">
        <ele>150.1</ele>
        <time>2014-10-19T08:01:10Z</time>
      </trkpt>
      <trkpt lat="50.07206" lon="3.92387">
        <ele>150.1</ele>
        <time>2014-10-19T08:01:11Z</time>
      </trkpt>
      <trkpt lat="50.07202" lon="3.92385">
        <ele>150.1</ele>
        <time>2014-10-19T08:01:12Z</time>
      </trkpt>
      <trkpt lat="50.07196" lon="3.92386">
        <ele>150.58</ele>
        <time>2014-10-19T08:01:13Z</time>
      </trkpt>
      <trkpt lat="50.07193" lon="3.92389">
        <ele>150.1</ele>
        <time>2014-10-19T08:01:14Z</time>
      </trkpt>
      <trkpt lat="50.0719" lon="3.92394">
        <ele>150.1</ele>
        <time>2014-10-19T08:01:15Z</time>
      </trkpt>
      <trkpt lat="50.07187" lon="3.92401">
        <ele>150.1</ele>
        <time>2014-10-19T08:01:16Z</time>
      </trkpt>
      <trkpt lat="50.07143" lon="3.92485">
        <ele>150.1</ele>
        <time>2014-10-19T08:01:31Z</time>
      </trkpt>
      <trkpt lat="50.07125" lon="3.92517">
        <ele>150.1</ele>
        <time>2014-10-19T08:01:37Z</time>
      </trkpt>
      <trkpt lat="50.07112" lon="3.92537">
        <ele>150.1</ele>
        <time>2014-10-19T08:01:41Z</time>
      </trkpt>
      <trkpt lat="50.07032" lon="3.92626">
        <ele>151.54</ele>
        <time>2014-10-19T08:02:01Z</time>
      </trkpt>
      <trkpt lat="50.06961" lon="3.92704">
        <ele>151.54</ele>
        <time>2014-10-19T08:02:18Z</time>
      </trkpt>
      <trkpt lat="50.06918" lon="3.92749">
        <ele>151.54</ele>
        <time>2014-10-19T08:02:28Z</time>
      </trkpt>
      <trkpt lat="50.06834" lon="3.92796">
        <ele>151.54</ele>
        <time>2014-10-19T08:02:45Z</time>
      </trkpt>
      <trkpt lat="50.0683" lon="3.92801">
        <ele>151.54</ele>
        <time>2014-10-19T08:02:46Z</time>
      </trkpt>
      <trkpt lat="50.06825" lon="3.92806">
        <ele>151.54</ele>
        <time>2014-10-19T08:02:47Z</time>
      </trkpt>
      <trkpt lat="50.06792" lon="3.92853">
        <ele>153.47</ele>
        <time>2014-10-19T08:02:59Z</time>
      </trkpt>
      <trkpt lat="50.06789" lon="3.92855">
        <ele>153.47</ele>
        <time>2014-10-19T08:03:00Z</time>
      </trkpt>
      <trkpt lat="50.06732" lon="3.92868">
        <ele>154.43</ele>
        <time>2014-10-19T08:03:14Z</time>
      </trkpt>
      <trkpt lat="50.06696" lon="3.9288">
        <ele>154.43</ele>
        <time>2014-10-19T08:03:22Z</time>
      </trkpt>
      <trkpt lat="50.06663" lon="3.92885">
        <ele>154.91</ele>
        <time>2014-10-19T08:03:29Z</time>
      </trkpt>
      <trkpt lat="50.06564" lon="3.92899">
        <ele>154.91</ele>
        <time>2014-10-19T08:03:49Z</time>
      </trkpt>
      <trkpt lat="50.0648" lon="3.92911">
        <ele>154.91</ele>
        <time>2014-10-19T08:04:06Z</time>
      </trkpt>
      <trkpt lat="50.06392" lon="3.92923">
        <ele>154.43</ele>
        <time>2014-10-19T08:04:23Z</time>
      </trkpt>
      <trkpt lat="50.06372" lon="3.92926">
        <ele>153.47</ele>
        <time>2014-10-19T08:04:27Z</time>
      </trkpt>
      <trkpt lat="50.06284" lon="3.92938">
        <ele>153.47</ele>
        <time>2014-10-19T08:04:44Z</time>
      </trkpt>
      <trkpt lat="50.06189" lon="3.92932">
        <ele>152.03</ele>
        <time>2014-10-19T08:05:01Z</time>
      </trkpt>
      <trkpt lat="50.06148" lon="3.92918">
        <ele>152.03</ele>
        <time>2014-10-19T08:05:09Z</time>
      </trkpt>
      <trkpt lat="50.06143" lon="3.92919">
        <ele>152.03</ele>
        <time>2014-10-19T08:05:10Z</time>
      </trkpt>
      <trkpt lat="50.06139" lon="3.92922">
        <ele>152.03</ele>
        <time>2014-10-19T08:05:11Z</time>
      </trkpt>
      <trkpt lat="50.06135" lon="3.92927">
        <ele>151.54</ele>
        <time>2014-10-19T08:05:12Z</time>
      </trkpt>
      <trkpt lat="50.06132" lon="3.92934">
        <ele>151.54</ele>
        <time>2014-10-19T08:05:13Z</time>
      </trkpt>
      <trkpt lat="50.0613" lon="3.9294">
        <ele>151.54</ele>
        <time>2014-10-19T08:05:14Z</time>
      </trkpt>
      <trkpt lat="50.06128" lon="3.92947">
        <ele>151.54</ele>
        <time>2014-10-19T08:05:15Z</time>
      </trkpt>
      <trkpt lat="50.06125" lon="3.92961">
        <ele>151.54</ele>
        <time>2014-10-19T08:05:17Z</time>
      </trkpt>
      <trkpt lat="50.06125" lon="3.92969">
        <ele>151.54</ele>
        <time>2014-10-19T08:05:18Z</time>
      </trkpt>
      <trkpt lat="50.06124" lon="3.92977">
        <ele>151.54</ele>
        <time>2014-10-19T08:05:19Z</time>
      </trkpt>
      <trkpt lat="50.06124" lon="3.9311">
        <ele>151.54</ele>
        <time>2014-10-19T08:05:36Z</time>
      </trkpt>
      <trkpt lat="50.06125" lon="3.93219">
        <ele>151.06</ele>
        <time>2014-10-19T08:05:49Z</time>
      </trkpt>
      <trkpt lat="50.06129" lon="3.93259">
        <ele>151.06</ele>
        <time>2014-10-19T08:05:54Z</time>
      </trkpt>
      <trkpt lat="50.06138" lon="3.93306">
        <ele>151.06</ele>
        <time>2014-10-19T08:06:00Z</time>
      </trkpt>
      <trkpt lat="50.06141" lon="3.93313">
        <ele>151.06</ele>
        <time>2014-10-19T08:06:01Z</time>
      </trkpt>
      <trkpt lat="50.06144" lon="3.9332">
        <ele>151.06</ele>
        <time>2014-10-19T08:06:02Z</time>
      </trkpt>
      <trkpt lat="50.06147" lon="3.93327">
        <ele>151.06</ele>
        <time>2014-10-19T08:06:03Z</time>
      </trkpt>
      <trkpt lat="50.0615" lon="3.93333">
        <ele>151.06</ele>
        <time>2014-10-19T08:06:04Z</time>
      </trkpt>
      <trkpt lat="50.06206" lon="3.93451">
        <ele>151.06</ele>
        <time>2014-10-19T08:06:21Z</time>
      </trkpt>
      <trkpt lat="50.06208" lon="3.93457">
        <ele>151.06</ele>
        <time>2014-10-19T08:06:22Z</time>
      </trkpt>
      <trkpt lat="50.06211" lon="3.93464">
        <ele>151.06</ele>
        <time>2014-10-19T08:06:23Z</time>
      </trkpt>
      <trkpt lat="50.06229" lon="3.93572">
        <ele>151.06</ele>
        <time>2014-10-19T08:06:37Z</time>
      </trkpt>
      <trkpt lat="50.0623" lon="3.93712">
        <ele>153.47</ele>
        <time>2014-10-19T08:06:56Z</time>
      </trkpt>
      <trkpt lat="50.06229" lon="3.9374">
        <ele>154.91</ele>
        <time>2014-10-19T08:07:05Z</time>
      </trkpt>
      <trkpt lat="50.06229" lon="3.93738">
        <ele>154.43</ele>
        <time>2014-10-19T08:07:06Z</time>
      </trkpt>
      <trkpt lat="50.06229" lon="3.93737">
        <ele>154.43</ele>
        <time>2014-10-19T08:07:07Z</time>
      </trkpt>
      <trkpt lat="50.06229" lon="3.93734">
        <ele>153.47</ele>
        <time>2014-10-19T08:07:18Z</time>
      </trkpt>
      <trkpt lat="50.0623" lon="3.93733">
        <ele>153.47</ele>
        <time>2014-10-19T08:08:03Z</time>
      </trkpt>
      <trkpt lat="50.06231" lon="3.93732">
        <ele>153.47</ele>
        <time>2014-10-19T08:08:32Z</time>
      </trkpt>
      <trkpt lat="50.0623" lon="3.93734">
        <ele>152.99</ele>
        <time>2014-10-19T08:09:00Z</time>
      </trkpt>
      <trkpt lat="50.06229" lon="3.93735">
        <ele>152.99</ele>
        <time>2014-10-19T08:09:30Z</time>
      </trkpt>
      <trkpt lat="50.06229" lon="3.93738">
        <ele>154.43</ele>
        <time>2014-10-19T08:09:32Z</time>
      </trkpt>
      <trkpt lat="50.06229" lon="3.9374">
        <ele>154.43</ele>
        <time>2014-10-19T08:09:33Z</time>
      </trkpt>
      <trkpt lat="50.06229" lon="3.93743">
        <ele>154.43</ele>
        <time>2014-10-19T08:09:34Z</time>
      </trkpt>
      <trkpt lat="50.06229" lon="3.93746">
        <ele>154.43</ele>
        <time>2014-10-19T08:09:35Z</time>
      </trkpt>
      <trkpt lat="50.06229" lon="3.9375">
        <ele>154.43</ele>
        <time>2014-10-19T08:09:36Z</time>
      </trkpt>
      <trkpt lat="50.06229" lon="3.93755">
        <ele>154.43</ele>
        <time>2014-10-19T08:09:37Z</time>
      </trkpt>
      <trkpt lat="50.06229" lon="3.93761">
        <ele>154.91</ele>
        <time>2014-10-19T08:09:38Z</time>
      </trkpt>
      <trkpt lat="50.0623" lon="3.93767">
        <ele>154.91</ele>
        <time>2014-10-19T08:09:39Z</time>
      </trkpt>
      <trkpt lat="50.0623" lon="3.93805">
        <ele>156.35</ele>
        <time>2014-10-19T08:09:45Z</time>
      </trkpt>
      <trkpt lat="50.06238" lon="3.93882">
        <ele>159.24</ele>
        <time>2014-10-19T08:09:58Z</time>
      </trkpt>
      <trkpt lat="50.06245" lon="3.93917">
        <ele>160.68</ele>
        <time>2014-10-19T08:10:04Z</time>
      </trkpt>
      <trkpt lat="50.06245" lon="3.93923">
        <ele>160.68</ele>
        <time>2014-10-19T08:10:05Z</time>
      </trkpt>
      <trkpt lat="50.06246" lon="3.93944">
        <ele>161.16</ele>
        <time>2014-10-19T08:10:08Z</time>
      </trkpt>
      <trkpt lat="50.06236" lon="3.94031">
        <ele>164.52</ele>
        <time>2014-10-19T08:10:22Z</time>
      </trkpt>
      <trkpt lat="50.06241" lon="3.94087">
        <ele>166.45</ele>
        <time>2014-10-19T08:10:32Z</time>
      </trkpt>
      <trkpt lat="50.06242" lon="3.94093">
        <ele>166.45</ele>
        <time>2014-10-19T08:10:33Z</time>
      </trkpt>
      <trkpt lat="50.06256" lon="3.94162">
        <ele>167.89</ele>
        <time>2014-10-19T08:10:46Z</time>
      </trkpt>
      <trkpt lat="50.06259" lon="3.94191">
        <ele>166.45</ele>
        <time>2014-10-19T08:10:50Z</time>
      </trkpt>
      <trkpt lat="50.06258" lon="3.94208">
        <ele>165.96</ele>
        <time>2014-10-19T08:10:52Z</time>
      </trkpt>
      <trkpt lat="50.06257" lon="3.94217">
        <ele>165.48</ele>
        <time>2014-10-19T08:10:53Z</time>
      </trkpt>
      <trkpt lat="50.06254" lon="3.94226">
        <ele>165</ele>
        <time>2014-10-19T08:10:54Z</time>
      </trkpt>
      <trkpt lat="50.06251" lon="3.94235">
        <ele>164.52</ele>
        <time>2014-10-19T08:10:55Z</time>
      </trkpt>
      <trkpt lat="50.06247" lon="3.94243">
        <ele>163.56</ele>
        <time>2014-10-19T08:10:56Z</time>
      </trkpt>
      <trkpt lat="50.06242" lon="3.94251">
        <ele>163.56</ele>
        <time>2014-10-19T08:10:57Z</time>
      </trkpt>
      <trkpt lat="50.06237" lon="3.94258">
        <ele>163.08</ele>
        <time>2014-10-19T08:10:58Z</time>
      </trkpt>
      <trkpt lat="50.0623" lon="3.94264">
        <ele>162.6</ele>
        <time>2014-10-19T08:10:59Z</time>
      </trkpt>
      <trkpt lat="50.06212" lon="3.94284">
        <ele>162.12</ele>
        <time>2014-10-19T08:11:02Z</time>
      </trkpt>
      <trkpt lat="50.06207" lon="3.94291">
        <ele>161.16</ele>
        <time>2014-10-19T08:11:03Z</time>
      </trkpt>
      <trkpt lat="50.06204" lon="3.943">
        <ele>161.16</ele>
        <time>2014-10-19T08:11:04Z</time>
      </trkpt>
      <trkpt lat="50.06202" lon="3.9431">
        <ele>160.2</ele>
        <time>2014-10-19T08:11:05Z</time>
      </trkpt>
      <trkpt lat="50.06203" lon="3.94321">
        <ele>159.72</ele>
        <time>2014-10-19T08:11:06Z</time>
      </trkpt>
      <trkpt lat="50.06205" lon="3.94332">
        <ele>159.24</ele>
        <time>2014-10-19T08:11:07Z</time>
      </trkpt>
      <trkpt lat="50.0621" lon="3.94342">
        <ele>158.27</ele>
        <time>2014-10-19T08:11:08Z</time>
      </trkpt>
      <trkpt lat="50.06215" lon="3.94352">
        <ele>158.27</ele>
        <time>2014-10-19T08:11:09Z</time>
      </trkpt>
      <trkpt lat="50.0622" lon="3.94362">
        <ele>157.79</ele>
        <time>2014-10-19T08:11:10Z</time>
      </trkpt>
      <trkpt lat="50.06251" lon="3.94409">
        <ele>155.39</ele>
        <time>2014-10-19T08:11:15Z</time>
      </trkpt>
      <trkpt lat="50.06303" lon="3.9449">
        <ele>153.47</ele>
        <time>2014-10-19T08:11:23Z</time>
      </trkpt>
      <trkpt lat="50.06306" lon="3.94502">
        <ele>153.47</ele>
        <time>2014-10-19T08:11:24Z</time>
      </trkpt>
      <trkpt lat="50.06307" lon="3.94514">
        <ele>153.47</ele>
        <time>2014-10-19T08:11:25Z</time>
      </trkpt>
      <trkpt lat="50.06306" lon="3.94526">
        <ele>153.47</ele>
        <time>2014-10-19T08:11:26Z</time>
      </trkpt>
      <trkpt lat="50.06303" lon="3.94537">
        <ele>153.47</ele>
        <time>2014-10-19T08:11:27Z</time>
      </trkpt>
      <trkpt lat="50.06299" lon="3.94546">
        <ele>153.47</ele>
        <time>2014-10-19T08:11:28Z</time>
      </trkpt>
      <trkpt lat="50.06294" lon="3.94554">
        <ele>153.47</ele>
        <time>2014-10-19T08:11:29Z</time>
      </trkpt>
      <trkpt lat="50.06289" lon="3.94561">
        <ele>153.47</ele>
        <time>2014-10-19T08:11:30Z</time>
      </trkpt>
      <trkpt lat="50.06284" lon="3.94567">
        <ele>153.47</ele>
        <time>2014-10-19T08:11:31Z</time>
      </trkpt>
      <trkpt lat="50.06275" lon="3.94581">
        <ele>153.47</ele>
        <time>2014-10-19T08:11:33Z</time>
      </trkpt>
      <trkpt lat="50.06271" lon="3.94589">
        <ele>153.47</ele>
        <time>2014-10-19T08:11:34Z</time>
      </trkpt>
      <trkpt lat="50.06267" lon="3.94598">
        <ele>153.47</ele>
        <time>2014-10-19T08:11:35Z</time>
      </trkpt>
      <trkpt lat="50.06265" lon="3.94607">
        <ele>153.47</ele>
        <time>2014-10-19T08:11:36Z</time>
      </trkpt>
      <trkpt lat="50.06263" lon="3.94616">
        <ele>153.47</ele>
        <time>2014-10-19T08:11:37Z</time>
      </trkpt>
      <trkpt lat="50.06261" lon="3.94625">
        <ele>153.47</ele>
        <time>2014-10-19T08:11:38Z</time>
      </trkpt>
      <trkpt lat="50.06255" lon="3.94676">
        <ele>154.91</ele>
        <time>2014-10-19T08:11:44Z</time>
      </trkpt>
      <trkpt lat="50.06254" lon="3.94684">
        <ele>154.91</ele>
        <time>2014-10-19T08:11:45Z</time>
      </trkpt>
      <trkpt lat="50.06252" lon="3.9471">
        <ele>156.35</ele>
        <time>2014-10-19T08:11:48Z</time>
      </trkpt>
      <trkpt lat="50.06223" lon="3.9481">
        <ele>156.83</ele>
        <time>2014-10-19T08:12:02Z</time>
      </trkpt>
      <trkpt lat="50.06169" lon="3.94926">
        <ele>156.35</ele>
        <time>2014-10-19T08:12:19Z</time>
      </trkpt>
      <trkpt lat="50.06123" lon="3.95029">
        <ele>156.83</ele>
        <time>2014-10-19T08:12:34Z</time>
      </trkpt>
      <trkpt lat="50.06095" lon="3.95081">
        <ele>156.83</ele>
        <time>2014-10-19T08:12:43Z</time>
      </trkpt>
      <trkpt lat="50.06087" lon="3.95099">
        <ele>157.31</ele>
        <time>2014-10-19T08:12:46Z</time>
      </trkpt>
      <trkpt lat="50.06084" lon="3.95106">
        <ele>157.79</ele>
        <time>2014-10-19T08:12:47Z</time>
      </trkpt>
      <trkpt lat="50.06081" lon="3.95112">
        <ele>157.79</ele>
        <time>2014-10-19T08:12:48Z</time>
      </trkpt>
      <trkpt lat="50.06076" lon="3.95124">
        <ele>158.75</ele>
        <time>2014-10-19T08:12:50Z</time>
      </trkpt>
      <trkpt lat="50.06052" lon="3.95223">
        <ele>161.16</ele>
        <time>2014-10-19T08:13:08Z</time>
      </trkpt>
      <trkpt lat="50.06049" lon="3.95236">
        <ele>161.64</ele>
        <time>2014-10-19T08:13:17Z</time>
      </trkpt>
      <trkpt lat="50.06048" lon="3.95243">
        <ele>161.64</ele>
        <time>2014-10-19T08:13:26Z</time>
      </trkpt>
      <trkpt lat="50.06048" lon="3.95247">
        <ele>161.64</ele>
        <time>2014-10-19T08:13:27Z</time>
      </trkpt>
      <trkpt lat="50.06047" lon="3.95251">
        <ele>161.64</ele>
        <time>2014-10-19T08:13:28Z</time>
      </trkpt>
      <trkpt lat="50.06046" lon="3.95256">
        <ele>161.64</ele>
        <time>2014-10-19T08:13:29Z</time>
      </trkpt>
      <trkpt lat="50.06045" lon="3.95261">
        <ele>161.64</ele>
        <time>2014-10-19T08:13:30Z</time>
      </trkpt>
      <trkpt lat="50.06044" lon="3.95266">
        <ele>161.64</ele>
        <time>2014-10-19T08:13:31Z</time>
      </trkpt>
      <trkpt lat="50.06043" lon="3.95271">
        <ele>161.64</ele>
        <time>2014-10-19T08:13:32Z</time>
      </trkpt>
      <trkpt lat="50.06032" lon="3.95325">
        <ele>165</ele>
        <time>2014-10-19T08:13:44Z</time>
      </trkpt>
      <trkpt lat="50.06022" lon="3.95372">
        <ele>167.89</ele>
        <time>2014-10-19T08:13:56Z</time>
      </trkpt>
      <trkpt lat="50.06013" lon="3.95422">
        <ele>170.29</ele>
        <time>2014-10-19T08:14:11Z</time>
      </trkpt>
      <trkpt lat="50.06003" lon="3.95473">
        <ele>172.21</ele>
        <time>2014-10-19T08:14:25Z</time>
      </trkpt>
      <trkpt lat="50.05994" lon="3.95531">
        <ele>174.62</ele>
        <time>2014-10-19T08:14:41Z</time>
      </trkpt>
      <trkpt lat="50.06002" lon="3.95589">
        <ele>176.06</ele>
        <time>2014-10-19T08:14:57Z</time>
      </trkpt>
      <trkpt lat="50.06033" lon="3.95595">
        <ele>177.02</ele>
        <time>2014-10-19T08:15:10Z</time>
      </trkpt>
      <trkpt lat="50.06075" lon="3.95603">
        <ele>178.94</ele>
        <time>2014-10-19T08:15:26Z</time>
      </trkpt>
      <trkpt lat="50.06132" lon="3.9561">
        <ele>180.38</ele>
        <time>2014-10-19T08:15:44Z</time>
      </trkpt>
      <trkpt lat="50.06186" lon="3.95633">
        <ele>180.87</ele>
        <time>2014-10-19T08:16:00Z</time>
      </trkpt>
      <trkpt lat="50.06252" lon="3.95649">
        <ele>181.35</ele>
        <time>2014-10-19T08:16:17Z</time>
      </trkpt>
      <trkpt lat="50.06311" lon="3.9566">
        <ele>183.27</ele>
        <time>2014-10-19T08:16:33Z</time>
      </trkpt>
      <trkpt lat="50.06377" lon="3.95672">
        <ele>184.71</ele>
        <time>2014-10-19T08:16:50Z</time>
      </trkpt>
      <trkpt lat="50.0647" lon="3.95672">
        <ele>185.67</ele>
        <time>2014-10-19T08:17:12Z</time>
      </trkpt>
      <trkpt lat="50.06478" lon="3.95671">
        <ele>186.15</ele>
        <time>2014-10-19T08:17:14Z</time>
      </trkpt>
      <trkpt lat="50.06486" lon="3.95671">
        <ele>186.15</ele>
        <time>2014-10-19T08:17:16Z</time>
      </trkpt>
      <trkpt lat="50.06507" lon="3.95667">
        <ele>186.15</ele>
        <time>2014-10-19T08:17:21Z</time>
      </trkpt>
      <trkpt lat="50.06511" lon="3.95667">
        <ele>186.15</ele>
        <time>2014-10-19T08:17:22Z</time>
      </trkpt>
      <trkpt lat="50.06516" lon="3.95666">
        <ele>186.63</ele>
        <time>2014-10-19T08:17:23Z</time>
      </trkpt>
      <trkpt lat="50.06609" lon="3.95649">
        <ele>188.08</ele>
        <time>2014-10-19T08:17:43Z</time>
      </trkpt>
      <trkpt lat="50.06684" lon="3.95618">
        <ele>186.63</ele>
        <time>2014-10-19T08:17:59Z</time>
      </trkpt>
      <trkpt lat="50.0669" lon="3.95615">
        <ele>186.63</ele>
        <time>2014-10-19T08:18:00Z</time>
      </trkpt>
      <trkpt lat="50.06695" lon="3.95614">
        <ele>186.15</ele>
        <time>2014-10-19T08:18:01Z</time>
      </trkpt>
      <trkpt lat="50.06701" lon="3.95615">
        <ele>186.15</ele>
        <time>2014-10-19T08:18:02Z</time>
      </trkpt>
      <trkpt lat="50.06706" lon="3.95619">
        <ele>186.15</ele>
        <time>2014-10-19T08:18:03Z</time>
      </trkpt>
      <trkpt lat="50.0671" lon="3.95623">
        <ele>186.15</ele>
        <time>2014-10-19T08:18:04Z</time>
      </trkpt>
      <trkpt lat="50.06714" lon="3.95628">
        <ele>186.15</ele>
        <time>2014-10-19T08:18:05Z</time>
      </trkpt>
      <trkpt lat="50.06722" lon="3.95636">
        <ele>186.15</ele>
        <time>2014-10-19T08:18:07Z</time>
      </trkpt>
      <trkpt lat="50.06726" lon="3.95638">
        <ele>186.15</ele>
        <time>2014-10-19T08:18:08Z</time>
      </trkpt>
      <trkpt lat="50.0673" lon="3.95638">
        <ele>186.15</ele>
        <time>2014-10-19T08:18:09Z</time>
      </trkpt>
      <trkpt lat="50.06762" lon="3.95638">
        <ele>185.67</ele>
        <time>2014-10-19T08:18:15Z</time>
      </trkpt>
      <trkpt lat="50.06768" lon="3.9564">
        <ele>184.71</ele>
        <time>2014-10-19T08:18:16Z</time>
      </trkpt>
      <trkpt lat="50.06773" lon="3.95642">
        <ele>184.23</ele>
        <time>2014-10-19T08:18:17Z</time>
      </trkpt>
      <trkpt lat="50.06778" lon="3.95645">
        <ele>184.23</ele>
        <time>2014-10-19T08:18:18Z</time>
      </trkpt>
      <trkpt lat="50.06815" lon="3.95664">
        <ele>182.79</ele>
        <time>2014-10-19T08:18:26Z</time>
      </trkpt>
      <trkpt lat="50.06819" lon="3.95665">
        <ele>182.31</ele>
        <time>2014-10-19T08:18:27Z</time>
      </trkpt>
      <trkpt lat="50.06828" lon="3.95667">
        <ele>182.31</ele>
        <time>2014-10-19T08:18:29Z</time>
      </trkpt>
      <trkpt lat="50.06837" lon="3.95666">
        <ele>182.31</ele>
        <time>2014-10-19T08:18:31Z</time>
      </trkpt>
      <trkpt lat="50.06882" lon="3.95651">
        <ele>181.35</ele>
        <time>2014-10-19T08:18:43Z</time>
      </trkpt>
      <trkpt lat="50.06886" lon="3.95649">
        <ele>181.35</ele>
        <time>2014-10-19T08:18:44Z</time>
      </trkpt>
      <trkpt lat="50.06929" lon="3.95643">
        <ele>181.35</ele>
        <time>2014-10-19T08:18:54Z</time>
      </trkpt>
      <trkpt lat="50.06944" lon="3.95644">
        <ele>181.35</ele>
        <time>2014-10-19T08:18:58Z</time>
      </trkpt>
      <trkpt lat="50.06948" lon="3.95645">
        <ele>181.35</ele>
        <time>2014-10-19T08:18:59Z</time>
      </trkpt>
      <trkpt lat="50.06957" lon="3.95649">
        <ele>181.35</ele>
        <time>2014-10-19T08:19:01Z</time>
      </trkpt>
      <trkpt lat="50.06961" lon="3.95651">
        <ele>181.35</ele>
        <time>2014-10-19T08:19:02Z</time>
      </trkpt>
      <trkpt lat="50.07022" lon="3.95687">
        <ele>181.35</ele>
        <time>2014-10-19T08:19:19Z</time>
      </trkpt>
      <trkpt lat="50.07071" lon="3.95715">
        <ele>181.35</ele>
        <time>2014-10-19T08:19:33Z</time>
      </trkpt>
      <trkpt lat="50.07128" lon="3.95742">
        <ele>178.94</ele>
        <time>2014-10-19T08:19:49Z</time>
      </trkpt>
      <trkpt lat="50.07156" lon="3.95753">
        <ele>177.5</ele>
        <time>2014-10-19T08:19:56Z</time>
      </trkpt>
      <trkpt lat="50.07216" lon="3.95766">
        <ele>174.14</ele>
        <time>2014-10-19T08:20:07Z</time>
      </trkpt>
      <trkpt lat="50.0724" lon="3.95772">
        <ele>172.69</ele>
        <time>2014-10-19T08:20:11Z</time>
      </trkpt>
      <trkpt lat="50.0728" lon="3.95786">
        <ele>169.33</ele>
        <time>2014-10-19T08:20:18Z</time>
      </trkpt>
      <trkpt lat="50.07356" lon="3.95814">
        <ele>167.89</ele>
        <time>2014-10-19T08:20:33Z</time>
      </trkpt>
      <trkpt lat="50.07397" lon="3.9583">
        <ele>166.93</ele>
        <time>2014-10-19T08:20:44Z</time>
      </trkpt>
      <trkpt lat="50.07439" lon="3.95845">
        <ele>166.93</ele>
        <time>2014-10-19T08:20:57Z</time>
      </trkpt>
      <trkpt lat="50.07488" lon="3.95866">
        <ele>165.96</ele>
        <time>2014-10-19T08:21:11Z</time>
      </trkpt>
      <trkpt lat="50.07492" lon="3.95868">
        <ele>165.96</ele>
        <time>2014-10-19T08:21:12Z</time>
      </trkpt>
      <trkpt lat="50.07496" lon="3.95869">
        <ele>165.96</ele>
        <time>2014-10-19T08:21:13Z</time>
      </trkpt>
      <trkpt lat="50.075" lon="3.9587">
        <ele>165.96</ele>
        <time>2014-10-19T08:21:14Z</time>
      </trkpt>
      <trkpt lat="50.07503" lon="3.95871">
        <ele>165.96</ele>
        <time>2014-10-19T08:21:15Z</time>
      </trkpt>
      <trkpt lat="50.07507" lon="3.95872">
        <ele>165.96</ele>
        <time>2014-10-19T08:21:16Z</time>
      </trkpt>
      <trkpt lat="50.07542" lon="3.95919">
        <ele>166.45</ele>
        <time>2014-10-19T08:21:28Z</time>
      </trkpt>
      <trkpt lat="50.07546" lon="3.95923">
        <ele>166.45</ele>
        <time>2014-10-19T08:21:29Z</time>
      </trkpt>
      <trkpt lat="50.07549" lon="3.95926">
        <ele>166.45</ele>
        <time>2014-10-19T08:21:30Z</time>
      </trkpt>
      <trkpt lat="50.07553" lon="3.95928">
        <ele>166.45</ele>
        <time>2014-10-19T08:21:31Z</time>
      </trkpt>
      <trkpt lat="50.07557" lon="3.95928">
        <ele>166.45</ele>
        <time>2014-10-19T08:21:32Z</time>
      </trkpt>
      <trkpt lat="50.0756" lon="3.95926">
        <ele>166.45</ele>
        <time>2014-10-19T08:21:33Z</time>
      </trkpt>
      <trkpt lat="50.07563" lon="3.95924">
        <ele>166.45</ele>
        <time>2014-10-19T08:21:34Z</time>
      </trkpt>
      <trkpt lat="50.07566" lon="3.95921">
        <ele>166.45</ele>
        <time>2014-10-19T08:21:35Z</time>
      </trkpt>
      <trkpt lat="50.07594" lon="3.95879">
        <ele>166.45</ele>
        <time>2014-10-19T08:21:48Z</time>
      </trkpt>
      <trkpt lat="50.07616" lon="3.9587">
        <ele>166.45</ele>
        <time>2014-10-19T08:21:55Z</time>
      </trkpt>
      <trkpt lat="50.07618" lon="3.95874">
        <ele>166.45</ele>
        <time>2014-10-19T08:21:56Z</time>
      </trkpt>
      <trkpt lat="50.07621" lon="3.95877">
        <ele>166.45</ele>
        <time>2014-10-19T08:21:57Z</time>
      </trkpt>
      <trkpt lat="50.07623" lon="3.95881">
        <ele>166.45</ele>
        <time>2014-10-19T08:21:58Z</time>
      </trkpt>
      <trkpt lat="50.07626" lon="3.95886">
        <ele>166.45</ele>
        <time>2014-10-19T08:21:59Z</time>
      </trkpt>
      <trkpt lat="50.07629" lon="3.9589">
        <ele>166.45</ele>
        <time>2014-10-19T08:22:00Z</time>
      </trkpt>
      <trkpt lat="50.07631" lon="3.95895">
        <ele>166.45</ele>
        <time>2014-10-19T08:22:01Z</time>
      </trkpt>
      <trkpt lat="50.07663" lon="3.95924">
        <ele>167.41</ele>
        <time>2014-10-19T08:22:12Z</time>
      </trkpt>
      <trkpt lat="50.07702" lon="3.95895">
        <ele>168.85</ele>
        <time>2014-10-19T08:22:26Z</time>
      </trkpt>
      <trkpt lat="50.07732" lon="3.95866">
        <ele>171.25</ele>
        <time>2014-10-19T08:22:41Z</time>
      </trkpt>
      <trkpt lat="50.07757" lon="3.95834">
        <ele>172.69</ele>
        <time>2014-10-19T08:22:56Z</time>
      </trkpt>
      <trkpt lat="50.07769" lon="3.9579">
        <ele>175.1</ele>
        <time>2014-10-19T08:23:12Z</time>
      </trkpt>
      <trkpt lat="50.0778" lon="3.95741">
        <ele>177.5</ele>
        <time>2014-10-19T08:23:27Z</time>
      </trkpt>
      <trkpt lat="50.07791" lon="3.95693">
        <ele>179.42</ele>
        <time>2014-10-19T08:23:42Z</time>
      </trkpt>
      <trkpt lat="50.07802" lon="3.95641">
        <ele>181.35</ele>
        <time>2014-10-19T08:23:58Z</time>
      </trkpt>
      <trkpt lat="50.07816" lon="3.95586">
        <ele>183.75</ele>
        <time>2014-10-19T08:24:15Z</time>
      </trkpt>
      <trkpt lat="50.07828" lon="3.95535">
        <ele>186.15</ele>
        <time>2014-10-19T08:24:31Z</time>
      </trkpt>
      <trkpt lat="50.07838" lon="3.95483">
        <ele>190.48</ele>
        <time>2014-10-19T08:24:46Z</time>
      </trkpt>
      <trkpt lat="50.0785" lon="3.95437">
        <ele>187.59</ele>
        <time>2014-10-19T08:24:59Z</time>
      </trkpt>
      <trkpt lat="50.07858" lon="3.95426">
        <ele>189.04</ele>
        <time>2014-10-19T08:25:04Z</time>
      </trkpt>
      <trkpt lat="50.07882" lon="3.95441">
        <ele>189.04</ele>
        <time>2014-10-19T08:25:15Z</time>
      </trkpt>
      <trkpt lat="50.07914" lon="3.95491">
        <ele>190</ele>
        <time>2014-10-19T08:25:31Z</time>
      </trkpt>
      <trkpt lat="50.07948" lon="3.95556">
        <ele>190.96</ele>
        <time>2014-10-19T08:25:47Z</time>
      </trkpt>
      <trkpt lat="50.07999" lon="3.95607">
        <ele>191.92</ele>
        <time>2014-10-19T08:26:03Z</time>
      </trkpt>
      <trkpt lat="50.08022" lon="3.9562">
        <ele>192.4</ele>
        <time>2014-10-19T08:26:09Z</time>
      </trkpt>
      <trkpt lat="50.08077" lon="3.95684">
        <ele>193.84</ele>
        <time>2014-10-19T08:26:26Z</time>
      </trkpt>
      <trkpt lat="50.08129" lon="3.95744">
        <ele>194.8</ele>
        <time>2014-10-19T08:26:41Z</time>
      </trkpt>
      <trkpt lat="50.08203" lon="3.958">
        <ele>195.77</ele>
        <time>2014-10-19T08:26:59Z</time>
      </trkpt>
      <trkpt lat="50.0822" lon="3.9581">
        <ele>196.25</ele>
        <time>2014-10-19T08:27:03Z</time>
      </trkpt>
      <trkpt lat="50.08228" lon="3.95818">
        <ele>196.25</ele>
        <time>2014-10-19T08:27:05Z</time>
      </trkpt>
      <trkpt lat="50.08232" lon="3.95822">
        <ele>196.73</ele>
        <time>2014-10-19T08:27:06Z</time>
      </trkpt>
      <trkpt lat="50.08262" lon="3.95881">
        <ele>197.69</ele>
        <time>2014-10-19T08:27:18Z</time>
      </trkpt>
      <trkpt lat="50.08266" lon="3.95893">
        <ele>197.69</ele>
        <time>2014-10-19T08:27:20Z</time>
      </trkpt>
      <trkpt lat="50.08268" lon="3.95899">
        <ele>197.69</ele>
        <time>2014-10-19T08:27:21Z</time>
      </trkpt>
      <trkpt lat="50.0827" lon="3.95905">
        <ele>197.69</ele>
        <time>2014-10-19T08:27:22Z</time>
      </trkpt>
      <trkpt lat="50.0829" lon="3.95949">
        <ele>197.21</ele>
        <time>2014-10-19T08:27:30Z</time>
      </trkpt>
      <trkpt lat="50.08293" lon="3.95954">
        <ele>197.69</ele>
        <time>2014-10-19T08:27:31Z</time>
      </trkpt>
      <trkpt lat="50.08317" lon="3.95999">
        <ele>197.69</ele>
        <time>2014-10-19T08:27:40Z</time>
      </trkpt>
      <trkpt lat="50.0833" lon="3.96032">
        <ele>197.69</ele>
        <time>2014-10-19T08:27:46Z</time>
      </trkpt>
      <trkpt lat="50.08333" lon="3.96037">
        <ele>197.69</ele>
        <time>2014-10-19T08:27:47Z</time>
      </trkpt>
      <trkpt lat="50.08335" lon="3.96042">
        <ele>197.69</ele>
        <time>2014-10-19T08:27:48Z</time>
      </trkpt>
      <trkpt lat="50.08339" lon="3.96046">
        <ele>197.69</ele>
        <time>2014-10-19T08:27:49Z</time>
      </trkpt>
      <trkpt lat="50.08342" lon="3.9605">
        <ele>197.69</ele>
        <time>2014-10-19T08:27:50Z</time>
      </trkpt>
      <trkpt lat="50.08398" lon="3.96107">
        <ele>197.69</ele>
        <time>2014-10-19T08:28:05Z</time>
      </trkpt>
      <trkpt lat="50.08402" lon="3.96111">
        <ele>197.69</ele>
        <time>2014-10-19T08:28:06Z</time>
      </trkpt>
      <trkpt lat="50.08424" lon="3.96131">
        <ele>197.69</ele>
        <time>2014-10-19T08:28:12Z</time>
      </trkpt>
      <trkpt lat="50.08438" lon="3.96147">
        <ele>198.17</ele>
        <time>2014-10-19T08:28:16Z</time>
      </trkpt>
      <trkpt lat="50.08495" lon="3.96223">
        <ele>199.13</ele>
        <time>2014-10-19T08:28:34Z</time>
      </trkpt>
      <trkpt lat="50.0854" lon="3.96284">
        <ele>201.53</ele>
        <time>2014-10-19T08:28:50Z</time>
      </trkpt>
      <trkpt lat="50.08574" lon="3.9633">
        <ele>202.49</ele>
        <time>2014-10-19T08:29:03Z</time>
      </trkpt>
      <trkpt lat="50.08602" lon="3.96368">
        <ele>202.98</ele>
        <time>2014-10-19T08:29:16Z</time>
      </trkpt>
      <trkpt lat="50.08613" lon="3.96384">
        <ele>202.98</ele>
        <time>2014-10-19T08:29:22Z</time>
      </trkpt>
      <trkpt lat="50.08615" lon="3.96386">
        <ele>202.98</ele>
        <time>2014-10-19T08:29:23Z</time>
      </trkpt>
      <trkpt lat="50.08617" lon="3.96388">
        <ele>202.98</ele>
        <time>2014-10-19T08:29:24Z</time>
      </trkpt>
      <trkpt lat="50.08619" lon="3.96391">
        <ele>203.46</ele>
        <time>2014-10-19T08:29:25Z</time>
      </trkpt>
      <trkpt lat="50.08621" lon="3.96394">
        <ele>203.46</ele>
        <time>2014-10-19T08:29:26Z</time>
      </trkpt>
      <trkpt lat="50.08661" lon="3.96453">
        <ele>203.94</ele>
        <time>2014-10-19T08:29:46Z</time>
      </trkpt>
      <trkpt lat="50.0868" lon="3.96481">
        <ele>204.42</ele>
        <time>2014-10-19T08:29:58Z</time>
      </trkpt>
      <trkpt lat="50.08697" lon="3.96506">
        <ele>204.9</ele>
        <time>2014-10-19T08:30:06Z</time>
      </trkpt>
      <trkpt lat="50.087" lon="3.9651">
        <ele>204.9</ele>
        <time>2014-10-19T08:30:07Z</time>
      </trkpt>
      <trkpt lat="50.08703" lon="3.96515">
        <ele>205.38</ele>
        <time>2014-10-19T08:30:08Z</time>
      </trkpt>
      <trkpt lat="50.08731" lon="3.96552">
        <ele>205.86</ele>
        <time>2014-10-19T08:30:21Z</time>
      </trkpt>
      <trkpt lat="50.08759" lon="3.96593">
        <ele>206.34</ele>
        <time>2014-10-19T08:30:35Z</time>
      </trkpt>
      <trkpt lat="50.08789" lon="3.96638">
        <ele>206.34</ele>
        <time>2014-10-19T08:30:51Z</time>
      </trkpt>
      <trkpt lat="50.08807" lon="3.96672">
        <ele>207.3</ele>
        <time>2014-10-19T08:31:04Z</time>
      </trkpt>
      <trkpt lat="50.08817" lon="3.96703">
        <ele>207.78</ele>
        <time>2014-10-19T08:31:15Z</time>
      </trkpt>
      <trkpt lat="50.08832" lon="3.96747">
        <ele>208.26</ele>
        <time>2014-10-19T08:31:27Z</time>
      </trkpt>
      <trkpt lat="50.08845" lon="3.96788">
        <ele>208.74</ele>
        <time>2014-10-19T08:31:39Z</time>
      </trkpt>
      <trkpt lat="50.0886" lon="3.96834">
        <ele>209.7</ele>
        <time>2014-10-19T08:31:51Z</time>
      </trkpt>
      <trkpt lat="50.08882" lon="3.96896">
        <ele>210.19</ele>
        <time>2014-10-19T08:32:08Z</time>
      </trkpt>
      <trkpt lat="50.08907" lon="3.96965">
        <ele>210.67</ele>
        <time>2014-10-19T08:32:22Z</time>
      </trkpt>
      <trkpt lat="50.08937" lon="3.9704">
        <ele>211.15</ele>
        <time>2014-10-19T08:32:36Z</time>
      </trkpt>
      <trkpt lat="50.08966" lon="3.97122">
        <ele>212.11</ele>
        <time>2014-10-19T08:32:52Z</time>
      </trkpt>
      <trkpt lat="50.08988" lon="3.97171">
        <ele>212.11</ele>
        <time>2014-10-19T08:33:05Z</time>
      </trkpt>
      <trkpt lat="50.09017" lon="3.97254">
        <ele>212.11</ele>
        <time>2014-10-19T08:33:21Z</time>
      </trkpt>
      <trkpt lat="50.09051" lon="3.97298">
        <ele>212.59</ele>
        <time>2014-10-19T08:33:34Z</time>
      </trkpt>
      <trkpt lat="50.09084" lon="3.97311">
        <ele>211.63</ele>
        <time>2014-10-19T08:33:42Z</time>
      </trkpt>
      <trkpt lat="50.09089" lon="3.97313">
        <ele>211.63</ele>
        <time>2014-10-19T08:33:43Z</time>
      </trkpt>
      <trkpt lat="50.09111" lon="3.97321">
        <ele>211.15</ele>
        <time>2014-10-19T08:33:48Z</time>
      </trkpt>
      <trkpt lat="50.09147" lon="3.97345">
        <ele>211.15</ele>
        <time>2014-10-19T08:33:56Z</time>
      </trkpt>
      <trkpt lat="50.09152" lon="3.97348">
        <ele>211.15</ele>
        <time>2014-10-19T08:33:57Z</time>
      </trkpt>
      <trkpt lat="50.09157" lon="3.97351">
        <ele>211.15</ele>
        <time>2014-10-19T08:33:58Z</time>
      </trkpt>
      <trkpt lat="50.09162" lon="3.97355">
        <ele>211.15</ele>
        <time>2014-10-19T08:33:59Z</time>
      </trkpt>
      <trkpt lat="50.09167" lon="3.97358">
        <ele>211.15</ele>
        <time>2014-10-19T08:34:00Z</time>
      </trkpt>
      <trkpt lat="50.09203" lon="3.97386">
        <ele>210.67</ele>
        <time>2014-10-19T08:34:08Z</time>
      </trkpt>
      <trkpt lat="50.09277" lon="3.97413">
        <ele>209.7</ele>
        <time>2014-10-19T08:34:23Z</time>
      </trkpt>
      <trkpt lat="50.09343" lon="3.97437">
        <ele>208.74</ele>
        <time>2014-10-19T08:34:37Z</time>
      </trkpt>
      <trkpt lat="50.0935" lon="3.97443">
        <ele>208.74</ele>
        <time>2014-10-19T08:34:39Z</time>
      </trkpt>
      <trkpt lat="50.09351" lon="3.97448">
        <ele>208.74</ele>
        <time>2014-10-19T08:34:40Z</time>
      </trkpt>
      <trkpt lat="50.09351" lon="3.97453">
        <ele>208.74</ele>
        <time>2014-10-19T08:34:41Z</time>
      </trkpt>
      <trkpt lat="50.09349" lon="3.97458">
        <ele>208.26</ele>
        <time>2014-10-19T08:34:42Z</time>
      </trkpt>
      <trkpt lat="50.09346" lon="3.97463">
        <ele>208.26</ele>
        <time>2014-10-19T08:34:43Z</time>
      </trkpt>
      <trkpt lat="50.09343" lon="3.97469">
        <ele>207.78</ele>
        <time>2014-10-19T08:34:44Z</time>
      </trkpt>
      <trkpt lat="50.09327" lon="3.97512">
        <ele>207.3</ele>
        <time>2014-10-19T08:34:50Z</time>
      </trkpt>
      <trkpt lat="50.09305" lon="3.97579">
        <ele>206.82</ele>
        <time>2014-10-19T08:34:58Z</time>
      </trkpt>
      <trkpt lat="50.09301" lon="3.97587">
        <ele>206.82</ele>
        <time>2014-10-19T08:34:59Z</time>
      </trkpt>
      <trkpt lat="50.09249" lon="3.97687">
        <ele>206.34</ele>
        <time>2014-10-19T08:35:12Z</time>
      </trkpt>
      <trkpt lat="50.09197" lon="3.97787">
        <ele>209.22</ele>
        <time>2014-10-19T08:35:25Z</time>
      </trkpt>
      <trkpt lat="50.09185" lon="3.97891">
        <ele>211.63</ele>
        <time>2014-10-19T08:35:38Z</time>
      </trkpt>
      <trkpt lat="50.09184" lon="3.97898">
        <ele>211.63</ele>
        <time>2014-10-19T08:35:39Z</time>
      </trkpt>
      <trkpt lat="50.09182" lon="3.97903">
        <ele>211.63</ele>
        <time>2014-10-19T08:35:40Z</time>
      </trkpt>
      <trkpt lat="50.09179" lon="3.97907">
        <ele>211.63</ele>
        <time>2014-10-19T08:35:41Z</time>
      </trkpt>
      <trkpt lat="50.09145" lon="3.97946">
        <ele>209.22</ele>
        <time>2014-10-19T08:35:50Z</time>
      </trkpt>
      <trkpt lat="50.09139" lon="3.97951">
        <ele>209.22</ele>
        <time>2014-10-19T08:35:51Z</time>
      </trkpt>
      <trkpt lat="50.09134" lon="3.97955">
        <ele>209.22</ele>
        <time>2014-10-19T08:35:52Z</time>
      </trkpt>
      <trkpt lat="50.09129" lon="3.97958">
        <ele>208.74</ele>
        <time>2014-10-19T08:35:53Z</time>
      </trkpt>
      <trkpt lat="50.09124" lon="3.97961">
        <ele>208.74</ele>
        <time>2014-10-19T08:35:54Z</time>
      </trkpt>
      <trkpt lat="50.09094" lon="3.9798">
        <ele>208.26</ele>
        <time>2014-10-19T08:36:00Z</time>
      </trkpt>
      <trkpt lat="50.09089" lon="3.97984">
        <ele>207.78</ele>
        <time>2014-10-19T08:36:01Z</time>
      </trkpt>
      <trkpt lat="50.09015" lon="3.98036">
        <ele>207.78</ele>
        <time>2014-10-19T08:36:16Z</time>
      </trkpt>
      <trkpt lat="50.09005" lon="3.98043">
        <ele>209.22</ele>
        <time>2014-10-19T08:36:18Z</time>
      </trkpt>
      <trkpt lat="50.08978" lon="3.98057">
        <ele>209.7</ele>
        <time>2014-10-19T08:36:23Z</time>
      </trkpt>
      <trkpt lat="50.08973" lon="3.98059">
        <ele>209.7</ele>
        <time>2014-10-19T08:36:24Z</time>
      </trkpt>
      <trkpt lat="50.08921" lon="3.98088">
        <ele>211.15</ele>
        <time>2014-10-19T08:36:36Z</time>
      </trkpt>
      <trkpt lat="50.08899" lon="3.98109">
        <ele>211.15</ele>
        <time>2014-10-19T08:36:44Z</time>
      </trkpt>
      <trkpt lat="50.08899" lon="3.98113">
        <ele>211.15</ele>
        <time>2014-10-19T08:36:45Z</time>
      </trkpt>
      <trkpt lat="50.089" lon="3.98117">
        <ele>211.15</ele>
        <time>2014-10-19T08:36:46Z</time>
      </trkpt>
      <trkpt lat="50.08907" lon="3.98153">
        <ele>213.55</ele>
        <time>2014-10-19T08:36:52Z</time>
      </trkpt>
      <trkpt lat="50.08908" lon="3.9816">
        <ele>210.19</ele>
        <time>2014-10-19T08:36:53Z</time>
      </trkpt>
      <trkpt lat="50.0891" lon="3.98167">
        <ele>210.19</ele>
        <time>2014-10-19T08:36:54Z</time>
      </trkpt>
      <trkpt lat="50.08911" lon="3.98175">
        <ele>210.19</ele>
        <time>2014-10-19T08:36:55Z</time>
      </trkpt>
      <trkpt lat="50.08912" lon="3.98182">
        <ele>209.7</ele>
        <time>2014-10-19T08:36:56Z</time>
      </trkpt>
      <trkpt lat="50.08935" lon="3.98296">
        <ele>207.78</ele>
        <time>2014-10-19T08:37:10Z</time>
      </trkpt>
      <trkpt lat="50.08965" lon="3.98424">
        <ele>206.82</ele>
        <time>2014-10-19T08:37:26Z</time>
      </trkpt>
      <trkpt lat="50.09009" lon="3.98552">
        <ele>206.34</ele>
        <time>2014-10-19T08:37:42Z</time>
      </trkpt>
      <trkpt lat="50.09045" lon="3.98667">
        <ele>207.78</ele>
        <time>2014-10-19T08:37:57Z</time>
      </trkpt>
      <trkpt lat="50.09056" lon="3.98703">
        <ele>208.26</ele>
        <time>2014-10-19T08:38:02Z</time>
      </trkpt>
      <trkpt lat="50.09085" lon="3.98799">
        <ele>210.19</ele>
        <time>2014-10-19T08:38:17Z</time>
      </trkpt>
      <trkpt lat="50.09119" lon="3.98815">
        <ele>211.63</ele>
        <time>2014-10-19T08:38:26Z</time>
      </trkpt>
      <trkpt lat="50.09189" lon="3.98826">
        <ele>210.67</ele>
        <time>2014-10-19T08:38:41Z</time>
      </trkpt>
      <trkpt lat="50.09215" lon="3.98831">
        <ele>210.67</ele>
        <time>2014-10-19T08:38:46Z</time>
      </trkpt>
      <trkpt lat="50.09294" lon="3.98848">
        <ele>207.78</ele>
        <time>2014-10-19T08:39:00Z</time>
      </trkpt>
      <trkpt lat="50.09376" lon="3.98864">
        <ele>205.86</ele>
        <time>2014-10-19T08:39:14Z</time>
      </trkpt>
      <trkpt lat="50.0938" lon="3.98866">
        <ele>205.86</ele>
        <time>2014-10-19T08:39:16Z</time>
      </trkpt>
      <trkpt lat="50.09382" lon="3.98866">
        <ele>205.86</ele>
        <time>2014-10-19T08:39:17Z</time>
      </trkpt>
      <trkpt lat="50.0943" lon="3.98859">
        <ele>204.9</ele>
        <time>2014-10-19T08:39:29Z</time>
      </trkpt>
      <trkpt lat="50.09518" lon="3.98841">
        <ele>202.49</ele>
        <time>2014-10-19T08:39:45Z</time>
      </trkpt>
      <trkpt lat="50.096" lon="3.98827">
        <ele>199.61</ele>
        <time>2014-10-19T08:39:58Z</time>
      </trkpt>
      <trkpt lat="50.09706" lon="3.98863">
        <ele>196.25</ele>
        <time>2014-10-19T08:40:13Z</time>
      </trkpt>
      <trkpt lat="50.09789" lon="3.98896">
        <ele>193.36</ele>
        <time>2014-10-19T08:40:25Z</time>
      </trkpt>
      <trkpt lat="50.09833" lon="3.98921">
        <ele>192.4</ele>
        <time>2014-10-19T08:40:32Z</time>
      </trkpt>
      <trkpt lat="50.09838" lon="3.98926">
        <ele>192.88</ele>
        <time>2014-10-19T08:40:33Z</time>
      </trkpt>
      <trkpt lat="50.09843" lon="3.98932">
        <ele>192.4</ele>
        <time>2014-10-19T08:40:34Z</time>
      </trkpt>
      <trkpt lat="50.09847" lon="3.98938">
        <ele>192.4</ele>
        <time>2014-10-19T08:40:35Z</time>
      </trkpt>
      <trkpt lat="50.09851" lon="3.98945">
        <ele>192.4</ele>
        <time>2014-10-19T08:40:36Z</time>
      </trkpt>
      <trkpt lat="50.09859" lon="3.98959">
        <ele>192.4</ele>
        <time>2014-10-19T08:40:38Z</time>
      </trkpt>
      <trkpt lat="50.09906" lon="3.99058">
        <ele>190</ele>
        <time>2014-10-19T08:40:50Z</time>
      </trkpt>
      <trkpt lat="50.09948" lon="3.99105">
        <ele>189.04</ele>
        <time>2014-10-19T08:40:58Z</time>
      </trkpt>
      <trkpt lat="50.09965" lon="3.99118">
        <ele>189.04</ele>
        <time>2014-10-19T08:41:01Z</time>
      </trkpt>
      <trkpt lat="50.10043" lon="3.99135">
        <ele>189.04</ele>
        <time>2014-10-19T08:41:15Z</time>
      </trkpt>
      <trkpt lat="50.10124" lon="3.99137">
        <ele>189.04</ele>
        <time>2014-10-19T08:41:29Z</time>
      </trkpt>
      <trkpt lat="50.10147" lon="3.99141">
        <ele>190.48</ele>
        <time>2014-10-19T08:41:33Z</time>
      </trkpt>
      <trkpt lat="50.10153" lon="3.99143">
        <ele>190.48</ele>
        <time>2014-10-19T08:41:34Z</time>
      </trkpt>
      <trkpt lat="50.10258" lon="3.99161">
        <ele>188.56</ele>
        <time>2014-10-19T08:41:52Z</time>
      </trkpt>
      <trkpt lat="50.10329" lon="3.99156">
        <ele>188.08</ele>
        <time>2014-10-19T08:42:04Z</time>
      </trkpt>
      <trkpt lat="50.10385" lon="3.99177">
        <ele>188.08</ele>
        <time>2014-10-19T08:42:15Z</time>
      </trkpt>
      <trkpt lat="50.1039" lon="3.99179">
        <ele>188.08</ele>
        <time>2014-10-19T08:42:16Z</time>
      </trkpt>
      <trkpt lat="50.10395" lon="3.99182">
        <ele>188.08</ele>
        <time>2014-10-19T08:42:17Z</time>
      </trkpt>
      <trkpt lat="50.10399" lon="3.99183">
        <ele>188.08</ele>
        <time>2014-10-19T08:42:18Z</time>
      </trkpt>
      <trkpt lat="50.10403" lon="3.99181">
        <ele>188.08</ele>
        <time>2014-10-19T08:42:19Z</time>
      </trkpt>
      <trkpt lat="50.10406" lon="3.99177">
        <ele>188.08</ele>
        <time>2014-10-19T08:42:20Z</time>
      </trkpt>
      <trkpt lat="50.10408" lon="3.99172">
        <ele>188.08</ele>
        <time>2014-10-19T08:42:21Z</time>
      </trkpt>
      <trkpt lat="50.1041" lon="3.99166">
        <ele>188.08</ele>
        <time>2014-10-19T08:42:22Z</time>
      </trkpt>
      <trkpt lat="50.10416" lon="3.99142">
        <ele>189.52</ele>
        <time>2014-10-19T08:42:26Z</time>
      </trkpt>
      <trkpt lat="50.10426" lon="3.99097">
        <ele>190.48</ele>
        <time>2014-10-19T08:42:33Z</time>
      </trkpt>
      <trkpt lat="50.10427" lon="3.9909">
        <ele>190.96</ele>
        <time>2014-10-19T08:42:34Z</time>
      </trkpt>
      <trkpt lat="50.10455" lon="3.98991">
        <ele>192.4</ele>
        <time>2014-10-19T08:42:49Z</time>
      </trkpt>
      <trkpt lat="50.10503" lon="3.98892">
        <ele>193.84</ele>
        <time>2014-10-19T08:43:08Z</time>
      </trkpt>
      <trkpt lat="50.10511" lon="3.98875">
        <ele>193.84</ele>
        <time>2014-10-19T08:43:11Z</time>
      </trkpt>
      <trkpt lat="50.10555" lon="3.98783">
        <ele>196.25</ele>
        <time>2014-10-19T08:43:28Z</time>
      </trkpt>
      <trkpt lat="50.1057" lon="3.98749">
        <ele>197.21</ele>
        <time>2014-10-19T08:43:37Z</time>
      </trkpt>
      <trkpt lat="50.10627" lon="3.9866">
        <ele>197.69</ele>
        <time>2014-10-19T08:43:54Z</time>
      </trkpt>
      <trkpt lat="50.10636" lon="3.98639">
        <ele>196.25</ele>
        <time>2014-10-19T08:43:57Z</time>
      </trkpt>
      <trkpt lat="50.10646" lon="3.98617">
        <ele>196.25</ele>
        <time>2014-10-19T08:44:00Z</time>
      </trkpt>
      <trkpt lat="50.10686" lon="3.98474">
        <ele>193.36</ele>
        <time>2014-10-19T08:44:17Z</time>
      </trkpt>
      <trkpt lat="50.10693" lon="3.98429">
        <ele>192.4</ele>
        <time>2014-10-19T08:44:22Z</time>
      </trkpt>
      <trkpt lat="50.10694" lon="3.9842">
        <ele>192.4</ele>
        <time>2014-10-19T08:44:23Z</time>
      </trkpt>
      <trkpt lat="50.10694" lon="3.98411">
        <ele>192.4</ele>
        <time>2014-10-19T08:44:24Z</time>
      </trkpt>
      <trkpt lat="50.10693" lon="3.98401">
        <ele>192.4</ele>
        <time>2014-10-19T08:44:25Z</time>
      </trkpt>
      <trkpt lat="50.10692" lon="3.98392">
        <ele>192.4</ele>
        <time>2014-10-19T08:44:26Z</time>
      </trkpt>
      <trkpt lat="50.10683" lon="3.98326">
        <ele>191.92</ele>
        <time>2014-10-19T08:44:33Z</time>
      </trkpt>
      <trkpt lat="50.10683" lon="3.98316">
        <ele>191.92</ele>
        <time>2014-10-19T08:44:34Z</time>
      </trkpt>
      <trkpt lat="50.10684" lon="3.98306">
        <ele>191.92</ele>
        <time>2014-10-19T08:44:35Z</time>
      </trkpt>
      <trkpt lat="50.10715" lon="3.98174">
        <ele>191.44</ele>
        <time>2014-10-19T08:44:50Z</time>
      </trkpt>
      <trkpt lat="50.10718" lon="3.98166">
        <ele>190.96</ele>
        <time>2014-10-19T08:44:51Z</time>
      </trkpt>
      <trkpt lat="50.10722" lon="3.98159">
        <ele>190.96</ele>
        <time>2014-10-19T08:44:52Z</time>
      </trkpt>
      <trkpt lat="50.10798" lon="3.98069">
        <ele>189.52</ele>
        <time>2014-10-19T08:45:07Z</time>
      </trkpt>
      <trkpt lat="50.1088" lon="3.97977">
        <ele>188.56</ele>
        <time>2014-10-19T08:45:22Z</time>
      </trkpt>
      <trkpt lat="50.10951" lon="3.9789">
        <ele>185.67</ele>
        <time>2014-10-19T08:45:35Z</time>
      </trkpt>
      <trkpt lat="50.10971" lon="3.97868">
        <ele>185.19</ele>
        <time>2014-10-19T08:45:39Z</time>
      </trkpt>
      <trkpt lat="50.10976" lon="3.97868">
        <ele>185.19</ele>
        <time>2014-10-19T08:45:40Z</time>
      </trkpt>
      <trkpt lat="50.1098" lon="3.97869">
        <ele>184.23</ele>
        <time>2014-10-19T08:45:41Z</time>
      </trkpt>
      <trkpt lat="50.10982" lon="3.97872">
        <ele>184.23</ele>
        <time>2014-10-19T08:45:42Z</time>
      </trkpt>
      <trkpt lat="50.10985" lon="3.97877">
        <ele>184.23</ele>
        <time>2014-10-19T08:45:43Z</time>
      </trkpt>
      <trkpt lat="50.10988" lon="3.97883">
        <ele>184.23</ele>
        <time>2014-10-19T08:45:44Z</time>
      </trkpt>
      <trkpt lat="50.10991" lon="3.97888">
        <ele>184.23</ele>
        <time>2014-10-19T08:45:45Z</time>
      </trkpt>
      <trkpt lat="50.10995" lon="3.97894">
        <ele>183.75</ele>
        <time>2014-10-19T08:45:46Z</time>
      </trkpt>
      <trkpt lat="50.10999" lon="3.979">
        <ele>183.27</ele>
        <time>2014-10-19T08:45:47Z</time>
      </trkpt>
      <trkpt lat="50.11062" lon="3.97972">
        <ele>181.35</ele>
        <time>2014-10-19T08:45:59Z</time>
      </trkpt>
      <trkpt lat="50.11104" lon="3.98025">
        <ele>177.98</ele>
        <time>2014-10-19T08:46:11Z</time>
      </trkpt>
      <trkpt lat="50.1112" lon="3.98045">
        <ele>176.06</ele>
        <time>2014-10-19T08:46:17Z</time>
      </trkpt>
      <trkpt lat="50.11135" lon="3.98064">
        <ele>172.69</ele>
        <time>2014-10-19T08:46:22Z</time>
      </trkpt>
      <trkpt lat="50.11158" lon="3.98092">
        <ele>169.33</ele>
        <time>2014-10-19T08:46:30Z</time>
      </trkpt>
      <trkpt lat="50.11168" lon="3.98104">
        <ele>168.85</ele>
        <time>2014-10-19T08:46:33Z</time>
      </trkpt>
      <trkpt lat="50.1118" lon="3.98117">
        <ele>167.89</ele>
        <time>2014-10-19T08:46:36Z</time>
      </trkpt>
      <trkpt lat="50.11184" lon="3.98121">
        <ele>167.41</ele>
        <time>2014-10-19T08:46:37Z</time>
      </trkpt>
      <trkpt lat="50.11204" lon="3.98141">
        <ele>165.96</ele>
        <time>2014-10-19T08:46:46Z</time>
      </trkpt>
      <trkpt lat="50.11222" lon="3.98168">
        <ele>165.48</ele>
        <time>2014-10-19T08:47:00Z</time>
      </trkpt>
      <trkpt lat="50.1124" lon="3.98207">
        <ele>166.93</ele>
        <time>2014-10-19T08:47:15Z</time>
      </trkpt>
      <trkpt lat="50.11261" lon="3.98254">
        <ele>168.37</ele>
        <time>2014-10-19T08:47:28Z</time>
      </trkpt>
      <trkpt lat="50.11281" lon="3.98304">
        <ele>170.29</ele>
        <time>2014-10-19T08:47:42Z</time>
      </trkpt>
      <trkpt lat="50.113" lon="3.98351">
        <ele>172.21</ele>
        <time>2014-10-19T08:47:55Z</time>
      </trkpt>
      <trkpt lat="50.11323" lon="3.98405">
        <ele>173.17</ele>
        <time>2014-10-19T08:48:10Z</time>
      </trkpt>
      <trkpt lat="50.11354" lon="3.98476">
        <ele>173.66</ele>
        <time>2014-10-19T08:48:26Z</time>
      </trkpt>
      <trkpt lat="50.11393" lon="3.98557">
        <ele>173.66</ele>
        <time>2014-10-19T08:48:42Z</time>
      </trkpt>
      <trkpt lat="50.1144" lon="3.98651">
        <ele>171.73</ele>
        <time>2014-10-19T08:48:57Z</time>
      </trkpt>
      <trkpt lat="50.11449" lon="3.98664">
        <ele>171.25</ele>
        <time>2014-10-19T08:49:00Z</time>
      </trkpt>
      <trkpt lat="50.11458" lon="3.98678">
        <ele>171.25</ele>
        <time>2014-10-19T08:49:03Z</time>
      </trkpt>
      <trkpt lat="50.11462" lon="3.98683">
        <ele>171.25</ele>
        <time>2014-10-19T08:49:04Z</time>
      </trkpt>
      <trkpt lat="50.11466" lon="3.98686">
        <ele>171.25</ele>
        <time>2014-10-19T08:49:05Z</time>
      </trkpt>
      <trkpt lat="50.1147" lon="3.9869">
        <ele>171.25</ele>
        <time>2014-10-19T08:49:06Z</time>
      </trkpt>
      <trkpt lat="50.11474" lon="3.98694">
        <ele>171.25</ele>
        <time>2014-10-19T08:49:07Z</time>
      </trkpt>
      <trkpt lat="50.11481" lon="3.98702">
        <ele>171.25</ele>
        <time>2014-10-19T08:49:09Z</time>
      </trkpt>
      <trkpt lat="50.11489" lon="3.9871">
        <ele>171.25</ele>
        <time>2014-10-19T08:49:11Z</time>
      </trkpt>
      <trkpt lat="50.11493" lon="3.98713">
        <ele>171.25</ele>
        <time>2014-10-19T08:49:12Z</time>
      </trkpt>
      <trkpt lat="50.1152" lon="3.98734">
        <ele>170.29</ele>
        <time>2014-10-19T08:49:18Z</time>
      </trkpt>
      <trkpt lat="50.11607" lon="3.98782">
        <ele>168.37</ele>
        <time>2014-10-19T08:49:35Z</time>
      </trkpt>
      <trkpt lat="50.11637" lon="3.98798">
        <ele>166.93</ele>
        <time>2014-10-19T08:49:41Z</time>
      </trkpt>
      <trkpt lat="50.11648" lon="3.98808">
        <ele>166.93</ele>
        <time>2014-10-19T08:49:44Z</time>
      </trkpt>
      <trkpt lat="50.1165" lon="3.98813">
        <ele>166.45</ele>
        <time>2014-10-19T08:49:45Z</time>
      </trkpt>
      <trkpt lat="50.11651" lon="3.9882">
        <ele>166.45</ele>
        <time>2014-10-19T08:49:46Z</time>
      </trkpt>
      <trkpt lat="50.11651" lon="3.98826">
        <ele>166.45</ele>
        <time>2014-10-19T08:49:47Z</time>
      </trkpt>
      <trkpt lat="50.11651" lon="3.98832">
        <ele>165.96</ele>
        <time>2014-10-19T08:49:48Z</time>
      </trkpt>
      <trkpt lat="50.11651" lon="3.98839">
        <ele>165.96</ele>
        <time>2014-10-19T08:49:49Z</time>
      </trkpt>
      <trkpt lat="50.11652" lon="3.98846">
        <ele>165.96</ele>
        <time>2014-10-19T08:49:50Z</time>
      </trkpt>
      <trkpt lat="50.11653" lon="3.98853">
        <ele>165.96</ele>
        <time>2014-10-19T08:49:51Z</time>
      </trkpt>
      <trkpt lat="50.11654" lon="3.98861">
        <ele>165.96</ele>
        <time>2014-10-19T08:49:52Z</time>
      </trkpt>
      <trkpt lat="50.11672" lon="3.98962">
        <ele>163.08</ele>
        <time>2014-10-19T08:50:03Z</time>
      </trkpt>
      <trkpt lat="50.11679" lon="3.99054">
        <ele>159.72</ele>
        <time>2014-10-19T08:50:11Z</time>
      </trkpt>
      <trkpt lat="50.1168" lon="3.99066">
        <ele>159.72</ele>
        <time>2014-10-19T08:50:12Z</time>
      </trkpt>
      <trkpt lat="50.11679" lon="3.99155">
        <ele>156.35</ele>
        <time>2014-10-19T08:50:19Z</time>
      </trkpt>
      <trkpt lat="50.11672" lon="3.99206">
        <ele>155.39</ele>
        <time>2014-10-19T08:50:23Z</time>
      </trkpt>
      <trkpt lat="50.11669" lon="3.99217">
        <ele>154.91</ele>
        <time>2014-10-19T08:50:24Z</time>
      </trkpt>
      <trkpt lat="50.11665" lon="3.99228">
        <ele>154.91</ele>
        <time>2014-10-19T08:50:25Z</time>
      </trkpt>
      <trkpt lat="50.1166" lon="3.99238">
        <ele>154.43</ele>
        <time>2014-10-19T08:50:26Z</time>
      </trkpt>
      <trkpt lat="50.11655" lon="3.99247">
        <ele>154.43</ele>
        <time>2014-10-19T08:50:27Z</time>
      </trkpt>
      <trkpt lat="50.1165" lon="3.99255">
        <ele>154.43</ele>
        <time>2014-10-19T08:50:28Z</time>
      </trkpt>
      <trkpt lat="50.11611" lon="3.99304">
        <ele>155.87</ele>
        <time>2014-10-19T08:50:36Z</time>
      </trkpt>
      <trkpt lat="50.11607" lon="3.99309">
        <ele>156.35</ele>
        <time>2014-10-19T08:50:37Z</time>
      </trkpt>
      <trkpt lat="50.11603" lon="3.99315">
        <ele>156.35</ele>
        <time>2014-10-19T08:50:38Z</time>
      </trkpt>
      <trkpt lat="50.11584" lon="3.99344">
        <ele>157.79</ele>
        <time>2014-10-19T08:50:43Z</time>
      </trkpt>
      <trkpt lat="50.1158" lon="3.99351">
        <ele>157.79</ele>
        <time>2014-10-19T08:50:44Z</time>
      </trkpt>
      <trkpt lat="50.11552" lon="3.99467">
        <ele>159.24</ele>
        <time>2014-10-19T08:50:58Z</time>
      </trkpt>
      <trkpt lat="50.11547" lon="3.99524">
        <ele>157.79</ele>
        <time>2014-10-19T08:51:04Z</time>
      </trkpt>
      <trkpt lat="50.11535" lon="3.99678">
        <ele>157.31</ele>
        <time>2014-10-19T08:51:20Z</time>
      </trkpt>
      <trkpt lat="50.11536" lon="3.99687">
        <ele>157.31</ele>
        <time>2014-10-19T08:51:21Z</time>
      </trkpt>
      <trkpt lat="50.11545" lon="3.99819">
        <ele>155.87</ele>
        <time>2014-10-19T08:51:38Z</time>
      </trkpt>
      <trkpt lat="50.11547" lon="3.99839">
        <ele>155.87</ele>
        <time>2014-10-19T08:51:47Z</time>
      </trkpt>
      <trkpt lat="50.11547" lon="3.99841">
        <ele>154.91</ele>
        <time>2014-10-19T08:52:00Z</time>
      </trkpt>
      <trkpt lat="50.11547" lon="3.99839">
        <ele>154.91</ele>
        <time>2014-10-19T08:52:27Z</time>
      </trkpt>
      <trkpt lat="50.11546" lon="3.9984">
        <ele>154.91</ele>
        <time>2014-10-19T08:52:59Z</time>
      </trkpt>
      <trkpt lat="50.11544" lon="3.99838">
        <ele>154.43</ele>
        <time>2014-10-19T08:53:30Z</time>
      </trkpt>
      <trkpt lat="50.11545" lon="3.99839">
        <ele>154.43</ele>
        <time>2014-10-19T08:54:02Z</time>
      </trkpt>
      <trkpt lat="50.11546" lon="3.9984">
        <ele>154.43</ele>
        <time>2014-10-19T08:54:27Z</time>
      </trkpt>
      <trkpt lat="50.11548" lon="3.99841">
        <ele>154.43</ele>
        <time>2014-10-19T08:55:01Z</time>
      </trkpt>
      <trkpt lat="50.11548" lon="3.9984">
        <ele>154.43</ele>
        <time>2014-10-19T08:55:35Z</time>
      </trkpt>
      <trkpt lat="50.11548" lon="3.9984">
        <ele>154.43</ele>
        <time>2014-10-19T08:56:06Z</time>
      </trkpt>
      <trkpt lat="50.1155" lon="3.99842">
        <ele>154.43</ele>
        <time>2014-10-19T08:56:34Z</time>
      </trkpt>
      <trkpt lat="50.11552" lon="3.99845">
        <ele>154.43</ele>
        <time>2014-10-19T08:57:05Z</time>
      </trkpt>
      <trkpt lat="50.11551" lon="3.99847">
        <ele>154.43</ele>
        <time>2014-10-19T08:57:26Z</time>
      </trkpt>
      <trkpt lat="50.1155" lon="3.99851">
        <ele>154.43</ele>
        <time>2014-10-19T08:57:29Z</time>
      </trkpt>
      <trkpt lat="50.1155" lon="3.99853">
        <ele>154.43</ele>
        <time>2014-10-19T08:57:30Z</time>
      </trkpt>
      <trkpt lat="50.1155" lon="3.9986">
        <ele>155.87</ele>
        <time>2014-10-19T08:57:34Z</time>
      </trkpt>
      <trkpt lat="50.1155" lon="3.99863">
        <ele>155.87</ele>
        <time>2014-10-19T08:57:35Z</time>
      </trkpt>
      <trkpt lat="50.11549" lon="3.99867">
        <ele>155.87</ele>
        <time>2014-10-19T08:57:36Z</time>
      </trkpt>
      <trkpt lat="50.11549" lon="3.99871">
        <ele>156.35</ele>
        <time>2014-10-19T08:57:37Z</time>
      </trkpt>
      <trkpt lat="50.11549" lon="3.99875">
        <ele>156.35</ele>
        <time>2014-10-19T08:57:38Z</time>
      </trkpt>
      <trkpt lat="50.11549" lon="3.99879">
        <ele>156.35</ele>
        <time>2014-10-19T08:57:39Z</time>
      </trkpt>
      <trkpt lat="50.11549" lon="3.99883">
        <ele>156.35</ele>
        <time>2014-10-19T08:57:40Z</time>
      </trkpt>
      <trkpt lat="50.11549" lon="3.99888">
        <ele>156.35</ele>
        <time>2014-10-19T08:57:41Z</time>
      </trkpt>
      <trkpt lat="50.11549" lon="3.99893">
        <ele>156.83</ele>
        <time>2014-10-19T08:57:42Z</time>
      </trkpt>
      <trkpt lat="50.11549" lon="3.99897">
        <ele>156.83</ele>
        <time>2014-10-19T08:57:43Z</time>
      </trkpt>
      <trkpt lat="50.11549" lon="3.99902">
        <ele>156.83</ele>
        <time>2014-10-19T08:57:44Z</time>
      </trkpt>
      <trkpt lat="50.11547" lon="3.99961">
        <ele>158.27</ele>
        <time>2014-10-19T08:57:56Z</time>
      </trkpt>
      <trkpt lat="50.11543" lon="3.9999">
        <ele>159.24</ele>
        <time>2014-10-19T08:58:03Z</time>
      </trkpt>
      <trkpt lat="50.11542" lon="3.99994">
        <ele>159.24</ele>
        <time>2014-10-19T08:58:04Z</time>
      </trkpt>
      <trkpt lat="50.11542" lon="3.99997">
        <ele>159.24</ele>
        <time>2014-10-19T08:58:14Z</time>
      </trkpt>
      <trkpt lat="50.11542" lon="3.99997">
        <ele>159.24</ele>
        <time>2014-10-19T08:58:22Z</time>
      </trkpt>
      <trkpt lat="50.11543" lon="4">
        <ele>159.24</ele>
        <time>2014-10-19T08:58:23Z</time>
      </trkpt>
      <trkpt lat="50.11544" lon="4.00002">
        <ele>159.24</ele>
        <time>2014-10-19T08:58:24Z</time>
      </trkpt>
      <trkpt lat="50.11544" lon="4.00031">
        <ele>157.31</ele>
        <time>2014-10-19T08:58:29Z</time>
      </trkpt>
      <trkpt lat="50.11544" lon="4.00039">
        <ele>157.31</ele>
        <time>2014-10-19T08:58:30Z</time>
      </trkpt>
      <trkpt lat="50.11545" lon="4.00073">
        <ele>156.35</ele>
        <time>2014-10-19T08:58:34Z</time>
      </trkpt>
      <trkpt lat="50.11546" lon="4.00081">
        <ele>156.35</ele>
        <time>2014-10-19T08:58:35Z</time>
      </trkpt>
      <trkpt lat="50.11549" lon="4.00088">
        <ele>156.35</ele>
        <time>2014-10-19T08:58:36Z</time>
      </trkpt>
      <trkpt lat="50.11553" lon="4.00095">
        <ele>155.87</ele>
        <time>2014-10-19T08:58:37Z</time>
      </trkpt>
      <trkpt lat="50.11557" lon="4.00101">
        <ele>155.87</ele>
        <time>2014-10-19T08:58:38Z</time>
      </trkpt>
      <trkpt lat="50.11562" lon="4.00107">
        <ele>155.39</ele>
        <time>2014-10-19T08:58:39Z</time>
      </trkpt>
      <trkpt lat="50.11624" lon="4.00192">
        <ele>152.99</ele>
        <time>2014-10-19T08:58:53Z</time>
      </trkpt>
      <trkpt lat="50.11638" lon="4.00207">
        <ele>153.47</ele>
        <time>2014-10-19T08:58:56Z</time>
      </trkpt>
      <trkpt lat="50.11643" lon="4.0021">
        <ele>152.99</ele>
        <time>2014-10-19T08:58:57Z</time>
      </trkpt>
      <trkpt lat="50.11708" lon="4.00226">
        <ele>152.51</ele>
        <time>2014-10-19T08:59:08Z</time>
      </trkpt>
      <trkpt lat="50.11738" lon="4.0023">
        <ele>151.54</ele>
        <time>2014-10-19T08:59:13Z</time>
      </trkpt>
      <trkpt lat="50.11817" lon="4.00201">
        <ele>151.54</ele>
        <time>2014-10-19T08:59:27Z</time>
      </trkpt>
      <trkpt lat="50.11822" lon="4.00196">
        <ele>151.54</ele>
        <time>2014-10-19T08:59:28Z</time>
      </trkpt>
      <trkpt lat="50.11904" lon="4.00114">
        <ele>151.54</ele>
        <time>2014-10-19T08:59:45Z</time>
      </trkpt>
      <trkpt lat="50.11921" lon="4.00097">
        <ele>151.54</ele>
        <time>2014-10-19T08:59:49Z</time>
      </trkpt>
      <trkpt lat="50.11926" lon="4.00094">
        <ele>151.54</ele>
        <time>2014-10-19T08:59:50Z</time>
      </trkpt>
      <trkpt lat="50.11931" lon="4.00091">
        <ele>151.54</ele>
        <time>2014-10-19T08:59:51Z</time>
      </trkpt>
      <trkpt lat="50.11989" lon="4.00057">
        <ele>151.54</ele>
        <time>2014-10-19T09:00:03Z</time>
      </trkpt>
      <trkpt lat="50.11994" lon="4.00056">
        <ele>151.54</ele>
        <time>2014-10-19T09:00:04Z</time>
      </trkpt>
      <trkpt lat="50.11998" lon="4.00057">
        <ele>151.54</ele>
        <time>2014-10-19T09:00:05Z</time>
      </trkpt>
      <trkpt lat="50.12002" lon="4.0006">
        <ele>151.54</ele>
        <time>2014-10-19T09:00:06Z</time>
      </trkpt>
      <trkpt lat="50.12005" lon="4.00065">
        <ele>151.54</ele>
        <time>2014-10-19T09:00:07Z</time>
      </trkpt>
      <trkpt lat="50.12008" lon="4.00071">
        <ele>151.54</ele>
        <time>2014-10-19T09:00:08Z</time>
      </trkpt>
      <trkpt lat="50.1201" lon="4.00078">
        <ele>151.54</ele>
        <time>2014-10-19T09:00:09Z</time>
      </trkpt>
      <trkpt lat="50.12023" lon="4.00124">
        <ele>151.54</ele>
        <time>2014-10-19T09:00:15Z</time>
      </trkpt>
      <trkpt lat="50.12025" lon="4.0014">
        <ele>151.54</ele>
        <time>2014-10-19T09:00:17Z</time>
      </trkpt>
      <trkpt lat="50.12037" lon="4.00237">
        <ele>152.03</ele>
        <time>2014-10-19T09:00:29Z</time>
      </trkpt>
      <trkpt lat="50.12052" lon="4.00347">
        <ele>154.91</ele>
        <time>2014-10-19T09:00:44Z</time>
      </trkpt>
      <trkpt lat="50.12073" lon="4.00483">
        <ele>155.39</ele>
        <time>2014-10-19T09:01:03Z</time>
      </trkpt>
      <trkpt lat="50.12077" lon="4.00512">
        <ele>153.95</ele>
        <time>2014-10-19T09:01:06Z</time>
      </trkpt>
      <trkpt lat="50.12078" lon="4.00522">
        <ele>152.99</ele>
        <time>2014-10-19T09:01:07Z</time>
      </trkpt>
      <trkpt lat="50.12082" lon="4.00614">
        <ele>152.51</ele>
        <time>2014-10-19T09:01:17Z</time>
      </trkpt>
      <trkpt lat="50.12084" lon="4.00621">
        <ele>152.51</ele>
        <time>2014-10-19T09:01:18Z</time>
      </trkpt>
      <trkpt lat="50.12088" lon="4.00625">
        <ele>152.51</ele>
        <time>2014-10-19T09:01:19Z</time>
      </trkpt>
      <trkpt lat="50.12093" lon="4.00626">
        <ele>152.51</ele>
        <time>2014-10-19T09:01:20Z</time>
      </trkpt>
      <trkpt lat="50.12097" lon="4.00624">
        <ele>152.51</ele>
        <time>2014-10-19T09:01:21Z</time>
      </trkpt>
      <trkpt lat="50.12101" lon="4.00621">
        <ele>152.51</ele>
        <time>2014-10-19T09:01:22Z</time>
      </trkpt>
      <trkpt lat="50.12104" lon="4.00617">
        <ele>152.51</ele>
        <time>2014-10-19T09:01:23Z</time>
      </trkpt>
      <trkpt lat="50.12118" lon="4.00601">
        <ele>152.51</ele>
        <time>2014-10-19T09:01:27Z</time>
      </trkpt>
      <trkpt lat="50.12122" lon="4.00598">
        <ele>152.51</ele>
        <time>2014-10-19T09:01:28Z</time>
      </trkpt>
      <trkpt lat="50.12132" lon="4.00586">
        <ele>154.43</ele>
        <time>2014-10-19T09:01:31Z</time>
      </trkpt>
      <trkpt lat="50.1214" lon="4.00578">
        <ele>154.91</ele>
        <time>2014-10-19T09:01:33Z</time>
      </trkpt>
      <trkpt lat="50.12185" lon="4.00513">
        <ele>157.31</ele>
        <time>2014-10-19T09:01:49Z</time>
      </trkpt>
      <trkpt lat="50.12185" lon="4.00507">
        <ele>157.31</ele>
        <time>2014-10-19T09:01:50Z</time>
      </trkpt>
      <trkpt lat="50.12185" lon="4.00501">
        <ele>157.31</ele>
        <time>2014-10-19T09:01:51Z</time>
      </trkpt>
      <trkpt lat="50.12186" lon="4.00495">
        <ele>157.31</ele>
        <time>2014-10-19T09:01:52Z</time>
      </trkpt>
      <trkpt lat="50.12187" lon="4.00489">
        <ele>157.31</ele>
        <time>2014-10-19T09:01:53Z</time>
      </trkpt>
      <trkpt lat="50.12189" lon="4.00484">
        <ele>157.31</ele>
        <time>2014-10-19T09:01:54Z</time>
      </trkpt>
      <trkpt lat="50.1219" lon="4.00479">
        <ele>157.31</ele>
        <time>2014-10-19T09:01:55Z</time>
      </trkpt>
      <trkpt lat="50.12222" lon="4.00438">
        <ele>159.24</ele>
        <time>2014-10-19T09:02:07Z</time>
      </trkpt>
      <trkpt lat="50.12245" lon="4.00417">
        <ele>159.72</ele>
        <time>2014-10-19T09:02:18Z</time>
      </trkpt>
      <trkpt lat="50.12267" lon="4.00404">
        <ele>159.72</ele>
        <time>2014-10-19T09:02:30Z</time>
      </trkpt>
      <trkpt lat="50.1228" lon="4.00396">
        <ele>158.27</ele>
        <time>2014-10-19T09:02:33Z</time>
      </trkpt>
      <trkpt lat="50.12284" lon="4.00394">
        <ele>158.27</ele>
        <time>2014-10-19T09:02:34Z</time>
      </trkpt>
      <trkpt lat="50.12307" lon="4.00383">
        <ele>157.79</ele>
        <time>2014-10-19T09:02:39Z</time>
      </trkpt>
      <trkpt lat="50.12312" lon="4.00383">
        <ele>157.79</ele>
        <time>2014-10-19T09:02:40Z</time>
      </trkpt>
      <trkpt lat="50.12317" lon="4.00385">
        <ele>157.31</ele>
        <time>2014-10-19T09:02:41Z</time>
      </trkpt>
      <trkpt lat="50.12322" lon="4.00386">
        <ele>157.31</ele>
        <time>2014-10-19T09:02:42Z</time>
      </trkpt>
      <trkpt lat="50.12327" lon="4.00387">
        <ele>157.31</ele>
        <time>2014-10-19T09:02:43Z</time>
      </trkpt>
      <trkpt lat="50.12332" lon="4.00388">
        <ele>157.31</ele>
        <time>2014-10-19T09:02:44Z</time>
      </trkpt>
      <trkpt lat="50.12337" lon="4.00389">
        <ele>157.31</ele>
        <time>2014-10-19T09:02:45Z</time>
      </trkpt>
      <trkpt lat="50.12341" lon="4.00389">
        <ele>157.31</ele>
        <time>2014-10-19T09:02:46Z</time>
      </trkpt>
      <trkpt lat="50.12346" lon="4.00388">
        <ele>157.31</ele>
        <time>2014-10-19T09:02:47Z</time>
      </trkpt>
      <trkpt lat="50.1235" lon="4.00387">
        <ele>157.31</ele>
        <time>2014-10-19T09:02:48Z</time>
      </trkpt>
      <trkpt lat="50.12355" lon="4.00387">
        <ele>157.31</ele>
        <time>2014-10-19T09:02:49Z</time>
      </trkpt>
      <trkpt lat="50.12359" lon="4.00387">
        <ele>157.31</ele>
        <time>2014-10-19T09:02:50Z</time>
      </trkpt>
      <trkpt lat="50.12364" lon="4.00386">
        <ele>157.31</ele>
        <time>2014-10-19T09:02:51Z</time>
      </trkpt>
      <trkpt lat="50.12421" lon="4.00394">
        <ele>157.31</ele>
        <time>2014-10-19T09:03:02Z</time>
      </trkpt>
      <trkpt lat="50.12426" lon="4.00395">
        <ele>158.75</ele>
        <time>2014-10-19T09:03:03Z</time>
      </trkpt>
      <trkpt lat="50.12431" lon="4.00396">
        <ele>158.75</ele>
        <time>2014-10-19T09:03:04Z</time>
      </trkpt>
      <trkpt lat="50.12473" lon="4.00409">
        <ele>158.75</ele>
        <time>2014-10-19T09:03:15Z</time>
      </trkpt>
      <trkpt lat="50.12515" lon="4.00428">
        <ele>158.75</ele>
        <time>2014-10-19T09:03:26Z</time>
      </trkpt>
      <trkpt lat="50.12565" lon="4.00446">
        <ele>158.75</ele>
        <time>2014-10-19T09:03:40Z</time>
      </trkpt>
      <trkpt lat="50.12606" lon="4.00463">
        <ele>159.24</ele>
        <time>2014-10-19T09:03:52Z</time>
      </trkpt>
      <trkpt lat="50.12646" lon="4.00478">
        <ele>159.72</ele>
        <time>2014-10-19T09:04:04Z</time>
      </trkpt>
      <trkpt lat="50.12683" lon="4.00493">
        <ele>160.68</ele>
        <time>2014-10-19T09:04:15Z</time>
      </trkpt>
      <trkpt lat="50.12721" lon="4.00508">
        <ele>161.16</ele>
        <time>2014-10-19T09:04:27Z</time>
      </trkpt>
      <trkpt lat="50.12735" lon="4.00515">
        <ele>161.64</ele>
        <time>2014-10-19T09:04:32Z</time>
      </trkpt>
      <trkpt lat="50.12739" lon="4.00515">
        <ele>161.64</ele>
        <time>2014-10-19T09:04:33Z</time>
      </trkpt>
      <trkpt lat="50.12742" lon="4.00516">
        <ele>161.64</ele>
        <time>2014-10-19T09:04:34Z</time>
      </trkpt>
      <trkpt lat="50.12745" lon="4.00516">
        <ele>161.64</ele>
        <time>2014-10-19T09:04:35Z</time>
      </trkpt>
      <trkpt lat="50.12749" lon="4.00517">
        <ele>162.12</ele>
        <time>2014-10-19T09:04:36Z</time>
      </trkpt>
      <trkpt lat="50.12759" lon="4.00525">
        <ele>162.12</ele>
        <time>2014-10-19T09:04:40Z</time>
      </trkpt>
      <trkpt lat="50.1279" lon="4.00533">
        <ele>163.08</ele>
        <time>2014-10-19T09:04:53Z</time>
      </trkpt>
      <trkpt lat="50.12819" lon="4.00547">
        <ele>164.04</ele>
        <time>2014-10-19T09:05:04Z</time>
      </trkpt>
      <trkpt lat="50.12851" lon="4.00557">
        <ele>164.04</ele>
        <time>2014-10-19T09:05:15Z</time>
      </trkpt>
      <trkpt lat="50.12891" lon="4.00574">
        <ele>164.52</ele>
        <time>2014-10-19T09:05:27Z</time>
      </trkpt>
      <trkpt lat="50.1293" lon="4.00592">
        <ele>164.52</ele>
        <time>2014-10-19T09:05:38Z</time>
      </trkpt>
      <trkpt lat="50.12967" lon="4.00608">
        <ele>164.52</ele>
        <time>2014-10-19T09:05:47Z</time>
      </trkpt>
      <trkpt lat="50.13011" lon="4.00624">
        <ele>164.52</ele>
        <time>2014-10-19T09:05:58Z</time>
      </trkpt>
      <trkpt lat="50.13059" lon="4.00644">
        <ele>164.52</ele>
        <time>2014-10-19T09:06:09Z</time>
      </trkpt>
      <trkpt lat="50.13084" lon="4.00655">
        <ele>164.52</ele>
        <time>2014-10-19T09:06:15Z</time>
      </trkpt>
      <trkpt lat="50.13133" lon="4.00678">
        <ele>164.52</ele>
        <time>2014-10-19T09:06:27Z</time>
      </trkpt>
      <trkpt lat="50.13173" lon="4.00709">
        <ele>165</ele>
        <time>2014-10-19T09:06:38Z</time>
      </trkpt>
      <trkpt lat="50.1321" lon="4.0075">
        <ele>165</ele>
        <time>2014-10-19T09:06:50Z</time>
      </trkpt>
      <trkpt lat="50.13232" lon="4.00782">
        <ele>165</ele>
        <time>2014-10-19T09:06:58Z</time>
      </trkpt>
      <trkpt lat="50.13255" lon="4.00823">
        <ele>165</ele>
        <time>2014-10-19T09:07:08Z</time>
      </trkpt>
      <trkpt lat="50.13289" lon="4.00878">
        <ele>165</ele>
        <time>2014-10-19T09:07:19Z</time>
      </trkpt>
      <trkpt lat="50.1334" lon="4.00959">
        <ele>165</ele>
        <time>2014-10-19T09:07:35Z</time>
      </trkpt>
      <trkpt lat="50.13365" lon="4.01015">
        <ele>165</ele>
        <time>2014-10-19T09:07:46Z</time>
      </trkpt>
      <trkpt lat="50.13391" lon="4.01068">
        <ele>165</ele>
        <time>2014-10-19T09:07:56Z</time>
      </trkpt>
      <trkpt lat="50.13418" lon="4.01126">
        <ele>165</ele>
        <time>2014-10-19T09:08:07Z</time>
      </trkpt>
      <trkpt lat="50.13429" lon="4.0115">
        <ele>165</ele>
        <time>2014-10-19T09:08:11Z</time>
      </trkpt>
      <trkpt lat="50.13457" lon="4.01205">
        <ele>163.56</ele>
        <time>2014-10-19T09:08:21Z</time>
      </trkpt>
      <trkpt lat="50.13482" lon="4.01247">
        <ele>164.04</ele>
        <time>2014-10-19T09:08:32Z</time>
      </trkpt>
      <trkpt lat="50.13511" lon="4.01295">
        <ele>165</ele>
        <time>2014-10-19T09:08:44Z</time>
      </trkpt>
      <trkpt lat="50.13533" lon="4.0133">
        <ele>165</ele>
        <time>2014-10-19T09:08:54Z</time>
      </trkpt>
      <trkpt lat="50.13563" lon="4.01375">
        <ele>165</ele>
        <time>2014-10-19T09:09:06Z</time>
      </trkpt>
      <trkpt lat="50.13582" lon="4.01409">
        <ele>165.48</ele>
        <time>2014-10-19T09:09:17Z</time>
      </trkpt>
      <trkpt lat="50.136" lon="4.01445">
        <ele>166.45</ele>
        <time>2014-10-19T09:09:27Z</time>
      </trkpt>
      <trkpt lat="50.13623" lon="4.01488">
        <ele>166.45</ele>
        <time>2014-10-19T09:09:38Z</time>
      </trkpt>
      <trkpt lat="50.13645" lon="4.01523">
        <ele>166.93</ele>
        <time>2014-10-19T09:09:49Z</time>
      </trkpt>
      <trkpt lat="50.13665" lon="4.01562">
        <ele>167.41</ele>
        <time>2014-10-19T09:10:01Z</time>
      </trkpt>
      <trkpt lat="50.13688" lon="4.01594">
        <ele>167.41</ele>
        <time>2014-10-19T09:10:11Z</time>
      </trkpt>
      <trkpt lat="50.1371" lon="4.01629">
        <ele>167.41</ele>
        <time>2014-10-19T09:10:20Z</time>
      </trkpt>
      <trkpt lat="50.13722" lon="4.01643">
        <ele>167.41</ele>
        <time>2014-10-19T09:10:23Z</time>
      </trkpt>
      <trkpt lat="50.13737" lon="4.01658">
        <ele>167.41</ele>
        <time>2014-10-19T09:10:27Z</time>
      </trkpt>
      <trkpt lat="50.13768" lon="4.01697">
        <ele>167.89</ele>
        <time>2014-10-19T09:10:40Z</time>
      </trkpt>
      <trkpt lat="50.13766" lon="4.01719">
        <ele>169.33</ele>
        <time>2014-10-19T09:10:53Z</time>
      </trkpt>
      <trkpt lat="50.13767" lon="4.0172">
        <ele>169.33</ele>
        <time>2014-10-19T09:11:07Z</time>
      </trkpt>
      <trkpt lat="50.13768" lon="4.01719">
        <ele>169.33</ele>
        <time>2014-10-19T09:11:14Z</time>
      </trkpt>
      <trkpt lat="50.1379" lon="4.01742">
        <ele>169.81</ele>
        <time>2014-10-19T09:11:26Z</time>
      </trkpt>
      <trkpt lat="50.13826" lon="4.01756">
        <ele>168.37</ele>
        <time>2014-10-19T09:11:38Z</time>
      </trkpt>
      <trkpt lat="50.13864" lon="4.01809">
        <ele>168.37</ele>
        <time>2014-10-19T09:11:50Z</time>
      </trkpt>
      <trkpt lat="50.13867" lon="4.01815">
        <ele>168.37</ele>
        <time>2014-10-19T09:11:51Z</time>
      </trkpt>
      <trkpt lat="50.13869" lon="4.0182">
        <ele>168.37</ele>
        <time>2014-10-19T09:11:52Z</time>
      </trkpt>
      <trkpt lat="50.13881" lon="4.0184">
        <ele>168.37</ele>
        <time>2014-10-19T09:11:56Z</time>
      </trkpt>
      <trkpt lat="50.13883" lon="4.01846">
        <ele>168.37</ele>
        <time>2014-10-19T09:11:57Z</time>
      </trkpt>
      <trkpt lat="50.13899" lon="4.01906">
        <ele>168.37</ele>
        <time>2014-10-19T09:12:08Z</time>
      </trkpt>
      <trkpt lat="50.139" lon="4.01912">
        <ele>168.37</ele>
        <time>2014-10-19T09:12:09Z</time>
      </trkpt>
      <trkpt lat="50.13905" lon="4.01938">
        <ele>169.81</ele>
        <time>2014-10-19T09:12:13Z</time>
      </trkpt>
      <trkpt lat="50.13906" lon="4.01944">
        <ele>169.81</ele>
        <time>2014-10-19T09:12:14Z</time>
      </trkpt>
      <trkpt lat="50.13914" lon="4.01999">
        <ele>170.29</ele>
        <time>2014-10-19T09:12:24Z</time>
      </trkpt>
      <trkpt lat="50.13917" lon="4.02066">
        <ele>170.29</ele>
        <time>2014-10-19T09:12:35Z</time>
      </trkpt>
      <trkpt lat="50.13933" lon="4.0216">
        <ele>170.29</ele>
        <time>2014-10-19T09:12:49Z</time>
      </trkpt>
      <trkpt lat="50.13954" lon="4.02247">
        <ele>171.25</ele>
        <time>2014-10-19T09:13:04Z</time>
      </trkpt>
      <trkpt lat="50.13989" lon="4.02313">
        <ele>171.73</ele>
        <time>2014-10-19T09:13:18Z</time>
      </trkpt>
      <trkpt lat="50.14005" lon="4.02324">
        <ele>171.73</ele>
        <time>2014-10-19T09:13:22Z</time>
      </trkpt>
      <trkpt lat="50.14009" lon="4.02329">
        <ele>171.73</ele>
        <time>2014-10-19T09:13:23Z</time>
      </trkpt>
      <trkpt lat="50.14025" lon="4.02354">
        <ele>171.73</ele>
        <time>2014-10-19T09:13:28Z</time>
      </trkpt>
      <trkpt lat="50.14028" lon="4.0236">
        <ele>171.73</ele>
        <time>2014-10-19T09:13:29Z</time>
      </trkpt>
      <trkpt lat="50.14066" lon="4.02419">
        <ele>171.73</ele>
        <time>2014-10-19T09:13:40Z</time>
      </trkpt>
      <trkpt lat="50.14119" lon="4.02493">
        <ele>171.73</ele>
        <time>2014-10-19T09:13:57Z</time>
      </trkpt>
      <trkpt lat="50.1416" lon="4.02563">
        <ele>167.89</ele>
        <time>2014-10-19T09:14:12Z</time>
      </trkpt>
      <trkpt lat="50.14162" lon="4.02569">
        <ele>171.73</ele>
        <time>2014-10-19T09:14:13Z</time>
      </trkpt>
      <trkpt lat="50.14205" lon="4.02641">
        <ele>171.73</ele>
        <time>2014-10-19T09:14:28Z</time>
      </trkpt>
      <trkpt lat="50.14222" lon="4.02665">
        <ele>171.73</ele>
        <time>2014-10-19T09:14:34Z</time>
      </trkpt>
      <trkpt lat="50.14237" lon="4.02641">
        <ele>169.33</ele>
        <time>2014-10-19T09:14:38Z</time>
      </trkpt>
      <trkpt lat="50.14247" lon="4.02624">
        <ele>168.37</ele>
        <time>2014-10-19T09:14:40Z</time>
      </trkpt>
      <trkpt lat="50.14259" lon="4.02601">
        <ele>166.45</ele>
        <time>2014-10-19T09:14:44Z</time>
      </trkpt>
      <trkpt lat="50.14283" lon="4.02611">
        <ele>166.93</ele>
        <time>2014-10-19T09:14:52Z</time>
      </trkpt>
      <trkpt lat="50.14308" lon="4.02598">
        <ele>165.96</ele>
        <time>2014-10-19T09:15:00Z</time>
      </trkpt>
      <trkpt lat="50.14319" lon="4.02604">
        <ele>165.96</ele>
        <time>2014-10-19T09:15:03Z</time>
      </trkpt>
      <trkpt lat="50.14323" lon="4.02603">
        <ele>166.45</ele>
        <time>2014-10-19T09:15:04Z</time>
      </trkpt>
      <trkpt lat="50.14326" lon="4.02601">
        <ele>166.45</ele>
        <time>2014-10-19T09:15:05Z</time>
      </trkpt>
      <trkpt lat="50.14337" lon="4.02595">
        <ele>166.45</ele>
        <time>2014-10-19T09:15:08Z</time>
      </trkpt>
      <trkpt lat="50.14341" lon="4.02592">
        <ele>167.41</ele>
        <time>2014-10-19T09:15:09Z</time>
      </trkpt>
      <trkpt lat="50.14344" lon="4.0259">
        <ele>167.41</ele>
        <time>2014-10-19T09:15:10Z</time>
      </trkpt>
      <trkpt lat="50.14347" lon="4.02587">
        <ele>167.41</ele>
        <time>2014-10-19T09:15:11Z</time>
      </trkpt>
      <trkpt lat="50.14349" lon="4.02585">
        <ele>167.41</ele>
        <time>2014-10-19T09:15:12Z</time>
      </trkpt>
      <trkpt lat="50.14351" lon="4.02583">
        <ele>167.89</ele>
        <time>2014-10-19T09:15:13Z</time>
      </trkpt>
      <trkpt lat="50.14354" lon="4.02581">
        <ele>167.89</ele>
        <time>2014-10-19T09:15:14Z</time>
      </trkpt>
      <trkpt lat="50.14356" lon="4.02582">
        <ele>168.85</ele>
        <time>2014-10-19T09:15:15Z</time>
      </trkpt>
      <trkpt lat="50.14358" lon="4.02585">
        <ele>168.85</ele>
        <time>2014-10-19T09:15:16Z</time>
      </trkpt>
      <trkpt lat="50.1436" lon="4.02589">
        <ele>168.85</ele>
        <time>2014-10-19T09:15:17Z</time>
      </trkpt>
      <trkpt lat="50.14362" lon="4.02593">
        <ele>168.85</ele>
        <time>2014-10-19T09:15:18Z</time>
      </trkpt>
      <trkpt lat="50.14365" lon="4.02598">
        <ele>168.85</ele>
        <time>2014-10-19T09:15:19Z</time>
      </trkpt>
      <trkpt lat="50.14368" lon="4.02602">
        <ele>169.33</ele>
        <time>2014-10-19T09:15:20Z</time>
      </trkpt>
      <trkpt lat="50.14403" lon="4.02659">
        <ele>171.73</ele>
        <time>2014-10-19T09:15:35Z</time>
      </trkpt>
      <trkpt lat="50.14419" lon="4.0271">
        <ele>171.25</ele>
        <time>2014-10-19T09:15:45Z</time>
      </trkpt>
      <trkpt lat="50.14422" lon="4.02735">
        <ele>169.81</ele>
        <time>2014-10-19T09:15:48Z</time>
      </trkpt>
      <trkpt lat="50.14421" lon="4.02745">
        <ele>169.33</ele>
        <time>2014-10-19T09:15:49Z</time>
      </trkpt>
      <trkpt lat="50.1442" lon="4.02755">
        <ele>169.33</ele>
        <time>2014-10-19T09:15:50Z</time>
      </trkpt>
      <trkpt lat="50.14417" lon="4.02767">
        <ele>169.33</ele>
        <time>2014-10-19T09:15:51Z</time>
      </trkpt>
      <trkpt lat="50.14414" lon="4.02775">
        <ele>169.33</ele>
        <time>2014-10-19T09:15:52Z</time>
      </trkpt>
      <trkpt lat="50.1441" lon="4.02783">
        <ele>169.33</ele>
        <time>2014-10-19T09:15:53Z</time>
      </trkpt>
      <trkpt lat="50.14406" lon="4.0279">
        <ele>168.85</ele>
        <time>2014-10-19T09:15:54Z</time>
      </trkpt>
      <trkpt lat="50.14401" lon="4.02795">
        <ele>168.85</ele>
        <time>2014-10-19T09:15:55Z</time>
      </trkpt>
      <trkpt lat="50.14396" lon="4.02801">
        <ele>168.85</ele>
        <time>2014-10-19T09:15:56Z</time>
      </trkpt>
      <trkpt lat="50.14387" lon="4.02813">
        <ele>168.85</ele>
        <time>2014-10-19T09:15:58Z</time>
      </trkpt>
      <trkpt lat="50.14361" lon="4.02841">
        <ele>170.29</ele>
        <time>2014-10-19T09:16:05Z</time>
      </trkpt>
      <trkpt lat="50.14327" lon="4.02874">
        <ele>172.69</ele>
        <time>2014-10-19T09:16:17Z</time>
      </trkpt>
      <trkpt lat="50.14286" lon="4.02911">
        <ele>174.14</ele>
        <time>2014-10-19T09:16:31Z</time>
      </trkpt>
      <trkpt lat="50.14284" lon="4.02916">
        <ele>175.1</ele>
        <time>2014-10-19T09:16:32Z</time>
      </trkpt>
      <trkpt lat="50.14283" lon="4.02925">
        <ele>175.1</ele>
        <time>2014-10-19T09:16:33Z</time>
      </trkpt>
      <trkpt lat="50.14283" lon="4.02931">
        <ele>175.1</ele>
        <time>2014-10-19T09:16:34Z</time>
      </trkpt>
      <trkpt lat="50.14284" lon="4.02938">
        <ele>175.58</ele>
        <time>2014-10-19T09:16:35Z</time>
      </trkpt>
      <trkpt lat="50.14286" lon="4.02944">
        <ele>175.58</ele>
        <time>2014-10-19T09:16:36Z</time>
      </trkpt>
      <trkpt lat="50.14288" lon="4.02949">
        <ele>176.06</ele>
        <time>2014-10-19T09:16:37Z</time>
      </trkpt>
      <trkpt lat="50.1429" lon="4.02954">
        <ele>176.06</ele>
        <time>2014-10-19T09:16:38Z</time>
      </trkpt>
      <trkpt lat="50.14293" lon="4.02958">
        <ele>176.06</ele>
        <time>2014-10-19T09:16:39Z</time>
      </trkpt>
      <trkpt lat="50.14295" lon="4.02962">
        <ele>177.02</ele>
        <time>2014-10-19T09:16:40Z</time>
      </trkpt>
      <trkpt lat="50.14335" lon="4.03041">
        <ele>178.46</ele>
        <time>2014-10-19T09:16:58Z</time>
      </trkpt>
      <trkpt lat="50.14364" lon="4.03098">
        <ele>178.94</ele>
        <time>2014-10-19T09:17:10Z</time>
      </trkpt>
      <trkpt lat="50.14367" lon="4.03103">
        <ele>178.94</ele>
        <time>2014-10-19T09:17:11Z</time>
      </trkpt>
      <trkpt lat="50.14369" lon="4.03108">
        <ele>179.42</ele>
        <time>2014-10-19T09:17:12Z</time>
      </trkpt>
      <trkpt lat="50.14401" lon="4.03173">
        <ele>179.42</ele>
        <time>2014-10-19T09:17:25Z</time>
      </trkpt>
      <trkpt lat="50.14403" lon="4.03178">
        <ele>179.42</ele>
        <time>2014-10-19T09:17:26Z</time>
      </trkpt>
      <trkpt lat="50.14408" lon="4.0319">
        <ele>179.42</ele>
        <time>2014-10-19T09:17:28Z</time>
      </trkpt>
      <trkpt lat="50.14419" lon="4.03216">
        <ele>179.42</ele>
        <time>2014-10-19T09:17:33Z</time>
      </trkpt>
      <trkpt lat="50.14421" lon="4.03222">
        <ele>179.42</ele>
        <time>2014-10-19T09:17:34Z</time>
      </trkpt>
      <trkpt lat="50.14424" lon="4.03228">
        <ele>179.42</ele>
        <time>2014-10-19T09:17:35Z</time>
      </trkpt>
      <trkpt lat="50.14447" lon="4.03273">
        <ele>178.46</ele>
        <time>2014-10-19T09:17:43Z</time>
      </trkpt>
      <trkpt lat="50.14451" lon="4.03278">
        <ele>177.98</ele>
        <time>2014-10-19T09:17:44Z</time>
      </trkpt>
      <trkpt lat="50.14455" lon="4.03285">
        <ele>177.98</ele>
        <time>2014-10-19T09:17:45Z</time>
      </trkpt>
      <trkpt lat="50.14479" lon="4.03327">
        <ele>177.02</ele>
        <time>2014-10-19T09:17:51Z</time>
      </trkpt>
      <trkpt lat="50.14535" lon="4.03413">
        <ele>177.02</ele>
        <time>2014-10-19T09:18:05Z</time>
      </trkpt>
      <trkpt lat="50.14562" lon="4.03448">
        <ele>177.98</ele>
        <time>2014-10-19T09:18:12Z</time>
      </trkpt>
      <trkpt lat="50.14563" lon="4.03452">
        <ele>177.98</ele>
        <time>2014-10-19T09:18:13Z</time>
      </trkpt>
      <trkpt lat="50.14564" lon="4.03456">
        <ele>178.46</ele>
        <time>2014-10-19T09:18:14Z</time>
      </trkpt>
      <trkpt lat="50.14596" lon="4.03493">
        <ele>180.38</ele>
        <time>2014-10-19T09:18:25Z</time>
      </trkpt>
      <trkpt lat="50.14608" lon="4.03518">
        <ele>180.38</ele>
        <time>2014-10-19T09:18:30Z</time>
      </trkpt>
      <trkpt lat="50.14625" lon="4.03555">
        <ele>178.46</ele>
        <time>2014-10-19T09:18:35Z</time>
      </trkpt>
      <trkpt lat="50.14647" lon="4.03599">
        <ele>177.02</ele>
        <time>2014-10-19T09:18:40Z</time>
      </trkpt>
      <trkpt lat="50.14648" lon="4.03608">
        <ele>177.02</ele>
        <time>2014-10-19T09:18:41Z</time>
      </trkpt>
      <trkpt lat="50.14656" lon="4.03637">
        <ele>178.46</ele>
        <time>2014-10-19T09:18:45Z</time>
      </trkpt>
      <trkpt lat="50.14659" lon="4.0365">
        <ele>179.42</ele>
        <time>2014-10-19T09:18:47Z</time>
      </trkpt>
      <trkpt lat="50.14661" lon="4.03667">
        <ele>180.38</ele>
        <time>2014-10-19T09:18:50Z</time>
      </trkpt>
      <trkpt lat="50.1467" lon="4.03718">
        <ele>183.75</ele>
        <time>2014-10-19T09:18:59Z</time>
      </trkpt>
      <trkpt lat="50.14684" lon="4.03788">
        <ele>185.67</ele>
        <time>2014-10-19T09:19:13Z</time>
      </trkpt>
      <trkpt lat="50.14696" lon="4.03854">
        <ele>186.63</ele>
        <time>2014-10-19T09:19:26Z</time>
      </trkpt>
      <trkpt lat="50.14711" lon="4.03907">
        <ele>188.08</ele>
        <time>2014-10-19T09:19:36Z</time>
      </trkpt>
      <trkpt lat="50.14735" lon="4.03979">
        <ele>188.08</ele>
        <time>2014-10-19T09:19:48Z</time>
      </trkpt>
      <trkpt lat="50.14739" lon="4.0399">
        <ele>188.08</ele>
        <time>2014-10-19T09:19:50Z</time>
      </trkpt>
      <trkpt lat="50.14772" lon="4.04093">
        <ele>188.08</ele>
        <time>2014-10-19T09:20:05Z</time>
      </trkpt>
      <trkpt lat="50.14806" lon="4.04184">
        <ele>188.56</ele>
        <time>2014-10-19T09:20:19Z</time>
      </trkpt>
      <trkpt lat="50.14807" lon="4.04192">
        <ele>188.56</ele>
        <time>2014-10-19T09:20:20Z</time>
      </trkpt>
      <trkpt lat="50.14812" lon="4.04221">
        <ele>189.04</ele>
        <time>2014-10-19T09:20:24Z</time>
      </trkpt>
      <trkpt lat="50.14813" lon="4.04228">
        <ele>189.04</ele>
        <time>2014-10-19T09:20:25Z</time>
      </trkpt>
      <trkpt lat="50.14832" lon="4.04373">
        <ele>190.48</ele>
        <time>2014-10-19T09:20:45Z</time>
      </trkpt>
      <trkpt lat="50.14833" lon="4.04392">
        <ele>190.48</ele>
        <time>2014-10-19T09:20:48Z</time>
      </trkpt>
      <trkpt lat="50.14833" lon="4.04399">
        <ele>190.96</ele>
        <time>2014-10-19T09:20:49Z</time>
      </trkpt>
      <trkpt lat="50.14832" lon="4.04405">
        <ele>190.96</ele>
        <time>2014-10-19T09:20:50Z</time>
      </trkpt>
      <trkpt lat="50.14832" lon="4.04412">
        <ele>190.96</ele>
        <time>2014-10-19T09:20:51Z</time>
      </trkpt>
      <trkpt lat="50.14831" lon="4.04419">
        <ele>190.96</ele>
        <time>2014-10-19T09:20:52Z</time>
      </trkpt>
      <trkpt lat="50.14829" lon="4.04426">
        <ele>190.96</ele>
        <time>2014-10-19T09:20:53Z</time>
      </trkpt>
      <trkpt lat="50.14824" lon="4.04452">
        <ele>191.44</ele>
        <time>2014-10-19T09:20:57Z</time>
      </trkpt>
      <trkpt lat="50.14806" lon="4.04553">
        <ele>192.88</ele>
        <time>2014-10-19T09:21:14Z</time>
      </trkpt>
      <trkpt lat="50.14794" lon="4.04654">
        <ele>195.28</ele>
        <time>2014-10-19T09:21:30Z</time>
      </trkpt>
      <trkpt lat="50.14794" lon="4.0466">
        <ele>195.77</ele>
        <time>2014-10-19T09:21:31Z</time>
      </trkpt>
      <trkpt lat="50.14794" lon="4.04667">
        <ele>195.77</ele>
        <time>2014-10-19T09:21:32Z</time>
      </trkpt>
      <trkpt lat="50.14794" lon="4.04674">
        <ele>195.77</ele>
        <time>2014-10-19T09:21:33Z</time>
      </trkpt>
      <trkpt lat="50.14794" lon="4.0468">
        <ele>195.77</ele>
        <time>2014-10-19T09:21:34Z</time>
      </trkpt>
      <trkpt lat="50.14795" lon="4.04687">
        <ele>195.77</ele>
        <time>2014-10-19T09:21:35Z</time>
      </trkpt>
      <trkpt lat="50.14795" lon="4.04693">
        <ele>196.25</ele>
        <time>2014-10-19T09:21:36Z</time>
      </trkpt>
      <trkpt lat="50.14801" lon="4.04738">
        <ele>196.73</ele>
        <time>2014-10-19T09:21:43Z</time>
      </trkpt>
      <trkpt lat="50.14808" lon="4.04792">
        <ele>197.69</ele>
        <time>2014-10-19T09:21:52Z</time>
      </trkpt>
      <trkpt lat="50.14824" lon="4.04881">
        <ele>198.65</ele>
        <time>2014-10-19T09:22:07Z</time>
      </trkpt>
      <trkpt lat="50.14839" lon="4.04984">
        <ele>200.09</ele>
        <time>2014-10-19T09:22:24Z</time>
      </trkpt>
      <trkpt lat="50.14839" lon="4.0499">
        <ele>200.09</ele>
        <time>2014-10-19T09:22:25Z</time>
      </trkpt>
      <trkpt lat="50.1484" lon="4.04996">
        <ele>200.09</ele>
        <time>2014-10-19T09:22:26Z</time>
      </trkpt>
      <trkpt lat="50.14842" lon="4.05002">
        <ele>200.09</ele>
        <time>2014-10-19T09:22:27Z</time>
      </trkpt>
      <trkpt lat="50.14842" lon="4.05008">
        <ele>200.09</ele>
        <time>2014-10-19T09:22:28Z</time>
      </trkpt>
      <trkpt lat="50.14843" lon="4.05014">
        <ele>200.09</ele>
        <time>2014-10-19T09:22:29Z</time>
      </trkpt>
      <trkpt lat="50.14844" lon="4.0502">
        <ele>200.09</ele>
        <time>2014-10-19T09:22:30Z</time>
      </trkpt>
      <trkpt lat="50.14859" lon="4.05091">
        <ele>200.57</ele>
        <time>2014-10-19T09:22:41Z</time>
      </trkpt>
      <trkpt lat="50.1486" lon="4.05098">
        <ele>200.57</ele>
        <time>2014-10-19T09:22:42Z</time>
      </trkpt>
      <trkpt lat="50.14863" lon="4.05111">
        <ele>200.57</ele>
        <time>2014-10-19T09:22:44Z</time>
      </trkpt>
      <trkpt lat="50.14865" lon="4.05125">
        <ele>200.57</ele>
        <time>2014-10-19T09:22:46Z</time>
      </trkpt>
      <trkpt lat="50.14866" lon="4.05132">
        <ele>200.57</ele>
        <time>2014-10-19T09:22:47Z</time>
      </trkpt>
      <trkpt lat="50.14877" lon="4.0522">
        <ele>201.05</ele>
        <time>2014-10-19T09:23:00Z</time>
      </trkpt>
      <trkpt lat="50.14903" lon="4.05324">
        <ele>201.05</ele>
        <time>2014-10-19T09:23:16Z</time>
      </trkpt>
      <trkpt lat="50.14905" lon="4.05331">
        <ele>201.05</ele>
        <time>2014-10-19T09:23:17Z</time>
      </trkpt>
      <trkpt lat="50.14913" lon="4.0536">
        <ele>200.09</ele>
        <time>2014-10-19T09:23:21Z</time>
      </trkpt>
      <trkpt lat="50.1494" lon="4.05443">
        <ele>197.21</ele>
        <time>2014-10-19T09:23:31Z</time>
      </trkpt>
      <trkpt lat="50.14944" lon="4.05452">
        <ele>197.21</ele>
        <time>2014-10-19T09:23:32Z</time>
      </trkpt>
      <trkpt lat="50.14979" lon="4.05535">
        <ele>193.84</ele>
        <time>2014-10-19T09:23:40Z</time>
      </trkpt>
      <trkpt lat="50.15039" lon="4.057">
        <ele>191.44</ele>
        <time>2014-10-19T09:23:54Z</time>
      </trkpt>
      <trkpt lat="50.15042" lon="4.0571">
        <ele>191.44</ele>
        <time>2014-10-19T09:23:55Z</time>
      </trkpt>
      <trkpt lat="50.15048" lon="4.05761">
        <ele>192.88</ele>
        <time>2014-10-19T09:24:00Z</time>
      </trkpt>
      <trkpt lat="50.15057" lon="4.05857">
        <ele>195.77</ele>
        <time>2014-10-19T09:24:12Z</time>
      </trkpt>
      <trkpt lat="50.15058" lon="4.05882">
        <ele>196.73</ele>
        <time>2014-10-19T09:24:16Z</time>
      </trkpt>
      <trkpt lat="50.15063" lon="4.05914">
        <ele>197.69</ele>
        <time>2014-10-19T09:24:21Z</time>
      </trkpt>
      <trkpt lat="50.15082" lon="4.05996">
        <ele>200.09</ele>
        <time>2014-10-19T09:24:34Z</time>
      </trkpt>
      <trkpt lat="50.15102" lon="4.0609">
        <ele>202.01</ele>
        <time>2014-10-19T09:24:52Z</time>
      </trkpt>
      <trkpt lat="50.15121" lon="4.06171">
        <ele>204.42</ele>
        <time>2014-10-19T09:25:07Z</time>
      </trkpt>
      <trkpt lat="50.15141" lon="4.06255">
        <ele>206.82</ele>
        <time>2014-10-19T09:25:23Z</time>
      </trkpt>
      <trkpt lat="50.15163" lon="4.0635">
        <ele>208.74</ele>
        <time>2014-10-19T09:25:41Z</time>
      </trkpt>
      <trkpt lat="50.15184" lon="4.06448">
        <ele>210.19</ele>
        <time>2014-10-19T09:26:00Z</time>
      </trkpt>
      <trkpt lat="50.15207" lon="4.06548">
        <ele>212.11</ele>
        <time>2014-10-19T09:26:21Z</time>
      </trkpt>
      <trkpt lat="50.15226" lon="4.06631">
        <ele>213.07</ele>
        <time>2014-10-19T09:26:38Z</time>
      </trkpt>
      <trkpt lat="50.15245" lon="4.06715">
        <ele>214.51</ele>
        <time>2014-10-19T09:26:54Z</time>
      </trkpt>
      <trkpt lat="50.15271" lon="4.0683">
        <ele>215.47</ele>
        <time>2014-10-19T09:27:15Z</time>
      </trkpt>
      <trkpt lat="50.15289" lon="4.06909">
        <ele>215.95</ele>
        <time>2014-10-19T09:27:30Z</time>
      </trkpt>
      <trkpt lat="50.15297" lon="4.06947">
        <ele>215.95</ele>
        <time>2014-10-19T09:27:38Z</time>
      </trkpt>
      <trkpt lat="50.15296" lon="4.06949">
        <ele>215.95</ele>
        <time>2014-10-19T09:27:39Z</time>
      </trkpt>
      <trkpt lat="50.15293" lon="4.0695">
        <ele>215.95</ele>
        <time>2014-10-19T09:27:42Z</time>
      </trkpt>
      <trkpt lat="50.15291" lon="4.06949">
        <ele>215.95</ele>
        <time>2014-10-19T09:27:43Z</time>
      </trkpt>
      <trkpt lat="50.15289" lon="4.06949">
        <ele>215.95</ele>
        <time>2014-10-19T09:27:44Z</time>
      </trkpt>
      <trkpt lat="50.15286" lon="4.06948">
        <ele>215.95</ele>
        <time>2014-10-19T09:27:45Z</time>
      </trkpt>
      <trkpt lat="50.15283" lon="4.06947">
        <ele>215.95</ele>
        <time>2014-10-19T09:27:46Z</time>
      </trkpt>
      <trkpt lat="50.15233" lon="4.06937">
        <ele>214.51</ele>
        <time>2014-10-19T09:27:59Z</time>
      </trkpt>
      <trkpt lat="50.15161" lon="4.06926">
        <ele>213.07</ele>
        <time>2014-10-19T09:28:12Z</time>
      </trkpt>
      <trkpt lat="50.15088" lon="4.06911">
        <ele>211.63</ele>
        <time>2014-10-19T09:28:24Z</time>
      </trkpt>
      <trkpt lat="50.15002" lon="4.06893">
        <ele>209.7</ele>
        <time>2014-10-19T09:28:37Z</time>
      </trkpt>
      <trkpt lat="50.14926" lon="4.06879">
        <ele>208.26</ele>
        <time>2014-10-19T09:28:49Z</time>
      </trkpt>
      <trkpt lat="50.1485" lon="4.06862">
        <ele>208.26</ele>
        <time>2014-10-19T09:29:01Z</time>
      </trkpt>
      <trkpt lat="50.14764" lon="4.06849">
        <ele>209.7</ele>
        <time>2014-10-19T09:29:15Z</time>
      </trkpt>
      <trkpt lat="50.14758" lon="4.06848">
        <ele>209.7</ele>
        <time>2014-10-19T09:29:16Z</time>
      </trkpt>
      <trkpt lat="50.14688" lon="4.06841">
        <ele>210.67</ele>
        <time>2014-10-19T09:29:30Z</time>
      </trkpt>
      <trkpt lat="50.14649" lon="4.06834">
        <ele>211.63</ele>
        <time>2014-10-19T09:29:41Z</time>
      </trkpt>
      <trkpt lat="50.14624" lon="4.06831">
        <ele>212.11</ele>
        <time>2014-10-19T09:29:47Z</time>
      </trkpt>
      <trkpt lat="50.14589" lon="4.0683">
        <ele>212.59</ele>
        <time>2014-10-19T09:29:56Z</time>
      </trkpt>
      <trkpt lat="50.14549" lon="4.06825">
        <ele>213.07</ele>
        <time>2014-10-19T09:30:07Z</time>
      </trkpt>
      <trkpt lat="50.1453" lon="4.06823">
        <ele>213.07</ele>
        <time>2014-10-19T09:30:12Z</time>
      </trkpt>
      <trkpt lat="50.14487" lon="4.06817">
        <ele>214.03</ele>
        <time>2014-10-19T09:30:22Z</time>
      </trkpt>
      <trkpt lat="50.14426" lon="4.0681">
        <ele>214.03</ele>
        <time>2014-10-19T09:30:34Z</time>
      </trkpt>
      <trkpt lat="50.14379" lon="4.06801">
        <ele>214.51</ele>
        <time>2014-10-19T09:30:44Z</time>
      </trkpt>
      <trkpt lat="50.14325" lon="4.06785">
        <ele>214.51</ele>
        <time>2014-10-19T09:30:55Z</time>
      </trkpt>
      <trkpt lat="50.14282" lon="4.06774">
        <ele>212.59</ele>
        <time>2014-10-19T09:31:03Z</time>
      </trkpt>
      <trkpt lat="50.14195" lon="4.06749">
        <ele>211.15</ele>
        <time>2014-10-19T09:31:17Z</time>
      </trkpt>
      <trkpt lat="50.14188" lon="4.06748">
        <ele>211.15</ele>
        <time>2014-10-19T09:31:18Z</time>
      </trkpt>
      <trkpt lat="50.14162" lon="4.06741">
        <ele>210.67</ele>
        <time>2014-10-19T09:31:22Z</time>
      </trkpt>
      <trkpt lat="50.14093" lon="4.06719">
        <ele>208.74</ele>
        <time>2014-10-19T09:31:33Z</time>
      </trkpt>
      <trkpt lat="50.14006" lon="4.06694">
        <ele>207.3</ele>
        <time>2014-10-19T09:31:45Z</time>
      </trkpt>
      <trkpt lat="50.13972" lon="4.06684">
        <ele>207.3</ele>
        <time>2014-10-19T09:31:50Z</time>
      </trkpt>
      <trkpt lat="50.13966" lon="4.06681">
        <ele>207.3</ele>
        <time>2014-10-19T09:31:51Z</time>
      </trkpt>
      <trkpt lat="50.13961" lon="4.06678">
        <ele>206.34</ele>
        <time>2014-10-19T09:31:52Z</time>
      </trkpt>
      <trkpt lat="50.13947" lon="4.0667">
        <ele>206.34</ele>
        <time>2014-10-19T09:31:55Z</time>
      </trkpt>
      <trkpt lat="50.13941" lon="4.06668">
        <ele>205.86</ele>
        <time>2014-10-19T09:31:56Z</time>
      </trkpt>
      <trkpt lat="50.13861" lon="4.06648">
        <ele>204.9</ele>
        <time>2014-10-19T09:32:07Z</time>
      </trkpt>
      <trkpt lat="50.13762" lon="4.06631">
        <ele>202.49</ele>
        <time>2014-10-19T09:32:20Z</time>
      </trkpt>
      <trkpt lat="50.13682" lon="4.06628">
        <ele>201.53</ele>
        <time>2014-10-19T09:32:31Z</time>
      </trkpt>
      <trkpt lat="50.13589" lon="4.06633">
        <ele>199.61</ele>
        <time>2014-10-19T09:32:44Z</time>
      </trkpt>
      <trkpt lat="50.13492" lon="4.06636">
        <ele>198.17</ele>
        <time>2014-10-19T09:32:55Z</time>
      </trkpt>
      <trkpt lat="50.13375" lon="4.06642">
        <ele>196.73</ele>
        <time>2014-10-19T09:33:09Z</time>
      </trkpt>
      <trkpt lat="50.1331" lon="4.06647">
        <ele>195.77</ele>
        <time>2014-10-19T09:33:19Z</time>
      </trkpt>
      <trkpt lat="50.13304" lon="4.06647">
        <ele>195.28</ele>
        <time>2014-10-19T09:33:20Z</time>
      </trkpt>
      <trkpt lat="50.13297" lon="4.06646">
        <ele>195.28</ele>
        <time>2014-10-19T09:33:21Z</time>
      </trkpt>
      <trkpt lat="50.13289" lon="4.06646">
        <ele>195.28</ele>
        <time>2014-10-19T09:33:22Z</time>
      </trkpt>
      <trkpt lat="50.13238" lon="4.06644">
        <ele>194.32</ele>
        <time>2014-10-19T09:33:28Z</time>
      </trkpt>
      <trkpt lat="50.13156" lon="4.06631">
        <ele>192.88</ele>
        <time>2014-10-19T09:33:38Z</time>
      </trkpt>
      <trkpt lat="50.1308" lon="4.06612">
        <ele>191.44</ele>
        <time>2014-10-19T09:33:49Z</time>
      </trkpt>
      <trkpt lat="50.13075" lon="4.0661">
        <ele>191.44</ele>
        <time>2014-10-19T09:33:50Z</time>
      </trkpt>
      <trkpt lat="50.13001" lon="4.06587">
        <ele>190</ele>
        <time>2014-10-19T09:34:01Z</time>
      </trkpt>
      <trkpt lat="50.12921" lon="4.06561">
        <ele>189.04</ele>
        <time>2014-10-19T09:34:12Z</time>
      </trkpt>
      <trkpt lat="50.12825" lon="4.06548">
        <ele>187.11</ele>
        <time>2014-10-19T09:34:24Z</time>
      </trkpt>
      <trkpt lat="50.12735" lon="4.06562">
        <ele>185.67</ele>
        <time>2014-10-19T09:34:36Z</time>
      </trkpt>
      <trkpt lat="50.12647" lon="4.06597">
        <ele>184.71</ele>
        <time>2014-10-19T09:34:48Z</time>
      </trkpt>
      <trkpt lat="50.12551" lon="4.06669">
        <ele>182.79</ele>
        <time>2014-10-19T09:35:03Z</time>
      </trkpt>
      <trkpt lat="50.12461" lon="4.06732">
        <ele>180.87</ele>
        <time>2014-10-19T09:35:17Z</time>
      </trkpt>
      <trkpt lat="50.1239" lon="4.06761">
        <ele>179.42</ele>
        <time>2014-10-19T09:35:28Z</time>
      </trkpt>
      <trkpt lat="50.12384" lon="4.06761">
        <ele>179.42</ele>
        <time>2014-10-19T09:35:29Z</time>
      </trkpt>
      <trkpt lat="50.12338" lon="4.06768">
        <ele>178.94</ele>
        <time>2014-10-19T09:35:36Z</time>
      </trkpt>
      <trkpt lat="50.1231" lon="4.06768">
        <ele>178.46</ele>
        <time>2014-10-19T09:35:40Z</time>
      </trkpt>
      <trkpt lat="50.12238" lon="4.06758">
        <ele>177.5</ele>
        <time>2014-10-19T09:35:51Z</time>
      </trkpt>
      <trkpt lat="50.12168" lon="4.06733">
        <ele>176.54</ele>
        <time>2014-10-19T09:36:03Z</time>
      </trkpt>
      <trkpt lat="50.12164" lon="4.06733">
        <ele>176.54</ele>
        <time>2014-10-19T09:36:04Z</time>
      </trkpt>
      <trkpt lat="50.1216" lon="4.06736">
        <ele>176.54</ele>
        <time>2014-10-19T09:36:05Z</time>
      </trkpt>
      <trkpt lat="50.12158" lon="4.06742">
        <ele>176.54</ele>
        <time>2014-10-19T09:36:06Z</time>
      </trkpt>
      <trkpt lat="50.12158" lon="4.06748">
        <ele>176.54</ele>
        <time>2014-10-19T09:36:07Z</time>
      </trkpt>
      <trkpt lat="50.12158" lon="4.06752">
        <ele>176.54</ele>
        <time>2014-10-19T09:36:08Z</time>
      </trkpt>
      <trkpt lat="50.12158" lon="4.06757">
        <ele>176.54</ele>
        <time>2014-10-19T09:36:09Z</time>
      </trkpt>
      <trkpt lat="50.12158" lon="4.06762">
        <ele>176.54</ele>
        <time>2014-10-19T09:36:10Z</time>
      </trkpt>
      <trkpt lat="50.12159" lon="4.06766">
        <ele>176.54</ele>
        <time>2014-10-19T09:36:11Z</time>
      </trkpt>
      <trkpt lat="50.1216" lon="4.06771">
        <ele>176.54</ele>
        <time>2014-10-19T09:36:12Z</time>
      </trkpt>
      <trkpt lat="50.12161" lon="4.06776">
        <ele>176.54</ele>
        <time>2014-10-19T09:36:13Z</time>
      </trkpt>
      <trkpt lat="50.12165" lon="4.0679">
        <ele>177.98</ele>
        <time>2014-10-19T09:36:15Z</time>
      </trkpt>
      <trkpt lat="50.12167" lon="4.06798">
        <ele>177.98</ele>
        <time>2014-10-19T09:36:16Z</time>
      </trkpt>
      <trkpt lat="50.12185" lon="4.06884">
        <ele>174.62</ele>
        <time>2014-10-19T09:36:25Z</time>
      </trkpt>
      <trkpt lat="50.12185" lon="4.06895">
        <ele>174.14</ele>
        <time>2014-10-19T09:36:26Z</time>
      </trkpt>
      <trkpt lat="50.12185" lon="4.06906">
        <ele>173.66</ele>
        <time>2014-10-19T09:36:27Z</time>
      </trkpt>
      <trkpt lat="50.1218" lon="4.06969">
        <ele>170.77</ele>
        <time>2014-10-19T09:36:32Z</time>
      </trkpt>
      <trkpt lat="50.12156" lon="4.07091">
        <ele>167.41</ele>
        <time>2014-10-19T09:36:41Z</time>
      </trkpt>
      <trkpt lat="50.1215" lon="4.07116">
        <ele>166.93</ele>
        <time>2014-10-19T09:36:43Z</time>
      </trkpt>
      <trkpt lat="50.12136" lon="4.07229">
        <ele>166.45</ele>
        <time>2014-10-19T09:36:52Z</time>
      </trkpt>
      <trkpt lat="50.12136" lon="4.07241">
        <ele>166.45</ele>
        <time>2014-10-19T09:36:53Z</time>
      </trkpt>
      <trkpt lat="50.12141" lon="4.07299">
        <ele>166.45</ele>
        <time>2014-10-19T09:36:58Z</time>
      </trkpt>
      <trkpt lat="50.12141" lon="4.07311">
        <ele>166.45</ele>
        <time>2014-10-19T09:36:59Z</time>
      </trkpt>
      <trkpt lat="50.12135" lon="4.07368">
        <ele>165.96</ele>
        <time>2014-10-19T09:37:04Z</time>
      </trkpt>
      <trkpt lat="50.12112" lon="4.07513">
        <ele>167.41</ele>
        <time>2014-10-19T09:37:18Z</time>
      </trkpt>
      <trkpt lat="50.1211" lon="4.07521">
        <ele>167.41</ele>
        <time>2014-10-19T09:37:19Z</time>
      </trkpt>
      <trkpt lat="50.12107" lon="4.07545">
        <ele>168.37</ele>
        <time>2014-10-19T09:37:22Z</time>
      </trkpt>
      <trkpt lat="50.12105" lon="4.07551">
        <ele>168.85</ele>
        <time>2014-10-19T09:37:23Z</time>
      </trkpt>
      <trkpt lat="50.12102" lon="4.07556">
        <ele>168.85</ele>
        <time>2014-10-19T09:37:24Z</time>
      </trkpt>
      <trkpt lat="50.1208" lon="4.07599">
        <ele>168.85</ele>
        <time>2014-10-19T09:37:32Z</time>
      </trkpt>
      <trkpt lat="50.12074" lon="4.0761">
        <ele>168.85</ele>
        <time>2014-10-19T09:37:34Z</time>
      </trkpt>
      <trkpt lat="50.12041" lon="4.07675">
        <ele>169.33</ele>
        <time>2014-10-19T09:37:46Z</time>
      </trkpt>
      <trkpt lat="50.12027" lon="4.07702">
        <ele>167.89</ele>
        <time>2014-10-19T09:37:50Z</time>
      </trkpt>
      <trkpt lat="50.1199" lon="4.07768">
        <ele>166.45</ele>
        <time>2014-10-19T09:37:59Z</time>
      </trkpt>
      <trkpt lat="50.11987" lon="4.07776">
        <ele>165.96</ele>
        <time>2014-10-19T09:38:00Z</time>
      </trkpt>
      <trkpt lat="50.11986" lon="4.07786">
        <ele>165.96</ele>
        <time>2014-10-19T09:38:01Z</time>
      </trkpt>
      <trkpt lat="50.11988" lon="4.07796">
        <ele>165.96</ele>
        <time>2014-10-19T09:38:02Z</time>
      </trkpt>
      <trkpt lat="50.11991" lon="4.07804">
        <ele>165.96</ele>
        <time>2014-10-19T09:38:03Z</time>
      </trkpt>
      <trkpt lat="50.11995" lon="4.07812">
        <ele>165.96</ele>
        <time>2014-10-19T09:38:04Z</time>
      </trkpt>
      <trkpt lat="50.11998" lon="4.0782">
        <ele>165.96</ele>
        <time>2014-10-19T09:38:05Z</time>
      </trkpt>
      <trkpt lat="50.12017" lon="4.0786">
        <ele>165.48</ele>
        <time>2014-10-19T09:38:10Z</time>
      </trkpt>
      <trkpt lat="50.1202" lon="4.07868">
        <ele>165.48</ele>
        <time>2014-10-19T09:38:11Z</time>
      </trkpt>
      <trkpt lat="50.12078" lon="4.07983">
        <ele>164.52</ele>
        <time>2014-10-19T09:38:26Z</time>
      </trkpt>
      <trkpt lat="50.12102" lon="4.08028">
        <ele>165.96</ele>
        <time>2014-10-19T09:38:32Z</time>
      </trkpt>
      <trkpt lat="50.12103" lon="4.08035">
        <ele>165.96</ele>
        <time>2014-10-19T09:38:33Z</time>
      </trkpt>
      <trkpt lat="50.12105" lon="4.08043">
        <ele>165.96</ele>
        <time>2014-10-19T09:38:34Z</time>
      </trkpt>
      <trkpt lat="50.12105" lon="4.08052">
        <ele>165.96</ele>
        <time>2014-10-19T09:38:35Z</time>
      </trkpt>
      <trkpt lat="50.12106" lon="4.08061">
        <ele>165.96</ele>
        <time>2014-10-19T09:38:36Z</time>
      </trkpt>
      <trkpt lat="50.12108" lon="4.08087">
        <ele>165.96</ele>
        <time>2014-10-19T09:38:39Z</time>
      </trkpt>
      <trkpt lat="50.12112" lon="4.08094">
        <ele>166.45</ele>
        <time>2014-10-19T09:38:40Z</time>
      </trkpt>
      <trkpt lat="50.12116" lon="4.08099">
        <ele>166.45</ele>
        <time>2014-10-19T09:38:41Z</time>
      </trkpt>
      <trkpt lat="50.12121" lon="4.08102">
        <ele>166.45</ele>
        <time>2014-10-19T09:38:42Z</time>
      </trkpt>
      <trkpt lat="50.12126" lon="4.08104">
        <ele>166.93</ele>
        <time>2014-10-19T09:38:43Z</time>
      </trkpt>
      <trkpt lat="50.12141" lon="4.08105">
        <ele>168.37</ele>
        <time>2014-10-19T09:38:47Z</time>
      </trkpt>
      <trkpt lat="50.12143" lon="4.08104">
        <ele>168.37</ele>
        <time>2014-10-19T09:38:48Z</time>
      </trkpt>
      <trkpt lat="50.12144" lon="4.08102">
        <ele>168.85</ele>
        <time>2014-10-19T09:38:49Z</time>
      </trkpt>
      <trkpt lat="50.1217" lon="4.08085">
        <ele>170.29</ele>
        <time>2014-10-19T09:39:00Z</time>
      </trkpt>
      <trkpt lat="50.12196" lon="4.0807">
        <ele>172.21</ele>
        <time>2014-10-19T09:39:12Z</time>
      </trkpt>
      <trkpt lat="50.122" lon="4.08067">
        <ele>172.21</ele>
        <time>2014-10-19T09:39:14Z</time>
      </trkpt>
      <trkpt lat="50.12202" lon="4.08066">
        <ele>172.69</ele>
        <time>2014-10-19T09:39:15Z</time>
      </trkpt>
      <trkpt lat="50.12227" lon="4.08052">
        <ele>173.17</ele>
        <time>2014-10-19T09:39:26Z</time>
      </trkpt>
      <trkpt lat="50.12267" lon="4.08078">
        <ele>174.14</ele>
        <time>2014-10-19T09:39:40Z</time>
      </trkpt>
      <trkpt lat="50.123" lon="4.0812">
        <ele>176.54</ele>
        <time>2014-10-19T09:39:56Z</time>
      </trkpt>
      <trkpt lat="50.12332" lon="4.08164">
        <ele>178.94</ele>
        <time>2014-10-19T09:40:12Z</time>
      </trkpt>
      <trkpt lat="50.12358" lon="4.08205">
        <ele>179.9</ele>
        <time>2014-10-19T09:40:26Z</time>
      </trkpt>
      <trkpt lat="50.12393" lon="4.08261">
        <ele>182.31</ele>
        <time>2014-10-19T09:40:43Z</time>
      </trkpt>
      <trkpt lat="50.12413" lon="4.08301">
        <ele>184.71</ele>
        <time>2014-10-19T09:40:57Z</time>
      </trkpt>
      <trkpt lat="50.12429" lon="4.08331">
        <ele>187.11</ele>
        <time>2014-10-19T09:41:11Z</time>
      </trkpt>
      <trkpt lat="50.12448" lon="4.08362">
        <ele>189.52</ele>
        <time>2014-10-19T09:41:26Z</time>
      </trkpt>
      <trkpt lat="50.12471" lon="4.08398">
        <ele>191.44</ele>
        <time>2014-10-19T09:41:43Z</time>
      </trkpt>
      <trkpt lat="50.12485" lon="4.0843">
        <ele>192.88</ele>
        <time>2014-10-19T09:41:56Z</time>
      </trkpt>
      <trkpt lat="50.12505" lon="4.08482">
        <ele>193.84</ele>
        <time>2014-10-19T09:42:14Z</time>
      </trkpt>
      <trkpt lat="50.12529" lon="4.08546">
        <ele>193.84</ele>
        <time>2014-10-19T09:42:28Z</time>
      </trkpt>
      <trkpt lat="50.12546" lon="4.08605">
        <ele>192.4</ele>
        <time>2014-10-19T09:42:37Z</time>
      </trkpt>
      <trkpt lat="50.12551" lon="4.08626">
        <ele>192.4</ele>
        <time>2014-10-19T09:42:40Z</time>
      </trkpt>
      <trkpt lat="50.12553" lon="4.08633">
        <ele>192.4</ele>
        <time>2014-10-19T09:42:41Z</time>
      </trkpt>
      <trkpt lat="50.12559" lon="4.08663">
        <ele>192.4</ele>
        <time>2014-10-19T09:42:45Z</time>
      </trkpt>
      <trkpt lat="50.12598" lon="4.08773">
        <ele>192.4</ele>
        <time>2014-10-19T09:43:01Z</time>
      </trkpt>
      <trkpt lat="50.12627" lon="4.08824">
        <ele>193.36</ele>
        <time>2014-10-19T09:43:10Z</time>
      </trkpt>
      <trkpt lat="50.12629" lon="4.0883">
        <ele>193.36</ele>
        <time>2014-10-19T09:43:11Z</time>
      </trkpt>
      <trkpt lat="50.12661" lon="4.08918">
        <ele>195.77</ele>
        <time>2014-10-19T09:43:26Z</time>
      </trkpt>
      <trkpt lat="50.12664" lon="4.0893">
        <ele>196.25</ele>
        <time>2014-10-19T09:43:28Z</time>
      </trkpt>
      <trkpt lat="50.1268" lon="4.08996">
        <ele>198.65</ele>
        <time>2014-10-19T09:43:40Z</time>
      </trkpt>
      <trkpt lat="50.12693" lon="4.09042">
        <ele>202.01</ele>
        <time>2014-10-19T09:43:51Z</time>
      </trkpt>
      <trkpt lat="50.12694" lon="4.09047">
        <ele>199.13</ele>
        <time>2014-10-19T09:43:52Z</time>
      </trkpt>
      <trkpt lat="50.12707" lon="4.09121">
        <ele>200.09</ele>
        <time>2014-10-19T09:44:07Z</time>
      </trkpt>
      <trkpt lat="50.12702" lon="4.09213">
        <ele>202.98</ele>
        <time>2014-10-19T09:44:24Z</time>
      </trkpt>
      <trkpt lat="50.12705" lon="4.09312">
        <ele>203.94</ele>
        <time>2014-10-19T09:44:41Z</time>
      </trkpt>
      <trkpt lat="50.12707" lon="4.09383">
        <ele>205.86</ele>
        <time>2014-10-19T09:44:54Z</time>
      </trkpt>
      <trkpt lat="50.12707" lon="4.09396">
        <ele>206.34</ele>
        <time>2014-10-19T09:44:56Z</time>
      </trkpt>
      <trkpt lat="50.12728" lon="4.09469">
        <ele>208.74</ele>
        <time>2014-10-19T09:45:10Z</time>
      </trkpt>
      <trkpt lat="50.12754" lon="4.09527">
        <ele>210.67</ele>
        <time>2014-10-19T09:45:23Z</time>
      </trkpt>
      <trkpt lat="50.1278" lon="4.09592">
        <ele>213.07</ele>
        <time>2014-10-19T09:45:37Z</time>
      </trkpt>
      <trkpt lat="50.12803" lon="4.09654">
        <ele>214.51</ele>
        <time>2014-10-19T09:45:52Z</time>
      </trkpt>
      <trkpt lat="50.12831" lon="4.09719">
        <ele>215.95</ele>
        <time>2014-10-19T09:46:08Z</time>
      </trkpt>
      <trkpt lat="50.1286" lon="4.09781">
        <ele>216.91</ele>
        <time>2014-10-19T09:46:23Z</time>
      </trkpt>
      <trkpt lat="50.12901" lon="4.09865">
        <ele>217.88</ele>
        <time>2014-10-19T09:46:43Z</time>
      </trkpt>
      <trkpt lat="50.1293" lon="4.09923">
        <ele>218.36</ele>
        <time>2014-10-19T09:46:57Z</time>
      </trkpt>
      <trkpt lat="50.12964" lon="4.09993">
        <ele>218.84</ele>
        <time>2014-10-19T09:47:13Z</time>
      </trkpt>
      <trkpt lat="50.12964" lon="4.09998">
        <ele>218.84</ele>
        <time>2014-10-19T09:47:14Z</time>
      </trkpt>
      <trkpt lat="50.12961" lon="4.10002">
        <ele>218.84</ele>
        <time>2014-10-19T09:47:15Z</time>
      </trkpt>
      <trkpt lat="50.12959" lon="4.10003">
        <ele>218.84</ele>
        <time>2014-10-19T09:47:16Z</time>
      </trkpt>
      <trkpt lat="50.12955" lon="4.10004">
        <ele>219.32</ele>
        <time>2014-10-19T09:47:17Z</time>
      </trkpt>
      <trkpt lat="50.12912" lon="4.10014">
        <ele>221.72</ele>
        <time>2014-10-19T09:47:27Z</time>
      </trkpt>
      <trkpt lat="50.12853" lon="4.10026">
        <ele>221.72</ele>
        <time>2014-10-19T09:47:43Z</time>
      </trkpt>
      <trkpt lat="50.1283" lon="4.10031">
        <ele>221.72</ele>
        <time>2014-10-19T09:47:49Z</time>
      </trkpt>
      <trkpt lat="50.12821" lon="4.10033">
        <ele>220.76</ele>
        <time>2014-10-19T09:47:51Z</time>
      </trkpt>
      <trkpt lat="50.12745" lon="4.10048">
        <ele>217.4</ele>
        <time>2014-10-19T09:48:04Z</time>
      </trkpt>
      <trkpt lat="50.12667" lon="4.10061">
        <ele>214.03</ele>
        <time>2014-10-19T09:48:15Z</time>
      </trkpt>
      <trkpt lat="50.12658" lon="4.10064">
        <ele>213.55</ele>
        <time>2014-10-19T09:48:17Z</time>
      </trkpt>
      <trkpt lat="50.12654" lon="4.10067">
        <ele>213.55</ele>
        <time>2014-10-19T09:48:18Z</time>
      </trkpt>
      <trkpt lat="50.12652" lon="4.10072">
        <ele>213.07</ele>
        <time>2014-10-19T09:48:19Z</time>
      </trkpt>
      <trkpt lat="50.12652" lon="4.10078">
        <ele>213.07</ele>
        <time>2014-10-19T09:48:20Z</time>
      </trkpt>
      <trkpt lat="50.12652" lon="4.10084">
        <ele>213.07</ele>
        <time>2014-10-19T09:48:21Z</time>
      </trkpt>
      <trkpt lat="50.12657" lon="4.10162">
        <ele>213.07</ele>
        <time>2014-10-19T09:48:33Z</time>
      </trkpt>
      <trkpt lat="50.12658" lon="4.10169">
        <ele>213.07</ele>
        <time>2014-10-19T09:48:34Z</time>
      </trkpt>
      <trkpt lat="50.12658" lon="4.10181">
        <ele>214.51</ele>
        <time>2014-10-19T09:48:36Z</time>
      </trkpt>
      <trkpt lat="50.12667" lon="4.1028">
        <ele>216.43</ele>
        <time>2014-10-19T09:48:51Z</time>
      </trkpt>
      <trkpt lat="50.12671" lon="4.10337">
        <ele>216.43</ele>
        <time>2014-10-19T09:49:00Z</time>
      </trkpt>
      <trkpt lat="50.12678" lon="4.1043">
        <ele>216.43</ele>
        <time>2014-10-19T09:49:14Z</time>
      </trkpt>
      <trkpt lat="50.12687" lon="4.10528">
        <ele>214.03</ele>
        <time>2014-10-19T09:49:26Z</time>
      </trkpt>
      <trkpt lat="50.12692" lon="4.10588">
        <ele>215.47</ele>
        <time>2014-10-19T09:49:33Z</time>
      </trkpt>
      <trkpt lat="50.12694" lon="4.10604">
        <ele>216.43</ele>
        <time>2014-10-19T09:49:35Z</time>
      </trkpt>
      <trkpt lat="50.12701" lon="4.10705">
        <ele>217.4</ele>
        <time>2014-10-19T09:49:48Z</time>
      </trkpt>
      <trkpt lat="50.12707" lon="4.10758">
        <ele>217.4</ele>
        <time>2014-10-19T09:49:55Z</time>
      </trkpt>
      <trkpt lat="50.12709" lon="4.10764">
        <ele>217.4</ele>
        <time>2014-10-19T09:49:56Z</time>
      </trkpt>
      <trkpt lat="50.12712" lon="4.1077">
        <ele>217.4</ele>
        <time>2014-10-19T09:49:57Z</time>
      </trkpt>
      <trkpt lat="50.12725" lon="4.10788">
        <ele>217.4</ele>
        <time>2014-10-19T09:50:01Z</time>
      </trkpt>
      <trkpt lat="50.12728" lon="4.10794">
        <ele>217.4</ele>
        <time>2014-10-19T09:50:02Z</time>
      </trkpt>
      <trkpt lat="50.12731" lon="4.108">
        <ele>217.4</ele>
        <time>2014-10-19T09:50:03Z</time>
      </trkpt>
      <trkpt lat="50.12733" lon="4.10807">
        <ele>217.4</ele>
        <time>2014-10-19T09:50:04Z</time>
      </trkpt>
      <trkpt lat="50.12735" lon="4.10814">
        <ele>217.4</ele>
        <time>2014-10-19T09:50:05Z</time>
      </trkpt>
      <trkpt lat="50.12737" lon="4.10821">
        <ele>217.4</ele>
        <time>2014-10-19T09:50:06Z</time>
      </trkpt>
      <trkpt lat="50.12741" lon="4.10844">
        <ele>217.88</ele>
        <time>2014-10-19T09:50:09Z</time>
      </trkpt>
      <trkpt lat="50.12754" lon="4.10946">
        <ele>215.95</ele>
        <time>2014-10-19T09:50:23Z</time>
      </trkpt>
      <trkpt lat="50.12763" lon="4.11038">
        <ele>213.55</ele>
        <time>2014-10-19T09:50:33Z</time>
      </trkpt>
      <trkpt lat="50.12762" lon="4.11045">
        <ele>213.07</ele>
        <time>2014-10-19T09:50:34Z</time>
      </trkpt>
      <trkpt lat="50.12761" lon="4.11051">
        <ele>213.07</ele>
        <time>2014-10-19T09:50:35Z</time>
      </trkpt>
      <trkpt lat="50.12759" lon="4.11055">
        <ele>213.07</ele>
        <time>2014-10-19T09:50:36Z</time>
      </trkpt>
      <trkpt lat="50.12756" lon="4.1106">
        <ele>213.07</ele>
        <time>2014-10-19T09:50:37Z</time>
      </trkpt>
      <trkpt lat="50.12753" lon="4.11064">
        <ele>213.07</ele>
        <time>2014-10-19T09:50:38Z</time>
      </trkpt>
      <trkpt lat="50.12743" lon="4.11077">
        <ele>213.07</ele>
        <time>2014-10-19T09:50:41Z</time>
      </trkpt>
      <trkpt lat="50.1274" lon="4.11081">
        <ele>213.07</ele>
        <time>2014-10-19T09:50:42Z</time>
      </trkpt>
      <trkpt lat="50.12737" lon="4.11086">
        <ele>213.07</ele>
        <time>2014-10-19T09:50:43Z</time>
      </trkpt>
      <trkpt lat="50.12734" lon="4.11091">
        <ele>213.07</ele>
        <time>2014-10-19T09:50:44Z</time>
      </trkpt>
      <trkpt lat="50.12731" lon="4.11097">
        <ele>213.07</ele>
        <time>2014-10-19T09:50:45Z</time>
      </trkpt>
      <trkpt lat="50.12728" lon="4.11103">
        <ele>213.07</ele>
        <time>2014-10-19T09:50:46Z</time>
      </trkpt>
      <trkpt lat="50.12716" lon="4.11128">
        <ele>211.63</ele>
        <time>2014-10-19T09:50:50Z</time>
      </trkpt>
      <trkpt lat="50.12713" lon="4.11136">
        <ele>211.63</ele>
        <time>2014-10-19T09:50:51Z</time>
      </trkpt>
      <trkpt lat="50.12701" lon="4.11179">
        <ele>208.26</ele>
        <time>2014-10-19T09:50:56Z</time>
      </trkpt>
      <trkpt lat="50.12687" lon="4.11233">
        <ele>205.38</ele>
        <time>2014-10-19T09:51:02Z</time>
      </trkpt>
      <trkpt lat="50.12682" lon="4.11251">
        <ele>203.94</ele>
        <time>2014-10-19T09:51:04Z</time>
      </trkpt>
      <trkpt lat="50.12678" lon="4.11259">
        <ele>203.46</ele>
        <time>2014-10-19T09:51:05Z</time>
      </trkpt>
      <trkpt lat="50.12674" lon="4.11267">
        <ele>203.46</ele>
        <time>2014-10-19T09:51:06Z</time>
      </trkpt>
      <trkpt lat="50.12669" lon="4.11275">
        <ele>202.98</ele>
        <time>2014-10-19T09:51:07Z</time>
      </trkpt>
      <trkpt lat="50.12664" lon="4.11282">
        <ele>202.98</ele>
        <time>2014-10-19T09:51:08Z</time>
      </trkpt>
      <trkpt lat="50.1266" lon="4.1129">
        <ele>202.01</ele>
        <time>2014-10-19T09:51:09Z</time>
      </trkpt>
      <trkpt lat="50.12656" lon="4.11299">
        <ele>202.01</ele>
        <time>2014-10-19T09:51:10Z</time>
      </trkpt>
      <trkpt lat="50.12653" lon="4.11308">
        <ele>201.53</ele>
        <time>2014-10-19T09:51:11Z</time>
      </trkpt>
      <trkpt lat="50.12651" lon="4.11318">
        <ele>201.53</ele>
        <time>2014-10-19T09:51:12Z</time>
      </trkpt>
      <trkpt lat="50.12646" lon="4.11346">
        <ele>201.05</ele>
        <time>2014-10-19T09:51:15Z</time>
      </trkpt>
      <trkpt lat="50.12645" lon="4.11355">
        <ele>201.05</ele>
        <time>2014-10-19T09:51:16Z</time>
      </trkpt>
      <trkpt lat="50.12645" lon="4.11364">
        <ele>201.05</ele>
        <time>2014-10-19T09:51:17Z</time>
      </trkpt>
      <trkpt lat="50.12645" lon="4.11372">
        <ele>201.05</ele>
        <time>2014-10-19T09:51:18Z</time>
      </trkpt>
      <trkpt lat="50.12645" lon="4.11379">
        <ele>201.05</ele>
        <time>2014-10-19T09:51:19Z</time>
      </trkpt>
      <trkpt lat="50.12644" lon="4.11414">
        <ele>201.05</ele>
        <time>2014-10-19T09:51:24Z</time>
      </trkpt>
      <trkpt lat="50.12643" lon="4.1142">
        <ele>201.05</ele>
        <time>2014-10-19T09:51:25Z</time>
      </trkpt>
      <trkpt lat="50.12641" lon="4.11424">
        <ele>201.05</ele>
        <time>2014-10-19T09:51:26Z</time>
      </trkpt>
      <trkpt lat="50.12638" lon="4.11428">
        <ele>201.05</ele>
        <time>2014-10-19T09:51:27Z</time>
      </trkpt>
      <trkpt lat="50.12635" lon="4.11431">
        <ele>201.05</ele>
        <time>2014-10-19T09:51:28Z</time>
      </trkpt>
      <trkpt lat="50.12631" lon="4.11434">
        <ele>201.05</ele>
        <time>2014-10-19T09:51:29Z</time>
      </trkpt>
      <trkpt lat="50.12628" lon="4.11437">
        <ele>201.05</ele>
        <time>2014-10-19T09:51:30Z</time>
      </trkpt>
      <trkpt lat="50.12624" lon="4.11439">
        <ele>201.05</ele>
        <time>2014-10-19T09:51:31Z</time>
      </trkpt>
      <trkpt lat="50.12611" lon="4.11443">
        <ele>202.01</ele>
        <time>2014-10-19T09:51:35Z</time>
      </trkpt>
      <trkpt lat="50.12565" lon="4.11431">
        <ele>203.94</ele>
        <time>2014-10-19T09:51:48Z</time>
      </trkpt>
      <trkpt lat="50.12562" lon="4.11429">
        <ele>203.94</ele>
        <time>2014-10-19T09:51:49Z</time>
      </trkpt>
      <trkpt lat="50.12559" lon="4.11426">
        <ele>203.94</ele>
        <time>2014-10-19T09:51:50Z</time>
      </trkpt>
      <trkpt lat="50.12555" lon="4.11424">
        <ele>203.94</ele>
        <time>2014-10-19T09:51:51Z</time>
      </trkpt>
      <trkpt lat="50.12552" lon="4.11422">
        <ele>204.42</ele>
        <time>2014-10-19T09:51:52Z</time>
      </trkpt>
      <trkpt lat="50.12548" lon="4.11419">
        <ele>204.42</ele>
        <time>2014-10-19T09:51:53Z</time>
      </trkpt>
      <trkpt lat="50.12545" lon="4.11415">
        <ele>204.42</ele>
        <time>2014-10-19T09:51:54Z</time>
      </trkpt>
      <trkpt lat="50.12543" lon="4.1141">
        <ele>204.9</ele>
        <time>2014-10-19T09:51:55Z</time>
      </trkpt>
      <trkpt lat="50.12541" lon="4.11405">
        <ele>204.9</ele>
        <time>2014-10-19T09:51:56Z</time>
      </trkpt>
      <trkpt lat="50.12539" lon="4.114">
        <ele>204.9</ele>
        <time>2014-10-19T09:51:57Z</time>
      </trkpt>
      <trkpt lat="50.12512" lon="4.11335">
        <ele>204.9</ele>
        <time>2014-10-19T09:52:10Z</time>
      </trkpt>
      <trkpt lat="50.1251" lon="4.11329">
        <ele>204.9</ele>
        <time>2014-10-19T09:52:11Z</time>
      </trkpt>
      <trkpt lat="50.12507" lon="4.11325">
        <ele>204.9</ele>
        <time>2014-10-19T09:52:12Z</time>
      </trkpt>
      <trkpt lat="50.12504" lon="4.1132">
        <ele>204.9</ele>
        <time>2014-10-19T09:52:13Z</time>
      </trkpt>
      <trkpt lat="50.12501" lon="4.11315">
        <ele>204.9</ele>
        <time>2014-10-19T09:52:14Z</time>
      </trkpt>
      <trkpt lat="50.12498" lon="4.1131">
        <ele>204.9</ele>
        <time>2014-10-19T09:52:15Z</time>
      </trkpt>
      <trkpt lat="50.12496" lon="4.11304">
        <ele>204.9</ele>
        <time>2014-10-19T09:52:16Z</time>
      </trkpt>
      <trkpt lat="50.12493" lon="4.11298">
        <ele>203.46</ele>
        <time>2014-10-19T09:52:17Z</time>
      </trkpt>
      <trkpt lat="50.1249" lon="4.11293">
        <ele>203.46</ele>
        <time>2014-10-19T09:52:18Z</time>
      </trkpt>
      <trkpt lat="50.12463" lon="4.11249">
        <ele>202.01</ele>
        <time>2014-10-19T09:52:26Z</time>
      </trkpt>
      <trkpt lat="50.12459" lon="4.11244">
        <ele>202.01</ele>
        <time>2014-10-19T09:52:27Z</time>
      </trkpt>
      <trkpt lat="50.12455" lon="4.11241">
        <ele>202.01</ele>
        <time>2014-10-19T09:52:28Z</time>
      </trkpt>
      <trkpt lat="50.1245" lon="4.11239">
        <ele>201.53</ele>
        <time>2014-10-19T09:52:29Z</time>
      </trkpt>
      <trkpt lat="50.12446" lon="4.11236">
        <ele>201.53</ele>
        <time>2014-10-19T09:52:30Z</time>
      </trkpt>
      <trkpt lat="50.12442" lon="4.11233">
        <ele>201.53</ele>
        <time>2014-10-19T09:52:31Z</time>
      </trkpt>
      <trkpt lat="50.12438" lon="4.11231">
        <ele>201.05</ele>
        <time>2014-10-19T09:52:32Z</time>
      </trkpt>
      <trkpt lat="50.12435" lon="4.11228">
        <ele>201.05</ele>
        <time>2014-10-19T09:52:33Z</time>
      </trkpt>
      <trkpt lat="50.12432" lon="4.11225">
        <ele>201.05</ele>
        <time>2014-10-19T09:52:34Z</time>
      </trkpt>
      <trkpt lat="50.12429" lon="4.11223">
        <ele>201.05</ele>
        <time>2014-10-19T09:52:35Z</time>
      </trkpt>
      <trkpt lat="50.12426" lon="4.11222">
        <ele>200.57</ele>
        <time>2014-10-19T09:52:36Z</time>
      </trkpt>
      <trkpt lat="50.12421" lon="4.11222">
        <ele>200.57</ele>
        <time>2014-10-19T09:52:37Z</time>
      </trkpt>
      <trkpt lat="50.12417" lon="4.11224">
        <ele>200.57</ele>
        <time>2014-10-19T09:52:38Z</time>
      </trkpt>
      <trkpt lat="50.12414" lon="4.11225">
        <ele>200.57</ele>
        <time>2014-10-19T09:52:39Z</time>
      </trkpt>
      <trkpt lat="50.1241" lon="4.11225">
        <ele>200.57</ele>
        <time>2014-10-19T09:52:40Z</time>
      </trkpt>
      <trkpt lat="50.12405" lon="4.11226">
        <ele>200.57</ele>
        <time>2014-10-19T09:52:41Z</time>
      </trkpt>
      <trkpt lat="50.12401" lon="4.11228">
        <ele>200.57</ele>
        <time>2014-10-19T09:52:42Z</time>
      </trkpt>
      <trkpt lat="50.12397" lon="4.11231">
        <ele>200.57</ele>
        <time>2014-10-19T09:52:43Z</time>
      </trkpt>
      <trkpt lat="50.12362" lon="4.11263">
        <ele>201.53</ele>
        <time>2014-10-19T09:52:53Z</time>
      </trkpt>
      <trkpt lat="50.12307" lon="4.11298">
        <ele>201.53</ele>
        <time>2014-10-19T09:53:07Z</time>
      </trkpt>
      <trkpt lat="50.12269" lon="4.11313">
        <ele>204.42</ele>
        <time>2014-10-19T09:53:18Z</time>
      </trkpt>
      <trkpt lat="50.12234" lon="4.11331">
        <ele>205.86</ele>
        <time>2014-10-19T09:53:29Z</time>
      </trkpt>
      <trkpt lat="50.12215" lon="4.11365">
        <ele>202.98</ele>
        <time>2014-10-19T09:53:36Z</time>
      </trkpt>
      <trkpt lat="50.12213" lon="4.11373">
        <ele>202.49</ele>
        <time>2014-10-19T09:53:37Z</time>
      </trkpt>
      <trkpt lat="50.1221" lon="4.11388">
        <ele>201.05</ele>
        <time>2014-10-19T09:53:39Z</time>
      </trkpt>
      <trkpt lat="50.1221" lon="4.11398">
        <ele>200.57</ele>
        <time>2014-10-19T09:53:40Z</time>
      </trkpt>
      <trkpt lat="50.12211" lon="4.11416">
        <ele>199.61</ele>
        <time>2014-10-19T09:53:42Z</time>
      </trkpt>
      <trkpt lat="50.12211" lon="4.11464">
        <ele>196.73</ele>
        <time>2014-10-19T09:53:48Z</time>
      </trkpt>
      <trkpt lat="50.12215" lon="4.11502">
        <ele>193.36</ele>
        <time>2014-10-19T09:53:52Z</time>
      </trkpt>
      <trkpt lat="50.12216" lon="4.11512">
        <ele>192.4</ele>
        <time>2014-10-19T09:53:53Z</time>
      </trkpt>
      <trkpt lat="50.12217" lon="4.11541">
        <ele>190</ele>
        <time>2014-10-19T09:53:56Z</time>
      </trkpt>
      <trkpt lat="50.12223" lon="4.11581">
        <ele>186.15</ele>
        <time>2014-10-19T09:54:00Z</time>
      </trkpt>
      <trkpt lat="50.12224" lon="4.11592">
        <ele>185.67</ele>
        <time>2014-10-19T09:54:01Z</time>
      </trkpt>
      <trkpt lat="50.12225" lon="4.11614">
        <ele>184.23</ele>
        <time>2014-10-19T09:54:03Z</time>
      </trkpt>
      <trkpt lat="50.12223" lon="4.11623">
        <ele>183.75</ele>
        <time>2014-10-19T09:54:04Z</time>
      </trkpt>
      <trkpt lat="50.12222" lon="4.11632">
        <ele>182.79</ele>
        <time>2014-10-19T09:54:05Z</time>
      </trkpt>
      <trkpt lat="50.12219" lon="4.11639">
        <ele>182.79</ele>
        <time>2014-10-19T09:54:06Z</time>
      </trkpt>
      <trkpt lat="50.12216" lon="4.11646">
        <ele>182.31</ele>
        <time>2014-10-19T09:54:07Z</time>
      </trkpt>
      <trkpt lat="50.12211" lon="4.11652">
        <ele>182.31</ele>
        <time>2014-10-19T09:54:08Z</time>
      </trkpt>
      <trkpt lat="50.12206" lon="4.11656">
        <ele>182.31</ele>
        <time>2014-10-19T09:54:09Z</time>
      </trkpt>
      <trkpt lat="50.122" lon="4.1166">
        <ele>181.35</ele>
        <time>2014-10-19T09:54:10Z</time>
      </trkpt>
      <trkpt lat="50.12194" lon="4.11664">
        <ele>181.83</ele>
        <time>2014-10-19T09:54:11Z</time>
      </trkpt>
      <trkpt lat="50.12163" lon="4.11682">
        <ele>179.9</ele>
        <time>2014-10-19T09:54:20Z</time>
      </trkpt>
      <trkpt lat="50.12159" lon="4.11687">
        <ele>179.9</ele>
        <time>2014-10-19T09:54:28Z</time>
      </trkpt>
      <trkpt lat="50.12159" lon="4.11707">
        <ele>179.42</ele>
        <time>2014-10-19T09:54:32Z</time>
      </trkpt>
      <trkpt lat="50.1216" lon="4.11713">
        <ele>179.42</ele>
        <time>2014-10-19T09:54:33Z</time>
      </trkpt>
      <trkpt lat="50.12161" lon="4.1172">
        <ele>179.42</ele>
        <time>2014-10-19T09:54:34Z</time>
      </trkpt>
      <trkpt lat="50.12162" lon="4.11727">
        <ele>179.42</ele>
        <time>2014-10-19T09:54:35Z</time>
      </trkpt>
      <trkpt lat="50.12164" lon="4.11734">
        <ele>179.42</ele>
        <time>2014-10-19T09:54:36Z</time>
      </trkpt>
      <trkpt lat="50.12176" lon="4.11793">
        <ele>179.42</ele>
        <time>2014-10-19T09:54:44Z</time>
      </trkpt>
      <trkpt lat="50.122" lon="4.11913">
        <ele>179.42</ele>
        <time>2014-10-19T09:55:00Z</time>
      </trkpt>
      <trkpt lat="50.12204" lon="4.11927">
        <ele>180.87</ele>
        <time>2014-10-19T09:55:02Z</time>
      </trkpt>
      <trkpt lat="50.12205" lon="4.11935">
        <ele>180.87</ele>
        <time>2014-10-19T09:55:03Z</time>
      </trkpt>
      <trkpt lat="50.1221" lon="4.12012">
        <ele>181.35</ele>
        <time>2014-10-19T09:55:13Z</time>
      </trkpt>
      <trkpt lat="50.12209" lon="4.12033">
        <ele>181.35</ele>
        <time>2014-10-19T09:55:16Z</time>
      </trkpt>
      <trkpt lat="50.12208" lon="4.12039">
        <ele>181.35</ele>
        <time>2014-10-19T09:55:17Z</time>
      </trkpt>
      <trkpt lat="50.12206" lon="4.12046">
        <ele>181.35</ele>
        <time>2014-10-19T09:55:18Z</time>
      </trkpt>
      <trkpt lat="50.122" lon="4.12065">
        <ele>181.35</ele>
        <time>2014-10-19T09:55:21Z</time>
      </trkpt>
      <trkpt lat="50.12191" lon="4.12092">
        <ele>181.35</ele>
        <time>2014-10-19T09:55:25Z</time>
      </trkpt>
      <trkpt lat="50.12179" lon="4.12117">
        <ele>179.9</ele>
        <time>2014-10-19T09:55:29Z</time>
      </trkpt>
      <trkpt lat="50.12178" lon="4.12151">
        <ele>179.42</ele>
        <time>2014-10-19T09:55:35Z</time>
      </trkpt>
      <trkpt lat="50.12187" lon="4.12151">
        <ele>180.38</ele>
        <time>2014-10-19T09:55:39Z</time>
      </trkpt>
      <trkpt lat="50.12188" lon="4.1215">
        <ele>180.87</ele>
        <time>2014-10-19T09:55:41Z</time>
      </trkpt>
      <trkpt lat="50.12193" lon="4.12154">
        <ele>181.83</ele>
        <time>2014-10-19T09:55:56Z</time>
      </trkpt>
      <trkpt lat="50.12192" lon="4.12155">
        <ele>181.83</ele>
        <time>2014-10-19T09:56:21Z</time>
      </trkpt>
      <trkpt lat="50.12192" lon="4.12157">
        <ele>181.83</ele>
        <time>2014-10-19T09:56:44Z</time>
      </trkpt>
      <trkpt lat="50.12191" lon="4.12158">
        <ele>182.31</ele>
        <time>2014-10-19T09:56:59Z</time>
      </trkpt>
      <trkpt lat="50.12191" lon="4.12158">
        <ele>182.31</ele>
        <time>2014-10-19T09:57:00Z</time>
      </trkpt>
      <trkpt lat="50.12191" lon="4.12158">
        <ele>174.14</ele>
        <time>2014-10-19T10:06:48Z</time>
      </trkpt>
    </trkseg>
  </trk>
</gpx>